Darstellungsparameter: Aktuell verwendete Einstellungen:
Skalierung der Graphiken ... ?
xyx+y,   Skalierungsfaktor:      Skalierung: Modus: x, Faktor: 1
Darstellungszeitraum ... ?
Vom - - bis: - -   Zeitraum: 16.08.2004 - 15.08.2014
Min/Max/Avg-Anzeige ... ?
Zeige MMA aktuell
Zeige MMA Monat
Zeige MMA alles
Zeige --A aktuell
Zeige --A Monat
Zeige --A alles
Keine MMA-Anzeige
MMA:
Minimum Maximum Average (ber die Originaldaten)
MMA-Basis: 16.08.2004 - 15.08.2014
Quicknavigation für Darstellung... ?
Tage:      1T, 2T, 3T, 5T -1T -2T -3T -5T +1T +2T +3T +5T
Wochen: 1W, 2W, 3W -1W -2W -3W +1W +2W +3W
Monate: 1M, 3M, 6M -1M -3M -6M +1M +3M +6M
Jahre:    1J, 3J, 5J, 10J -1J -3J -5J -10J +1J +3J +5J +10J
Nutze für die Darstellung ... ?
Originaldaten oder ...
Mittelwerte Minima Maxima auf...
Stundenbasis Tagesbasis Wochenbasis
Monatsbasis Jahresbasis      Datenbasis: Mittelwerte auf Tagesbasis
Darstellen als:
Statistik (Auto) Statistik J:M      Darstellung:
Zur Graphik,    zurück zur Übersicht aller Sensoren.
 
Tabellarische Datenbersicht: ?
 
Sensor: Nr:Datum:Temp:Feuchte:Taupunkt:
Aussen-T/F 1 16-08-2004 00:00:00 20.10625 C 72.5000 % 15.01 C
2 17-08-2004 00:00:00 20.58958 C 77.5417 % 16.53 C
3 18-08-2004 00:00:00 22.67292 C 65.4167 % 15.86 C
4 19-08-2004 00:00:00 21.05417 C 63.5417 % 13.87 C
5 20-08-2004 00:00:00 18.89583 C 64.2292 % 12 C
6 21-08-2004 00:00:00 15.52708 C 79.5417 % 12.01 C
7 22-08-2004 00:00:00 16.41042 C 64.4792 % 9.7 C
8 23-08-2004 00:00:00 16.42708 C 72.7708 % 11.53 C
9 24-08-2004 00:00:00 17.42083 C 77.5833 % 13.46 C
10 25-08-2004 00:00:00 16.20847 C 73.5424 % 11.48 C
11 26-08-2004 00:00:00 16.76083 C 70.0000 % 11.26 C
12 27-08-2004 00:00:00 15.82269 C 69.9076 % 10.35 C
13 28-08-2004 00:00:00 17.58 C 82.4000 % 14.55 C
14 29-08-2004 00:00:00 18.84917 C 71.7750 % 13.65 C
15 30-08-2004 00:00:00 15.81333 C 77.4250 % 11.88 C
16 31-08-2004 00:00:00 14.84333 C 69.8917 % 9.41 C
17 01-09-2004 00:00:00 15.91667 C 66.9333 % 9.79 C
18 02-09-2004 00:00:00 17.21429 C 65.6639 % 10.73 C
19 03-09-2004 00:00:00 20.0275 C 67.9667 % 13.94 C
20 04-09-2004 00:00:00 21.15083 C 68.3500 % 15.09 C
21 05-09-2004 00:00:00 21.63833 C 66.2833 % 15.08 C
22 06-09-2004 00:00:00 20.35 C 61.9083 % 12.81 C
23 07-09-2004 00:00:00 21.00167 C 60.4083 % 13.05 C
24 08-09-2004 00:00:00 20.15294 C 59.9664 % 12.14 C
25 09-09-2004 00:00:00 18.48167 C 51.1250 % 8.2 C
Sensor: Nr:Datum:Temp:Feuchte:Taupunkt:
Aussen-T/F 26 10-09-2004 00:00:00 17.9825 C 53.8167 % 8.5 C
27 11-09-2004 00:00:00 20.54583 C 69.2167 % 14.71 C
28 12-09-2004 00:00:00 17.1475 C 61.9000 % 9.79 C
29 13-09-2004 00:00:00 17.07 C 61.1250 % 9.53 C
30 14-09-2004 00:00:00 17.45462 C 56.7311 % 8.78 C
31 15-09-2004 00:00:00 14.54333 C 65.4667 % 8.15 C
32 16-09-2004 00:00:00 12.64 C 65.5083 % 6.35 C
33 17-09-2004 00:00:00 13.2175 C 64.3167 % 6.64 C
34 18-09-2004 00:00:00 15.71667 C 64.6333 % 9.08 C
35 19-09-2004 00:00:00 16.38 C 73.0333 % 11.54 C
36 20-09-2004 00:00:00 13.69833 C 64.3083 % 7.09 C
37 21-09-2004 00:00:00 15.01167 C 53.8000 % 5.74 C
38 22-09-2004 00:00:00 12.50168 C 69.4370 % 7.07 C
39 23-09-2004 00:00:00 13.44917 C 89.2500 % 11.72 C
40 24-09-2004 00:00:00 12.08833 C 71.6250 % 7.12 C
41 25-09-2004 00:00:00 12.41167 C 68.9917 % 6.89 C
42 26-09-2004 00:00:00 12.71667 C 74.8833 % 8.38 C
43 27-09-2004 00:00:00 13.985 C 80.9167 % 10.76 C
44 28-09-2004 00:00:00 15.85833 C 76.8667 % 11.81 C
45 29-09-2004 00:00:00 15.4525 C 68.0417 % 9.59 C
46 30-09-2004 00:00:00 13.13583 C 74.7083 % 8.75 C
47 01-10-2004 00:00:00 15.1775 C 72.6833 % 10.31 C
48 02-10-2004 00:00:00 14.82333 C 71.5917 % 9.74 C
49 03-10-2004 00:00:00 13.56417 C 70.9417 % 8.4 C
50 04-10-2004 00:00:00 16.06303 C 71.6807 % 10.95 C
Sensor: Nr:Datum:Temp:Feuchte:Taupunkt:
Aussen-T/F 51 05-10-2004 00:00:00 19.11667 C 68.2250 % 13.13 C
52 06-10-2004 00:00:00 14.425 C 80.4500 % 11.11 C
53 07-10-2004 00:00:00 11.63417 C 73.6750 % 7.1 C
54 08-10-2004 00:00:00 9.55667 C 83.5000 % 6.9 C
55 09-10-2004 00:00:00 10.71833 C 76.3250 % 6.73 C
56 10-10-2004 00:00:00 9.49167 C 67.7083 % 3.83 C
57 11-10-2004 00:00:00 8.54167 C 60.9083 % 1.44 C
58 12-10-2004 00:00:00 8.30333 C 60.1500 % 1.04 C
59 13-10-2004 00:00:00 9.11167 C 77.2750 % 5.35 C
60 14-10-2004 00:00:00 11.28417 C 78.9417 % 7.77 C
61 15-10-2004 00:00:00 10.13917 C 79.0750 % 6.68 C
62 16-10-2004 00:00:00 7.7475 C 85.5000 % 5.47 C
63 17-10-2004 00:00:00 8.67143 C 80.5294 % 5.52 C
64 18-10-2004 00:00:00 9.92417 C 73.9417 % 5.5 C
65 19-10-2004 00:00:00 8.205 C 83.8250 % 5.64 C
66 20-10-2004 00:00:00 12.1075 C 89.2500 % 10.39 C
67 21-10-2004 00:00:00 14.14083 C 68.6500 % 8.47 C
68 22-10-2004 00:00:00 10.405 C 77.9333 % 6.73 C
69 23-10-2004 00:00:00 14.51083 C 72.1583 % 9.56 C
70 24-10-2004 00:00:00 15.26 C 78.4083 % 11.53 C
71 25-10-2004 00:00:00 14.77917 C 69.8083 % 9.33 C
72 26-10-2004 00:00:00 10.89917 C 79.1083 % 7.43 C
73 27-10-2004 00:00:00 9.63083 C 79.6500 % 6.29 C
74 28-10-2004 00:00:00 12.44833 C 79.7750 % 9.06 C
75 29-10-2004 00:00:00 12.78908 C 85.4202 % 10.41 C
Sensor: Nr:Datum:Temp:Feuchte:Taupunkt:
Aussen-T/F 76 30-10-2004 00:00:00 10.50417 C 90.2583 % 8.98 C
77 31-10-2004 00:00:00 10.9848 C 82.0720 % 8.05 C
78 01-11-2004 00:00:00 9.905 C 78.6833 % 6.38 C
79 02-11-2004 00:00:00 10.325 C 80.0667 % 7.04 C
80 03-11-2004 00:00:00 10.58917 C 88.1667 % 8.71 C
81 04-11-2004 00:00:00 10.43417 C 93.4417 % 9.42 C
82 05-11-2004 00:00:00 8.9725 C 76.3917 % 5.05 C
83 06-11-2004 00:00:00 7.45417 C 84.7250 % 5.05 C
84 07-11-2004 00:00:00 5.835 C 89.5417 % 4.25 C
85 08-11-2004 00:00:00 3.9825 C 92.0750 % 2.82 C
86 09-11-2004 00:00:00 2.1375 C 87.1083 % 0.22 C
87 10-11-2004 00:00:00 1.37667 C 93.5083 % 0.45 C
88 11-11-2004 00:00:00 3.1563 C 86.1681 % 1.07 C
89 12-11-2004 00:00:00 4.21333 C 82.0917 % 1.44 C
90 13-11-2004 00:00:00 4.75583 C 80.5083 % 1.7 C
91 14-11-2004 00:00:00 3.52333 C 80.9833 % 0.57 C
92 15-11-2004 00:00:00 2.90583 C 84.4000 % 0.54 C
93 16-11-2004 00:00:00 6.5475 C 78.0750 % 3.01 C
94 17-11-2004 00:00:00 9.91917 C 75.4000 % 5.78 C
95 18-11-2004 00:00:00 9.40583 C 79.1750 % 5.99 C
96 19-11-2004 00:00:00 3.91083 C 71.1417 % -0.83 C
97 20-11-2004 00:00:00 2.23583 C 60.8500 % -4.52 C
98 21-11-2004 00:00:00 0.33333 C 76.7833 % -3.25 C
99 22-11-2004 00:00:00 8.65583 C 79.0000 % 5.22 C
100 23-11-2004 00:00:00 7.97563 C 83.1429 % 5.3 C
Sensor: Nr:Datum:Temp:Feuchte:Taupunkt:
Aussen-T/F 101 24-11-2004 00:00:00 1.78417 C 86.8750 % -0.16 C
102 25-11-2004 00:00:00 -0.49667 C 85.4500 % -2.63 C
103 26-11-2004 00:00:00 3.6775 C 76.6000 % -0.04 C
104 27-11-2004 00:00:00 7.69167 C 78.5583 % 4.21 C
105 28-11-2004 00:00:00 8.34417 C 72.1833 % 3.64 C
106 29-11-2004 00:00:00 5.86583 C 78.1750 % 2.36 C
107 30-11-2004 00:00:00 2.81167 C 83.5917 % 0.32 C
108 01-12-2004 00:00:00 4.71167 C 77.3333 % 1.09 C
109 02-12-2004 00:00:00 4.24333 C 74.9083 % 0.2 C
110 03-12-2004 00:00:00 3.0975 C 88.2167 % 1.34 C
111 04-12-2004 00:00:00 1.99667 C 82.7417 % -0.62 C
112 05-12-2004 00:00:00 1.255 C 78.9750 % -1.98 C
113 06-12-2004 00:00:00 4.54622 C 80.5546 % 1.5 C
114 07-12-2004 00:00:00 4.37667 C 74.4250 % 0.24 C
115 08-12-2004 00:00:00 5.02833 C 73.5417 % 0.7 C
116 09-12-2004 00:00:00 -0.1025 C 80.9083 % -2.98 C
117 10-12-2004 00:00:00 -3.5675 C 86.2917 % -5.52 C
118 11-12-2004 00:00:00 -2.575 C 86.5500 % -4.5 C
119 12-12-2004 00:00:00 -1.58833 C 74.9583 % -5.44 C
120 13-12-2004 00:00:00 -1.33917 C 73.0333 % -5.54 C
121 14-12-2004 00:00:00 -2.87083 C 78.6333 % -6.06 C
122 15-12-2004 00:00:00 -3.50917 C 86.1167 % -5.49 C
123 16-12-2004 00:00:00 -0.65333 C 87.2000 % -2.51 C
124 17-12-2004 00:00:00 5.17667 C 81.4083 % 2.26 C
125 18-12-2004 00:00:00 3.6479 C 74.2605 % -0.5 C
Sensor: Nr:Datum:Temp:Feuchte:Taupunkt:
Aussen-T/F 126 19-12-2004 00:00:00 1.25083 C 80.6333 % -1.7 C
127 20-12-2004 00:00:00 -2.95667 C 82.7583 % -5.47 C
128 21-12-2004 00:00:00 -6.37167 C 79.9333 % -9.26 C
129 22-12-2004 00:00:00 -1.36667 C 78.1500 % -4.67 C
130 23-12-2004 00:00:00 5.19667 C 80.9000 % 2.19 C
131 24-12-2004 00:00:00 8.21833 C 76.9750 % 4.43 C
132 25-12-2004 00:00:00 6.31333 C 74.3000 % 2.09 C
133 26-12-2004 00:00:00 1.5975 C 85.4417 % -0.57 C
134 27-12-2004 00:00:00 1.34167 C 69.8583 % -3.54 C
135 28-12-2004 00:00:00 0.25917 C 76.1000 % -3.44 C
136 29-12-2004 00:00:00 2.37333 C 83.4250 % -0.14 C
137 30-12-2004 00:00:00 3.3325 C 76.1083 % -0.46 C
138 31-12-2004 00:00:00 6.41333 C 80.2417 % 3.26 C
139 01-01-2005 00:00:00 7.80171 C 76.6923 % 3.97 C
140 02-01-2005 00:00:00 5.9225 C 61.2917 % -0.94 C
141 03-01-2005 00:00:00 4.92521 C 68.6387 % -0.35 C
142 04-01-2005 00:00:00 5.78083 C 68.9083 % 0.53 C
143 05-01-2005 00:00:00 4.83917 C 78.0167 % 1.34 C
144 06-01-2005 00:00:00 6.5425 C 76.7333 % 2.76 C
145 07-01-2005 00:00:00 10.02917 C 65.2917 % 3.83 C
146 08-01-2005 00:00:00 9.30079 C 57.8254 % 1.43 C
147 09-01-2005 00:00:00 6.9625 C 63.9583 % 0.62 C
148 10-01-2005 00:00:00 10.83083 C 62.5833 % 3.98 C
149 11-01-2005 00:00:00 9.06807 C 66.8824 % 3.25 C
150 12-01-2005 00:00:00 8.70833 C 71.3333 % 3.82 C
Sensor: Nr:Datum:Temp:Feuchte:Taupunkt:
Aussen-T/F 151 13-01-2005 00:00:00 4.19917 C 67.5083 % -1.27 C
152 14-01-2005 00:00:00 1.69333 C 77.4417 % -1.82 C
153 15-01-2005 00:00:00 -0.22583 C 81.1000 % -3.07 C
154 16-01-2005 00:00:00 -2.78333 C 81.7083 % -5.47 C
155 17-01-2005 00:00:00 2.64583 C 78.6250 % -0.69 C
156 18-01-2005 00:00:00 4.8275 C 77.3583 % 1.21 C
157 19-01-2005 00:00:00 3.46917 C 73.5167 % -0.81 C
158 20-01-2005 00:00:00 8.7 C 71.8833 % 3.92 C
159 21-01-2005 00:00:00 6.0475 C 55.7333 % -2.12 C
160 22-01-2005 00:00:00 3.84167 C 68.3500 % -1.44 C
161 23-01-2005 00:00:00 2.245 C 76.4083 % -1.46 C
162 24-01-2005 00:00:00 -0.1275 C 69.0083 % -5.12 C
163 25-01-2005 00:00:00 -1.08333 C 61.7917 % -7.47 C
164 26-01-2005 00:00:00 -0.69496 C 54.8571 % -8.63 C
165 27-01-2005 00:00:00 -2.94167 C 67.1250 % -8.17 C
166 28-01-2005 00:00:00 -0.65417 C 72.5083 % -4.97 C
167 29-01-2005 00:00:00 -3.79333 C 69.2500 % -8.59 C
168 30-01-2005 00:00:00 -1.29083 C 69.3667 % -6.17 C
169 31-01-2005 00:00:00 3.05083 C 82.3083 % 0.34 C
170 01-02-2005 00:00:00 3.62917 C 74.6333 % -0.45 C
171 02-02-2005 00:00:00 4.28417 C 82.6250 % 1.6 C
172 03-02-2005 00:00:00 5.17 C 78.2833 % 1.71 C
173 04-02-2005 00:00:00 2.60917 C 79.2583 % -0.61 C
174 05-02-2005 00:00:00 -0.30583 C 67.3833 % -5.6 C
175 06-02-2005 00:00:00 0.64333 C 59.0917 % -6.41 C
Sensor: Nr:Datum:Temp:Feuchte:Taupunkt:
Aussen-T/F 176 07-02-2005 00:00:00 -0.38034 C 66.2137 % -5.9 C
177 08-02-2005 00:00:00 -0.04333 C 79.4917 % -3.16 C
178 09-02-2005 00:00:00 1.38333 C 79.0000 % -1.85 C
179 10-02-2005 00:00:00 5.81917 C 73.1167 % 1.39 C
180 11-02-2005 00:00:00 8.145 C 79.2250 % 4.77 C
181 12-02-2005 00:00:00 9.7825 C 74.4333 % 5.46 C
182 13-02-2005 00:00:00 3.3175 C 69.3917 % -1.74 C
183 14-02-2005 00:00:00 1.97917 C 80.3750 % -1.03 C
184 15-02-2005 00:00:00 0.3958 C 73.7731 % -3.73 C
185 16-02-2005 00:00:00 -0.49083 C 65.7250 % -6.11 C
186 17-02-2005 00:00:00 -0.4075 C 61.2333 % -6.95 C
187 18-02-2005 00:00:00 -0.81333 C 58.3083 % -7.96 C
188 19-02-2005 00:00:00 0.64583 C 79.5583 % -2.47 C
189 20-02-2005 00:00:00 1.39083 C 79.6250 % -1.74 C
190 21-02-2005 00:00:00 1.055 C 78.7250 % -2.22 C
191 22-02-2005 00:00:00 -0.25196 C 63.7353 % -6.28 C
192 23-02-2005 00:00:00 -1.68333 C 69.4722 % -6.52 C
193 24-02-2005 00:00:00 -1.31111 C 65.5972 % -6.91 C
194 25-02-2005 00:00:00 -2.17778 C 65.8750 % -7.69 C
195 26-02-2005 00:00:00 -0.5 C 73.8889 % -4.57 C
196 27-02-2005 00:00:00 -3.63472 C 60.6528 % -10.12 C
197 28-02-2005 00:00:00 -6.9625 C 55.3333 % -14.39 C
198 01-03-2005 00:00:00 -5.96528 C 43.6806 % -16.32 C
199 02-03-2005 00:00:00 -1.48056 C 40.0000 % -13.31 C
200 03-03-2005 00:00:00 -0.1375 C 45.3750 % -10.53 C
Sensor: Nr:Datum:Temp:Feuchte:Taupunkt:
Aussen-T/F 201 04-03-2005 00:00:00 -0.27982 C 55.5965 % -8.07 C
202 05-03-2005 00:00:00 -0.07014 C 66.0417 % -5.64 C
203 06-03-2005 00:00:00 -1.81042 C 53.8611 % -9.91 C
204 07-03-2005 00:00:00 1.11888 C 68.0140 % -4.11 C
205 08-03-2005 00:00:00 3.91111 C 74.5903 % -0.18 C
206 09-03-2005 00:00:00 3.77708 C 78.4028 % 0.38 C
207 10-03-2005 00:00:00 4.05347 C 63.5486 % -2.22 C
208 11-03-2005 00:00:00 2.94028 C 66.2986 % -2.71 C
209 12-03-2005 00:00:00 2.99514 C 68.1111 % -2.3 C
210 13-03-2005 00:00:00 4.81528 C 53.3264 % -3.86 C
211 14-03-2005 00:00:00 5.70208 C 49.5069 % -4.02 C
212 15-03-2005 00:00:00 7.14306 C 51.8542 % -2.07 C
213 16-03-2005 00:00:00 12.97083 C 51.4653 % 3.21 C
214 17-03-2005 00:00:00 14.52308 C 53.6783 % 5.25 C
215 18-03-2005 00:00:00 14.71528 C 59.9583 % 7.03 C
216 19-03-2005 00:00:00 13.49931 C 71.6736 % 8.49 C
217 20-03-2005 00:00:00 11.45278 C 54.7986 % 2.69 C
218 21-03-2005 00:00:00 9.87917 C 48.8819 % -0.35 C
219 22-03-2005 00:00:00 11.33056 C 50.6389 % 1.47 C
220 23-03-2005 00:00:00 14.70556 C 65.3611 % 8.28 C
221 24-03-2005 00:00:00 12.16597 C 72.2639 % 7.33 C
222 25-03-2005 00:00:00 13.2875 C 72.5556 % 8.47 C
223 26-03-2005 00:00:00 12.16515 C 71.1288 % 7.1 C
224 27-03-2005 00:00:00 12.68783 C 83.8783 % 10.04 C
225 28-03-2005 00:00:00 12.38833 C 79.1583 % 8.88 C
Sensor: Nr:Datum:Temp:Feuchte:Taupunkt:
Aussen-T/F 226 29-03-2005 00:00:00 13.05 C 72.0417 % 8.13 C
227 30-03-2005 00:00:00 11.45917 C 85.4333 % 9.1 C
228 31-03-2005 00:00:00 11.39 C 68.8250 % 5.88 C
229 01-04-2005 00:00:00 10.41583 C 46.5667 % -0.52 C
230 02-04-2005 00:00:00 10.82167 C 47.0083 % -0.02 C
231 03-04-2005 00:00:00 12.61333 C 47.7583 % 1.84 C
232 04-04-2005 00:00:00 13.35333 C 49.8917 % 3.13 C
233 05-04-2005 00:00:00 11.55833 C 62.0167 % 4.54 C
234 06-04-2005 00:00:00 10.38083 C 63.8500 % 3.84 C
235 07-04-2005 00:00:00 12.06833 C 59.4083 % 4.41 C
236 08-04-2005 00:00:00 7.8825 C 77.3417 % 4.17 C
237 09-04-2005 00:00:00 5.93277 C 58.7059 % -1.52 C
238 10-04-2005 00:00:00 7.76583 C 67.4667 % 2.13 C
239 11-04-2005 00:00:00 10.6825 C 66.2750 % 4.66 C
240 12-04-2005 00:00:00 11.34333 C 66.3167 % 5.3 C
241 13-04-2005 00:00:00 12.79833 C 60.5917 % 5.38 C
242 14-04-2005 00:00:00 13.26 C 58.4667 % 5.3 C
243 15-04-2005 00:00:00 12.42583 C 64.6167 % 5.95 C
244 16-04-2005 00:00:00 10.05167 C 81.7333 % 7.08 C
245 17-04-2005 00:00:00 11.35583 C 81.7333 % 8.35 C
246 18-04-2005 00:00:00 14.87083 C 62.1667 % 7.7 C
247 19-04-2005 00:00:00 9.63167 C 88.5667 % 7.84 C
248 20-04-2005 00:00:00 9.0325 C 79.3083 % 5.65 C
249 21-04-2005 00:00:00 8.66134 C 54.7479 % 0.08 C
250 22-04-2005 00:00:00 10.07 C 49.4583 % -0.01 C
Sensor: Nr:Datum:Temp:Feuchte:Taupunkt:
Aussen-T/F 251 23-04-2005 00:00:00 10.6975 C 61.0833 % 3.51 C
252 24-04-2005 00:00:00 14.47 C 71.4417 % 9.37 C
253 25-04-2005 00:00:00 13.27583 C 85.5000 % 10.9 C
254 26-04-2005 00:00:00 13.5575 C 70.0000 % 8.2 C
255 27-04-2005 00:00:00 13.41667 C 63.3500 % 6.6 C
256 28-04-2005 00:00:00 13.73417 C 57.6750 % 5.55 C
257 29-04-2005 00:00:00 16.11 C 71.3333 % 10.92 C
258 30-04-2005 00:00:00 20.35917 C 61.9500 % 12.83 C
259 01-05-2005 00:00:00 21.73417 C 55.5833 % 12.46 C
260 02-05-2005 00:00:00 20.5605 C 54.6555 % 11.12 C
261 03-05-2005 00:00:00 17.2475 C 66.8500 % 11.04 C
262 04-05-2005 00:00:00 12.76667 C 84.8250 % 10.28 C
263 05-05-2005 00:00:00 12.50167 C 61.8167 % 5.39 C
264 06-05-2005 00:00:00 11.26583 C 62.7917 % 4.44 C
265 07-05-2005 00:00:00 8.97167 C 75.9833 % 4.97 C
266 08-05-2005 00:00:00 7.88333 C 73.4417 % 3.44 C
267 09-05-2005 00:00:00 8.5025 C 68.2583 % 3 C
268 10-05-2005 00:00:00 9.0275 C 61.5500 % 2.05 C
269 11-05-2005 00:00:00 10.67 C 57.1500 % 2.55 C
270 12-05-2005 00:00:00 12.34917 C 54.1333 % 3.35 C
271 13-05-2005 00:00:00 13.33583 C 48.9417 % 2.84 C
272 14-05-2005 00:00:00 11.34917 C 86.9917 % 9.26 C
273 15-05-2005 00:00:00 10.61176 C 72.2689 % 5.83 C
274 16-05-2005 00:00:00 12.49 C 67.3167 % 6.61 C
275 17-05-2005 00:00:00 10.19 C 68.1000 % 4.58 C
Sensor: Nr:Datum:Temp:Feuchte:Taupunkt:
Aussen-T/F 276 18-05-2005 00:00:00 9.50333 C 59.0833 % 1.92 C
277 19-05-2005 00:00:00 13.98667 C 50.5750 % 3.9 C
278 20-05-2005 00:00:00 18.82 C 48.6167 % 7.77 C
279 21-05-2005 00:00:00 17.09333 C 72.4083 % 12.1 C
280 22-05-2005 00:00:00 16.69167 C 69.7500 % 11.14 C
281 23-05-2005 00:00:00 15.47 C 66.7750 % 9.33 C
282 24-05-2005 00:00:00 15.2125 C 57.4750 % 6.88 C
283 25-05-2005 00:00:00 20.55083 C 50.8167 % 10.02 C
284 26-05-2005 00:00:00 23.19417 C 50.7500 % 12.43 C
285 27-05-2005 00:00:00 25.4563 C 47.6723 % 13.54 C
286 28-05-2005 00:00:00 25.91333 C 48.8500 % 14.33 C
287 29-05-2005 00:00:00 24.1375 C 45.5333 % 11.64 C
288 30-05-2005 00:00:00 14.91167 C 80.5667 % 11.6 C
289 31-05-2005 00:00:00 14.53333 C 57.9500 % 6.36 C
290 01-06-2005 00:00:00 15.82667 C 53.3167 % 6.36 C
291 02-06-2005 00:00:00 18.09167 C 53.5583 % 8.53 C
292 03-06-2005 00:00:00 20.99667 C 58.9583 % 12.67 C
293 04-06-2005 00:00:00 16.485 C 61.0250 % 8.95 C
294 05-06-2005 00:00:00 14.8025 C 61.1167 % 7.39 C
295 06-06-2005 00:00:00 15.25917 C 59.7750 % 7.5 C
296 07-06-2005 00:00:00 12.26 C 46.3583 % 1.1 C
297 08-06-2005 00:00:00 13.41429 C 53.6723 % 4.22 C
298 09-06-2005 00:00:00 15.84167 C 49.5917 % 5.33 C
299 10-06-2005 00:00:00 16.15833 C 51.7500 % 6.24 C
300 11-06-2005 00:00:00 14.58 C 49.1583 % 4.05 C
Sensor: Nr:Datum:Temp:Feuchte:Taupunkt:
Aussen-T/F 301 12-06-2005 00:00:00 14.0525 C 51.8333 % 4.31 C
302 13-06-2005 00:00:00 17.27833 C 44.7333 % 5.16 C
303 14-06-2005 00:00:00 16.55583 C 60.6500 % 8.93 C
304 15-06-2005 00:00:00 20.05167 C 58.3500 % 11.63 C
305 16-06-2005 00:00:00 21.46833 C 48.2167 % 10.07 C
306 17-06-2005 00:00:00 21.405 C 64.8917 % 14.53 C
307 18-06-2005 00:00:00 25.12583 C 46.0750 % 12.72 C
308 19-06-2005 00:00:00 24.75417 C 36.1083 % 8.73 C
309 20-06-2005 00:00:00 25.94538 C 41.2857 % 11.79 C
310 21-06-2005 00:00:00 26.24583 C 44.1417 % 13.08 C
311 22-06-2005 00:00:00 24.59333 C 41.9833 % 10.83 C
312 23-06-2005 00:00:00 25.40417 C 42.0500 % 11.58 C
313 24-06-2005 00:00:00 27.67167 C 39.7417 % 12.75 C
314 25-06-2005 00:00:00 24.93083 C 53.8750 % 14.95 C
315 26-06-2005 00:00:00 23.99833 C 53.9000 % 14.09 C
316 27-06-2005 00:00:00 25.26083 C 46.1167 % 12.86 C
317 28-06-2005 00:00:00 26.35917 C 40.1000 % 11.72 C
318 29-06-2005 00:00:00 23.065 C 62.9083 % 15.62 C
319 30-06-2005 00:00:00 20.43667 C 70.3917 % 14.87 C
320 01-07-2005 00:00:00 18.08083 C 71.9750 % 12.95 C
321 02-07-2005 00:00:00 19.26807 C 74.1765 % 14.56 C
322 03-07-2005 00:00:00 24.03333 C 60.5250 % 15.93 C
323 04-07-2005 00:00:00 21.58833 C 60.0917 % 13.52 C
324 05-07-2005 00:00:00 17.17083 C 49.4250 % 6.5 C
325 06-07-2005 00:00:00 16.24167 C 66.5750 % 10.02 C
Sensor: Nr:Datum:Temp:Feuchte:Taupunkt:
Aussen-T/F 326 07-07-2005 00:00:00 14.92 C 74.1750 % 10.37 C
327 08-07-2005 00:00:00 16.17583 C 68.9333 % 10.47 C
328 09-07-2005 00:00:00 19.5375 C 58.5083 % 11.19 C
329 10-07-2005 00:00:00 22.93917 C 52.6583 % 12.75 C
330 11-07-2005 00:00:00 23.77333 C 50.4500 % 12.87 C
331 12-07-2005 00:00:00 23.70667 C 55.3750 % 14.24 C
332 13-07-2005 00:00:00 25.555 C 48.8500 % 14.01 C
333 14-07-2005 00:00:00 25.76723 C 51.5462 % 15.03 C
334 15-07-2005 00:00:00 25.0575 C 51.5417 % 14.38 C
335 16-07-2005 00:00:00 23.73917 C 53.4583 % 13.73 C
336 17-07-2005 00:00:00 23.48167 C 44.8750 % 10.83 C
337 18-07-2005 00:00:00 22.98917 C 50.5583 % 12.18 C
338 19-07-2005 00:00:00 19.165 C 61.4250 % 11.57 C
339 20-07-2005 00:00:00 17.92333 C 58.8667 % 9.77 C
340 21-07-2005 00:00:00 16.6875 C 58.3833 % 8.49 C
341 22-07-2005 00:00:00 17.13833 C 59.9250 % 9.3 C
342 23-07-2005 00:00:00 17.69 C 50.6583 % 7.34 C
343 24-07-2005 00:00:00 17.87167 C 73.8250 % 13.14 C
344 25-07-2005 00:00:00 20.895 C 64.5167 % 13.96 C
345 26-07-2005 00:00:00 20.33361 C 61.0000 % 12.57 C
346 27-07-2005 00:00:00 23.76 C 61.3083 % 15.87 C
347 28-07-2005 00:00:00 25.00583 C 63.7250 % 17.65 C
348 29-07-2005 00:00:00 23.18917 C 66.9750 % 16.72 C
349 30-07-2005 00:00:00 20.03083 C 65.7167 % 13.42 C
350 31-07-2005 00:00:00 17.3425 C 72.6917 % 12.39 C
Sensor: Nr:Datum:Temp:Feuchte:Taupunkt:
Aussen-T/F 351 01-08-2005 00:00:00 19.36167 C 66.0333 % 12.86 C
352 02-08-2005 00:00:00 19.71 C 53.9167 % 10.12 C
353 03-08-2005 00:00:00 18.86917 C 55.2500 % 9.71 C
354 04-08-2005 00:00:00 17.4025 C 58.4917 % 9.19 C
355 05-08-2005 00:00:00 16.13083 C 71.8250 % 11.05 C
356 06-08-2005 00:00:00 16.02 C 66.0083 % 9.68 C
357 07-08-2005 00:00:00 13.69412 C 68.4706 % 8 C
358 08-08-2005 00:00:00 14.66667 C 70.6500 % 9.4 C
359 09-08-2005 00:00:00 16.6775 C 60.2583 % 8.95 C
360 10-08-2005 00:00:00 16.66083 C 52.9333 % 7.03 C
361 11-08-2005 00:00:00 17.4125 C 63.9500 % 10.53 C
362 12-08-2005 00:00:00 18.20917 C 72.7750 % 13.24 C
363 13-08-2005 00:00:00 18.01833 C 57.5000 % 9.51 C
364 14-08-2005 00:00:00 15.59833 C 79.0417 % 11.98 C
365 15-08-2005 00:00:00 14.56583 C 88.2417 % 12.64 C
366 16-08-2005 00:00:00 19.1575 C 67.6917 % 13.04 C
367 17-08-2005 00:00:00 20.12333 C 61.6083 % 12.52 C
368 18-08-2005 00:00:00 22.1825 C 58.2167 % 13.59 C
369 19-08-2005 00:00:00 21.06975 C 68.0588 % 14.95 C
370 20-08-2005 00:00:00 19.5825 C 63.5417 % 12.48 C
371 21-08-2005 00:00:00 17.13083 C 77.8500 % 13.24 C
372 22-08-2005 00:00:00 18.24 C 75.6917 % 13.88 C
373 23-08-2005 00:00:00 19.4425 C 68.1167 % 13.41 C
374 24-08-2005 00:00:00 18.79417 C 64.0500 % 11.86 C
375 25-08-2005 00:00:00 16.47333 C 71.7333 % 11.36 C
Sensor: Nr:Datum:Temp:Feuchte:Taupunkt:
Aussen-T/F 376 26-08-2005 00:00:00 15.255 C 66.1000 % 8.97 C
377 27-08-2005 00:00:00 16.45083 C 64.5083 % 9.74 C
378 28-08-2005 00:00:00 17.84083 C 61.5000 % 10.35 C
379 29-08-2005 00:00:00 19.6675 C 59.4833 % 11.56 C
380 30-08-2005 00:00:00 21.65667 C 57.4083 % 12.88 C
381 31-08-2005 00:00:00 23.08403 C 55.8655 % 13.8 C
382 01-09-2005 00:00:00 22.76917 C 59.9583 % 14.59 C
383 02-09-2005 00:00:00 21.29917 C 64.1240 % 14.25 C
384 03-09-2005 00:00:00 22.07899 C 57.4622 % 13.29 C
385 04-09-2005 00:00:00 21.90417 C 55.0083 % 12.46 C
386 05-09-2005 00:00:00 21.3675 C 50.7250 % 10.74 C
387 06-09-2005 00:00:00 20.89417 C 58.8167 % 12.54 C
388 07-09-2005 00:00:00 22.66167 C 56.7417 % 13.64 C
389 08-09-2005 00:00:00 23.19833 C 58.3917 % 14.58 C
390 09-09-2005 00:00:00 21.58833 C 66.9583 % 15.19 C
391 10-09-2005 00:00:00 21.80833 C 66.0417 % 15.19 C
392 11-09-2005 00:00:00 18.13 C 89.9083 % 16.45 C
393 12-09-2005 00:00:00 16.6975 C 91.7750 % 15.35 C
394 13-09-2005 00:00:00 17.45833 C 71.4333 % 12.24 C
395 14-09-2005 00:00:00 16.755 C 70.2083 % 11.3 C
396 15-09-2005 00:00:00 20.13361 C 65.1765 % 13.39 C
397 16-09-2005 00:00:00 15.17311 C 74.6975 % 10.72 C
398 17-09-2005 00:00:00 11.81667 C 63.3083 % 5.08 C
399 18-09-2005 00:00:00 11.7875 C 64.8917 % 5.41 C
400 19-09-2005 00:00:00 12.0719 C 62.3967 % 5.11 C
Sensor: Nr:Datum:Temp:Feuchte:Taupunkt:
Aussen-T/F 401 20-09-2005 00:00:00 12.19583 C 66.2750 % 6.1 C
402 21-09-2005 00:00:00 13.40667 C 65.8333 % 7.15 C
403 22-09-2005 00:00:00 13.94833 C 67.3750 % 8.01 C
404 23-09-2005 00:00:00 14.84667 C 68.8083 % 9.18 C
405 24-09-2005 00:00:00 15.92583 C 70.7250 % 10.62 C
406 25-09-2005 00:00:00 17.7325 C 69.2917 % 12.04 C
407 26-09-2005 00:00:00 16.44083 C 67.6000 % 10.43 C
408 27-09-2005 00:00:00 17.605 C 57.1571 % 9.03 C
409 28-09-2005 00:00:00 15.42917 C 67.5417 % 9.46 C
410 29-09-2005 00:00:00 12.91254 C 70.3659 % 7.66 C
411 30-09-2005 00:00:00 12.29549 C 64.7639 % 5.86 C
412 01-10-2005 00:00:00 12.61701 C 87.6771 % 10.63 C
413 02-10-2005 00:00:00 10.70833 C 86.1250 % 8.49 C
414 03-10-2005 00:00:00 11.3875 C 83.3819 % 8.67 C
415 04-10-2005 00:00:00 14.26864 C 74.5958 % 9.82 C
416 05-10-2005 00:00:00 16.7441 C 72.6597 % 11.81 C
417 06-10-2005 00:00:00 16.68194 C 72.2708 % 11.67 C
418 07-10-2005 00:00:00 14.36563 C 76.8229 % 10.36 C
419 08-10-2005 00:00:00 13.06285 C 81.6875 % 10.01 C
420 09-10-2005 00:00:00 14.51049 C 78.2972 % 10.78 C
421 10-10-2005 00:00:00 15.84132 C 72.8993 % 10.99 C
422 11-10-2005 00:00:00 13.49444 C 78.7674 % 9.88 C
423 12-10-2005 00:00:00 13.54549 C 77.6875 % 9.73 C
424 13-10-2005 00:00:00 12.36181 C 78.1493 % 8.67 C
425 14-10-2005 00:00:00 11.9951 C 78.1469 % 8.31 C
Sensor: Nr:Datum:Temp:Feuchte:Taupunkt:
Aussen-T/F 426 15-10-2005 00:00:00 11.45174 C 79.6771 % 8.07 C
427 16-10-2005 00:00:00 10.83472 C 74.6632 % 6.52 C
428 17-10-2005 00:00:00 8.28194 C 67.9167 % 2.72 C
429 18-10-2005 00:00:00 8.65749 C 62.2822 % 1.86 C
430 19-10-2005 00:00:00 7.00417 C 82.2535 % 4.19 C
431 20-10-2005 00:00:00 11.25382 C 89.2708 % 9.55 C
432 21-10-2005 00:00:00 14.43681 C 83.5174 % 11.68 C
433 22-10-2005 00:00:00 15.54896 C 76.8021 % 11.5 C
434 23-10-2005 00:00:00 14.24321 C 74.8014 % 9.84 C
435 24-10-2005 00:00:00 12.10545 C 78.5000 % 8.48 C
436 25-10-2005 00:00:00 15.69143 C 65.7286 % 9.3 C
437 26-10-2005 00:00:00 16.07417 C 70.0667 % 10.62 C
438 27-10-2005 00:00:00 14.98583 C 78.1250 % 11.21 C
439 28-10-2005 00:00:00 16.07721 C 72.5221 % 11.14 C
440 29-10-2005 00:00:00 13.94583 C 75.9653 % 9.78 C
441 30-10-2005 00:00:00 12.71467 C 78.3867 % 9.05 C
442 31-10-2005 00:00:00 13.11667 C 71.0764 % 8 C
443 01-11-2005 00:00:00 12.41319 C 78.1181 % 8.71 C
444 02-11-2005 00:00:00 10.43819 C 87.5278 % 8.46 C
445 03-11-2005 00:00:00 14.78403 C 78.9306 % 11.17 C
446 04-11-2005 00:00:00 13.39444 C 85.8750 % 11.08 C
447 05-11-2005 00:00:00 8.99792 C 79.7361 % 5.69 C
448 06-11-2005 00:00:00 9.96224 C 78.1189 % 6.33 C
449 07-11-2005 00:00:00 8.03611 C 86.5347 % 5.93 C
450 08-11-2005 00:00:00 10.35903 C 77.0208 % 6.51 C
Sensor: Nr:Datum:Temp:Feuchte:Taupunkt:
Aussen-T/F 451 09-11-2005 00:00:00 7.83194 C 86.7222 % 5.76 C
452 10-11-2005 00:00:00 9.97639 C 76.8889 % 6.12 C
453 11-11-2005 00:00:00 9.26736 C 82.5208 % 6.45 C
454 12-11-2005 00:00:00 7.83611 C 73.2778 % 3.36 C
455 13-11-2005 00:00:00 9.98542 C 79.1181 % 6.54 C
456 14-11-2005 00:00:00 7.76458 C 80.0625 % 4.55 C
457 15-11-2005 00:00:00 6.09931 C 81.0417 % 3.1 C
458 16-11-2005 00:00:00 5.71806 C 81.8125 % 2.86 C
459 17-11-2005 00:00:00 4.69231 C 73.1049 % 0.3 C
460 18-11-2005 00:00:00 3.75903 C 75.9583 % -0.08 C
461 19-11-2005 00:00:00 1.67431 C 81.9583 % -1.07 C
462 20-11-2005 00:00:00 1.75625 C 85.0069 % -0.49 C
463 21-11-2005 00:00:00 4.09236 C 87.1319 % 2.15 C
464 22-11-2005 00:00:00 -0.87778 C 86.8194 % -2.79 C
465 23-11-2005 00:00:00 0.84861 C 80.0347 % -2.19 C
466 24-11-2005 00:00:00 2.37778 C 81.2431 % -0.5 C
467 25-11-2005 00:00:00 1.54167 C 66.6111 % -3.98 C
468 26-11-2005 00:00:00 2.46111 C 57.2569 % -5.11 C
469 27-11-2005 00:00:00 2.30979 C 77.3497 % -1.24 C
470 28-11-2005 00:00:00 1.92847 C 86.3819 % -0.1 C
471 29-11-2005 00:00:00 2.30694 C 78.1597 % -1.1 C
472 30-11-2005 00:00:00 2.00069 C 72.1736 % -2.47 C
473 01-12-2005 00:00:00 0.41875 C 70.7847 % -4.25 C
474 02-12-2005 00:00:00 0.22153 C 68.6319 % -4.85 C
475 03-12-2005 00:00:00 3.82708 C 79.6736 % 0.65 C
Sensor: Nr:Datum:Temp:Feuchte:Taupunkt:
Aussen-T/F 476 04-12-2005 00:00:00 7.05417 C 86.6528 % 4.98 C
477 05-12-2005 00:00:00 6.35208 C 77.8194 % 2.77 C
478 06-12-2005 00:00:00 4.99583 C 75.7986 % 1.09 C
479 07-12-2005 00:00:00 4.93706 C 82.1049 % 2.15 C
480 08-12-2005 00:00:00 4.74653 C 77.5625 % 1.17 C
481 09-12-2005 00:00:00 3.66458 C 81.8681 % 0.86 C
482 10-12-2005 00:00:00 -0.92292 C 83.1944 % -3.41 C
483 11-12-2005 00:00:00 -2.30069 C 83.9444 % -4.64 C
484 12-12-2005 00:00:00 1.72847 C 87.2986 % -0.15 C
485 13-12-2005 00:00:00 1.28472 C 92.7847 % 0.25 C
486 14-12-2005 00:00:00 3.84028 C 91.8333 % 2.64 C
487 15-12-2005 00:00:00 5.59167 C 78.3056 % 2.12 C
488 16-12-2005 00:00:00 6.09861 C 72.6806 % 1.57 C
489 17-12-2005 00:00:00 1.45035 C 70.9371 % -3.23 C
490 18-12-2005 00:00:00 1.59861 C 73.3194 % -2.65 C
491 19-12-2005 00:00:00 1.45417 C 78.4097 % -1.88 C
492 20-12-2005 00:00:00 2.75347 C 79.2917 % -0.47 C
493 21-12-2005 00:00:00 2.23194 C 76.9375 % -1.38 C
494 22-12-2005 00:00:00 2.96875 C 85.4097 % 0.77 C
495 23-12-2005 00:00:00 4.89653 C 82.7917 % 2.22 C
496 24-12-2005 00:00:00 5.93264 C 77.0069 % 2.22 C
497 25-12-2005 00:00:00 4.13958 C 81.0000 % 1.18 C
498 26-12-2005 00:00:00 1.48403 C 78.4444 % -1.85 C
499 27-12-2005 00:00:00 -1.47413 C 77.3566 % -4.91 C
500 28-12-2005 00:00:00 -1.48681 C 77.2708 % -4.94 C
Sensor: Nr:Datum:Temp:Feuchte:Taupunkt:
Aussen-T/F 501 29-12-2005 00:00:00 -2.85486 C 75.2569 % -6.61 C
502 30-12-2005 00:00:00 -3.14514 C 71.5139 % -7.55 C
503 31-12-2005 00:00:00 2.82361 C 83.9167 % 0.38 C
504 01-01-2006 00:00:00 3.86319 C 80.7986 % 0.87 C
505 02-01-2006 00:00:00 3.13125 C 82.2292 % 0.4 C
506 03-01-2006 00:00:00 2.31597 C 78.1181 % -1.09 C
507 04-01-2006 00:00:00 0.29583 C 75.4722 % -3.52 C
508 05-01-2006 00:00:00 1.24306 C 69.3125 % -3.74 C
509 06-01-2006 00:00:00 -0.25035 C 84.0909 % -2.61 C
510 07-01-2006 00:00:00 2.66181 C 76.3472 % -1.07 C
511 08-01-2006 00:00:00 2.09653 C 69.7292 % -2.84 C
512 09-01-2006 00:00:00 -2.41736 C 79.9028 % -5.4 C
513 10-01-2006 00:00:00 -1.51736 C 74.5139 % -5.45 C
514 11-01-2006 00:00:00 -1.95903 C 83.9931 % -4.3 C
515 12-01-2006 00:00:00 1.79583 C 91.4167 % 0.55 C
516 13-01-2006 00:00:00 0.35972 C 77.1736 % -3.16 C
517 14-01-2006 00:00:00 -3.27639 C 81.0486 % -6.06 C
518 15-01-2006 00:00:00 -4.27153 C 71.5972 % -8.62 C
519 16-01-2006 00:00:00 -4.78951 C 74.9231 % -8.54 C
520 17-01-2006 00:00:00 1.90278 C 82.2778 % -0.79 C
521 18-01-2006 00:00:00 3.8125 C 80.9097 % 0.84 C
522 19-01-2006 00:00:00 1.43403 C 88.2847 % -0.29 C
523 20-01-2006 00:00:00 6.2375 C 81.4514 % 3.3 C
524 21-01-2006 00:00:00 4.58889 C 79.2153 % 1.31 C
525 22-01-2006 00:00:00 1.08125 C 75.4792 % -2.76 C
Sensor: Nr:Datum:Temp:Feuchte:Taupunkt:
Aussen-T/F 526 23-01-2006 00:00:00 -5.20417 C 57.7500 % -12.22 C
527 24-01-2006 00:00:00 -5.83542 C 60.0278 % -12.33 C
528 25-01-2006 00:00:00 -3.80833 C 70.4028 % -8.39 C
529 26-01-2006 00:00:00 -2.11818 C 75.5804 % -5.84 C
530 27-01-2006 00:00:00 -5.44236 C 67.7083 % -10.46 C
531 28-01-2006 00:00:00 -6.67986 C 73.7917 % -10.57 C
532 29-01-2006 00:00:00 -6.29792 C 75.7847 % -9.86 C
533 30-01-2006 00:00:00 -5.95139 C 76.4583 % -9.41 C
534 31-01-2006 00:00:00 -3.30486 C 81.0486 % -6.08 C
535 01-02-2006 00:00:00 -5.48333 C 76.7708 % -8.91 C
536 02-02-2006 00:00:00 -6.16667 C 77.1875 % -9.5 C
537 03-02-2006 00:00:00 -3.79931 C 73.2639 % -7.87 C
538 04-02-2006 00:00:00 -0.85208 C 79.0833 % -4.01 C
539 05-02-2006 00:00:00 -0.32867 C 80.5385 % -3.26 C
540 06-02-2006 00:00:00 1.50903 C 87.5069 % -0.33 C
541 07-02-2006 00:00:00 3.74861 C 78.2778 % 0.33 C
542 08-02-2006 00:00:00 3.70208 C 79.3681 % 0.47 C
543 09-02-2006 00:00:00 2.29722 C 71.0347 % -2.4 C
544 10-02-2006 00:00:00 2.10979 C 75.6573 % -1.73 C
545 11-02-2006 00:00:00 1.21458 C 76.3333 % -2.48 C
546 12-02-2006 00:00:00 1.60694 C 59.3264 % -5.45 C
547 13-02-2006 00:00:00 2.60764 C 51.3056 % -6.41 C
548 14-02-2006 00:00:00 4.21597 C 65.9931 % -1.56 C
549 15-02-2006 00:00:00 6.17832 C 78.6503 % 2.75 C
550 16-02-2006 00:00:00 7.31736 C 78.7361 % 3.88 C
Sensor: Nr:Datum:Temp:Feuchte:Taupunkt:
Aussen-T/F 551 17-02-2006 00:00:00 6.0625 C 69.8264 % 0.98 C
552 18-02-2006 00:00:00 5.81389 C 71.1806 % 1.01 C
553 19-02-2006 00:00:00 7.08472 C 63.6875 % 0.68 C
554 20-02-2006 00:00:00 4.17917 C 82.0833 % 1.4 C
555 21-02-2006 00:00:00 3.04444 C 85.2778 % 0.82 C
556 22-02-2006 00:00:00 2.47639 C 63.4306 % -3.74 C
557 23-02-2006 00:00:00 1.36736 C 51.0972 % -7.61 C
558 24-02-2006 00:00:00 2.05972 C 51.5556 % -6.86 C
559 25-02-2006 00:00:00 0.46364 C 49.9441 % -8.74 C
560 26-02-2006 00:00:00 -1.08472 C 54.7569 % -9.02 C
561 27-02-2006 00:00:00 -1.57569 C 73.5556 % -5.67 C
562 28-02-2006 00:00:00 1.56806 C 74.7222 % -2.42 C
563 01-03-2006 00:00:00 0.10556 C 62.5347 % -6.18 C
564 02-03-2006 00:00:00 -0.25347 C 58.0208 % -7.5 C
565 03-03-2006 00:00:00 -0.44722 C 76.3542 % -4.09 C
566 04-03-2006 00:00:00 -0.87361 C 76.9583 % -4.4 C
567 05-03-2006 00:00:00 -1.41944 C 71.3958 % -5.91 C
568 06-03-2006 00:00:00 1.2125 C 63.4028 % -4.95 C
569 07-03-2006 00:00:00 2.11748 C 58.0559 % -5.25 C
570 08-03-2006 00:00:00 0.99722 C 76.8681 % -2.59 C
571 09-03-2006 00:00:00 8.02431 C 80.0278 % 4.8 C
572 10-03-2006 00:00:00 5.79931 C 65.2292 % -0.21 C
573 11-03-2006 00:00:00 1.7 C 78.7431 % -1.59 C
574 12-03-2006 00:00:00 -2.45556 C 48.6389 % -11.79 C
575 13-03-2006 00:00:00 -1.82553 C 48.5319 % -11.23 C
Sensor: Nr:Datum:Temp:Feuchte:Taupunkt:
Aussen-T/F 576 14-03-2006 00:00:00 -0.25972 C 49.0556 % -9.65 C
577 15-03-2006 00:00:00 1.33333 C 52.9028 % -7.2 C
578 16-03-2006 00:00:00 2.07292 C 47.3819 % -7.93 C
579 17-03-2006 00:00:00 2.75175 C 55.5804 % -5.23 C
580 18-03-2006 00:00:00 3.75069 C 54.9097 % -4.46 C
581 19-03-2006 00:00:00 4.88056 C 58.3125 % -2.6 C
582 20-03-2006 00:00:00 4.13542 C 67.3194 % -1.37 C
583 21-03-2006 00:00:00 3.42222 C 81.9583 % 0.64 C
584 22-03-2006 00:00:00 4.52708 C 53.6250 % -4.05 C
585 23-03-2006 00:00:00 4.85694 C 42.2431 % -6.88 C
586 24-03-2006 00:00:00 5.28125 C 72.6944 % 0.79 C
587 25-03-2006 00:00:00 12.04861 C 73.4722 % 7.46 C
588 26-03-2006 00:00:00 15.02826 C 70.6014 % 9.73 C
589 27-03-2006 00:00:00 14.96319 C 65.9653 % 8.66 C
590 28-03-2006 00:00:00 11.67273 C 58.3427 % 3.78 C
591 29-03-2006 00:00:00 9.22222 C 64.5972 % 2.91 C
592 30-03-2006 00:00:00 11.31181 C 74.3958 % 6.93 C
593 31-03-2006 00:00:00 12.225 C 72.0278 % 7.34 C
594 01-04-2006 00:00:00 10.95 C 73.5000 % 6.4 C
595 02-04-2006 00:00:00 10.30347 C 70.0139 % 5.08 C
596 03-04-2006 00:00:00 9.04444 C 59.5694 % 1.6 C
597 04-04-2006 00:00:00 7.89306 C 52.4444 % -1.22 C
598 05-04-2006 00:00:00 5.38542 C 52.9722 % -3.42 C
599 06-04-2006 00:00:00 5.62847 C 53.2986 % -3.11 C
600 07-04-2006 00:00:00 7.78112 C 45.3077 % -3.3 C
Sensor: Nr:Datum:Temp:Feuchte:Taupunkt:
Aussen-T/F 601 08-04-2006 00:00:00 8.88681 C 43.5556 % -2.82 C
602 09-04-2006 00:00:00 9.54931 C 44.2083 % -2.02 C
603 10-04-2006 00:00:00 7.99444 C 45.0903 % -3.17 C
604 11-04-2006 00:00:00 6.56528 C 48.5486 % -3.49 C
605 12-04-2006 00:00:00 7.39167 C 68.7431 % 2.04 C
606 13-04-2006 00:00:00 7.97014 C 70.1458 % 2.87 C
607 14-04-2006 00:00:00 11.28681 C 69.8889 % 6 C
608 15-04-2006 00:00:00 12.20486 C 68.7569 % 6.64 C
609 16-04-2006 00:00:00 12.37986 C 67.1319 % 6.46 C
610 17-04-2006 00:00:00 11.4 C 73.4483 % 6.83 C
611 18-04-2006 00:00:00 10.37986 C 64.7431 % 4.04 C
612 19-04-2006 00:00:00 11.18264 C 53.6181 % 2.13 C
613 20-04-2006 00:00:00 12.16528 C 53.8681 % 3.11 C
614 21-04-2006 00:00:00 14.47622 C 51.1818 % 4.52 C
615 22-04-2006 00:00:00 13.62014 C 59.7708 % 5.95 C
616 23-04-2006 00:00:00 10.87639 C 60.5208 % 3.55 C
617 24-04-2006 00:00:00 15.40833 C 49.6806 % 4.96 C
618 25-04-2006 00:00:00 17.60972 C 48.4097 % 6.6 C
619 26-04-2006 00:00:00 15.22778 C 77.2014 % 11.26 C
620 27-04-2006 00:00:00 12.53611 C 77.8889 % 8.79 C
621 28-04-2006 00:00:00 10.85 C 57.9861 % 2.92 C
622 29-04-2006 00:00:00 7.53194 C 57.0208 % -0.42 C
623 30-04-2006 00:00:00 6.51389 C 73.2361 % 2.08 C
624 01-05-2006 00:00:00 8.32727 C 78.6224 % 4.84 C
625 02-05-2006 00:00:00 15.08819 C 58.3333 % 6.98 C
Sensor: Nr:Datum:Temp:Feuchte:Taupunkt:
Aussen-T/F 626 03-05-2006 00:00:00 18.44931 C 51.7500 % 8.35 C
627 04-05-2006 00:00:00 19.40278 C 48.7500 % 8.35 C
628 05-05-2006 00:00:00 20.21389 C 40.2639 % 6.29 C
629 06-05-2006 00:00:00 18.90069 C 40.1528 % 5.07 C
630 07-05-2006 00:00:00 19.45486 C 32.7431 % 2.67 C
631 08-05-2006 00:00:00 18.61667 C 38.7639 % 4.32 C
632 09-05-2006 00:00:00 18.27431 C 43.1111 % 5.53 C
633 10-05-2006 00:00:00 18.83194 C 52.4583 % 8.9 C
634 11-05-2006 00:00:00 19.10629 C 41.6573 % 5.79 C
635 12-05-2006 00:00:00 18.74583 C 41.6250 % 5.45 C
636 13-05-2006 00:00:00 16.36944 C 68.5000 % 10.56 C
637 14-05-2006 00:00:00 15.00278 C 67.3889 % 9.02 C
638 15-05-2006 00:00:00 16.62986 C 62.0417 % 9.33 C
639 16-05-2006 00:00:00 19.50347 C 57.7083 % 10.95 C
640 17-05-2006 00:00:00 17.91736 C 63.6319 % 10.93 C
641 18-05-2006 00:00:00 18.00347 C 66.8125 % 11.75 C
642 19-05-2006 00:00:00 14.40347 C 67.9306 % 8.56 C
643 20-05-2006 00:00:00 12.56853 C 70.9510 % 7.45 C
644 21-05-2006 00:00:00 15.07431 C 59.1181 % 7.16 C
645 22-05-2006 00:00:00 15.73472 C 66.6875 % 9.56 C
646 23-05-2006 00:00:00 12.35556 C 61.3403 % 5.14 C
647 24-05-2006 00:00:00 10.91667 C 67.0833 % 5.06 C
648 25-05-2006 00:00:00 11.81736 C 78.7292 % 8.25 C
649 26-05-2006 00:00:00 13.58681 C 86.6736 % 11.41 C
650 27-05-2006 00:00:00 16.75972 C 76.8194 % 12.67 C
Sensor: Nr:Datum:Temp:Feuchte:Taupunkt:
Aussen-T/F 651 28-05-2006 00:00:00 16.35 C 61.0833 % 8.84 C
652 29-05-2006 00:00:00 12.47431 C 65.2222 % 6.13 C
653 30-05-2006 00:00:00 9.24792 C 72.9167 % 4.65 C
654 31-05-2006 00:00:00 9.13776 C 73.2378 % 4.61 C
655 01-06-2006 00:00:00 9.43819 C 72.6111 % 4.77 C
656 02-06-2006 00:00:00 13.68056 C 57.9028 % 5.55 C
657 03-06-2006 00:00:00 13.95278 C 62.5972 % 6.94 C
658 04-06-2006 00:00:00 14.34514 C 56.2153 % 5.75 C
659 05-06-2006 00:00:00 14.45764 C 48.9236 % 3.87 C
660 06-06-2006 00:00:00 14.33472 C 52.1736 % 4.67 C
661 07-06-2006 00:00:00 16.37431 C 50.4375 % 6.06 C
662 08-06-2006 00:00:00 19.21736 C 47.1528 % 7.69 C
663 09-06-2006 00:00:00 21.24306 C 44.0486 % 8.53 C
664 10-06-2006 00:00:00 22.62098 C 44.0909 % 9.79 C
665 11-06-2006 00:00:00 23.39653 C 41.6181 % 9.63 C
666 12-06-2006 00:00:00 23.62431 C 39.0417 % 8.88 C
667 13-06-2006 00:00:00 25.05625 C 41.5694 % 11.1 C
668 14-06-2006 00:00:00 25.71667 C 45.2500 % 12.98 C
669 15-06-2006 00:00:00 22.39653 C 65.5625 % 15.63 C
670 16-06-2006 00:00:00 19.19792 C 55.7847 % 10.16 C
671 17-06-2006 00:00:00 19.55139 C 51.1806 % 9.2 C
672 18-06-2006 00:00:00 22.94931 C 53.8958 % 13.12 C
673 19-06-2006 00:00:00 22.18819 C 69.5069 % 16.35 C
674 20-06-2006 00:00:00 22.95524 C 61.4545 % 15.15 C
675 21-06-2006 00:00:00 22.61597 C 50.7083 % 11.88 C
Sensor: Nr:Datum:Temp:Feuchte:Taupunkt:
Aussen-T/F 676 22-06-2006 00:00:00 18.87222 C 48.0069 % 7.64 C
677 23-06-2006 00:00:00 18.88681 C 46.7847 % 7.27 C
678 24-06-2006 00:00:00 22.39792 C 44.8889 % 9.85 C
679 25-06-2006 00:00:00 23.4375 C 59.6806 % 15.15 C
680 26-06-2006 00:00:00 21.99097 C 62.9306 % 14.61 C
681 27-06-2006 00:00:00 19.64028 C 68.8958 % 13.78 C
682 28-06-2006 00:00:00 21.16111 C 56.4931 % 12.18 C
683 29-06-2006 00:00:00 21.06319 C 61.7639 % 13.45 C
684 30-06-2006 00:00:00 23.44545 C 54.3636 % 13.71 C
685 01-07-2006 00:00:00 24.6875 C 45.1667 % 12.02 C
686 02-07-2006 00:00:00 25.27986 C 40.4722 % 10.89 C
687 03-07-2006 00:00:00 25.22083 C 37.2431 % 9.6 C
688 04-07-2006 00:00:00 26.70278 C 40.3472 % 12.12 C
689 05-07-2006 00:00:00 26.28681 C 50.0000 % 15.04 C
690 06-07-2006 00:00:00 24.85278 C 53.4514 % 14.75 C
691 07-07-2006 00:00:00 22.81528 C 60.5972 % 14.8 C
692 08-07-2006 00:00:00 22.68958 C 64.4375 % 15.64 C
693 09-07-2006 00:00:00 23.57778 C 54.2222 % 13.79 C
694 10-07-2006 00:00:00 25.03147 C 46.3217 % 12.72 C
695 11-07-2006 00:00:00 23.91181 C 60.4097 % 15.78 C
696 12-07-2006 00:00:00 25.55625 C 56.7014 % 16.33 C
697 13-07-2006 00:00:00 26.02986 C 53.8125 % 15.95 C
698 14-07-2006 00:00:00 24.71389 C 39.6181 % 10.07 C
699 15-07-2006 00:00:00 23.42431 C 36.3125 % 7.64 C
700 16-07-2006 00:00:00 24.37639 C 36.4306 % 8.53 C
Sensor: Nr:Datum:Temp:Feuchte:Taupunkt:
Aussen-T/F 701 17-07-2006 00:00:00 25.54792 C 32.9375 % 8.07 C
702 18-07-2006 00:00:00 26.24722 C 36.4167 % 10.17 C
703 19-07-2006 00:00:00 27.43125 C 34.5278 % 10.41 C
704 20-07-2006 00:00:00 28.02797 C 34.3287 % 10.85 C
705 21-07-2006 00:00:00 28.09306 C 42.0208 % 13.98 C
706 22-07-2006 00:00:00 24.58125 C 56.4722 % 15.36 C
707 23-07-2006 00:00:00 26.09375 C 53.8333 % 16.01 C
708 24-07-2006 00:00:00 27.19236 C 42.8819 % 13.49 C
709 25-07-2006 00:00:00 28.08194 C 39.4583 % 13.01 C
710 26-07-2006 00:00:00 28.25208 C 43.0347 % 14.49 C
711 27-07-2006 00:00:00 25.83403 C 58.4653 % 17.07 C
712 28-07-2006 00:00:00 22.68264 C 71.0417 % 17.16 C
713 29-07-2006 00:00:00 24.07431 C 61.8681 % 16.31 C
714 30-07-2006 00:00:00 24.48392 C 54.2867 % 14.65 C
715 31-07-2006 00:00:00 23.2375 C 49.1250 % 11.97 C
716 01-08-2006 00:00:00 20.05625 C 59.2222 % 11.86 C
717 02-08-2006 00:00:00 16.51667 C 70.6181 % 11.16 C
718 03-08-2006 00:00:00 15.56111 C 74.0556 % 10.96 C
719 04-08-2006 00:00:00 19.03056 C 63.9792 % 12.06 C
720 05-08-2006 00:00:00 20.59514 C 59.8750 % 12.53 C
721 06-08-2006 00:00:00 21.40694 C 57.9097 % 12.78 C
722 07-08-2006 00:00:00 21.93056 C 52.0903 % 11.66 C
723 08-08-2006 00:00:00 19.79583 C 57.9236 % 11.28 C
724 09-08-2006 00:00:00 19.08322 C 56.9301 % 10.35 C
725 10-08-2006 00:00:00 15.04792 C 75.2917 % 10.71 C
Sensor: Nr:Datum:Temp:Feuchte:Taupunkt:
Aussen-T/F 726 11-08-2006 00:00:00 14.23611 C 79.6181 % 10.77 C
727 12-08-2006 00:00:00 15.08958 C 67.4375 % 9.11 C
728 13-08-2006 00:00:00 14.64514 C 73.1250 % 9.89 C
729 14-08-2006 00:00:00 14.16319 C 79.2569 % 10.63 C
730 15-08-2006 00:00:00 17.63333 C 68.3472 % 11.74 C
731 16-08-2006 00:00:00 17.65 C 72.2708 % 12.6 C
732 17-08-2006 00:00:00 20.9 C 64.7083 % 14.01 C
733 18-08-2006 00:00:00 19.10208 C 71.6042 % 13.85 C
734 19-08-2006 00:00:00 18.77343 C 71.1538 % 13.44 C
735 20-08-2006 00:00:00 18.10972 C 70.0486 % 12.57 C
736 21-08-2006 00:00:00 16.97292 C 71.1042 % 11.7 C
737 22-08-2006 00:00:00 16.96389 C 71.2083 % 11.72 C
738 23-08-2006 00:00:00 17.71319 C 67.9097 % 11.72 C
739 24-08-2006 00:00:00 16.95139 C 73.1319 % 12.11 C
740 25-08-2006 00:00:00 16.57778 C 77.9583 % 12.72 C
741 26-08-2006 00:00:00 16.86528 C 73.5278 % 12.11 C
742 27-08-2006 00:00:00 15.83681 C 81.0903 % 12.6 C
743 28-08-2006 00:00:00 13.83264 C 83.5069 % 11.09 C
744 29-08-2006 00:00:00 12.56713 C 78.3776 % 8.91 C
745 30-08-2006 00:00:00 13.16111 C 79.2083 % 9.64 C
746 31-08-2006 00:00:00 15.10417 C 68.2222 % 9.3 C
747 01-09-2006 00:00:00 20.10139 C 56.7569 % 11.26 C
748 02-09-2006 00:00:00 20.75 C 60.9375 % 12.94 C
749 03-09-2006 00:00:00 21.75069 C 63.3472 % 14.48 C
750 04-09-2006 00:00:00 22.06389 C 53.2778 % 12.12 C
Sensor: Nr:Datum:Temp:Feuchte:Taupunkt:
Aussen-T/F 751 05-09-2006 00:00:00 19.96458 C 65.4931 % 13.31 C
752 06-09-2006 00:00:00 21.68819 C 64.5556 % 14.72 C
753 07-09-2006 00:00:00 19.05694 C 69.9861 % 13.46 C
754 08-09-2006 00:00:00 16.55874 C 57.0420 % 8.03 C
755 09-09-2006 00:00:00 16.56458 C 58.0556 % 8.29 C
756 10-09-2006 00:00:00 18.675 C 57.2986 % 10.07 C
757 11-09-2006 00:00:00 20.64722 C 62.3194 % 13.19 C
758 12-09-2006 00:00:00 22.28889 C 61.6111 % 14.56 C
759 13-09-2006 00:00:00 22.18819 C 60.9028 % 14.29 C
760 14-09-2006 00:00:00 21.21806 C 60.5139 % 13.28 C
761 15-09-2006 00:00:00 21.27273 C 55.2448 % 11.94 C
762 16-09-2006 00:00:00 21.06759 C 63.4345 % 13.86 C
763 17-09-2006 00:00:00 18.62986 C 79.3681 % 14.99 C
764 18-09-2006 00:00:00 17.15903 C 84.1319 % 14.46 C
765 19-09-2006 00:00:00 16.75278 C 74.6875 % 12.24 C
766 20-09-2006 00:00:00 16.65139 C 67.8472 % 10.69 C
767 21-09-2006 00:00:00 18.26806 C 66.8542 % 12.01 C
768 22-09-2006 00:00:00 20.87413 C 58.1049 % 12.34 C
769 23-09-2006 00:00:00 20.17361 C 65.3958 % 13.48 C
770 24-09-2006 00:00:00 21.00903 C 62.0903 % 13.48 C
771 25-09-2006 00:00:00 18.50486 C 70.6181 % 13.07 C
772 26-09-2006 00:00:00 17.03056 C 78.1181 % 13.19 C
773 27-09-2006 00:00:00 17.04444 C 70.2708 % 11.59 C
774 28-09-2006 00:00:00 16.01042 C 71.9583 % 10.96 C
775 29-09-2006 00:00:00 17.325 C 72.5556 % 12.35 C
Sensor: Nr:Datum:Temp:Feuchte:Taupunkt:
Aussen-T/F 776 30-09-2006 00:00:00 17.09583 C 73.3889 % 12.3 C
777 01-10-2006 00:00:00 17.24406 C 78.0420 % 13.38 C
778 02-10-2006 00:00:00 15.91042 C 70.7361 % 10.61 C
779 03-10-2006 00:00:00 13.2126 C 91.0787 % 11.79 C
780 04-10-2006 00:00:00 13.01961 C 75.9020 % 8.87 C
781 05-10-2006 00:00:00 12.97647 C 69.9020 % 7.62 C
782 06-10-2006 00:00:00 15.82353 C 71.0196 % 10.58 C
783 07-10-2006 00:00:00 14.25769 C 67.4231 % 8.31 C
784 08-10-2006 00:00:00 11.08235 C 74.4706 % 6.72 C
785 09-10-2006 00:00:00 12.00192 C 76.5385 % 8.01 C
786 10-10-2006 00:00:00 15.38824 C 74.9020 % 10.96 C
787 11-10-2006 00:00:00 14.37885 C 78.2692 % 10.65 C
788 12-10-2006 00:00:00 15.54118 C 79.4314 % 12 C
789 13-10-2006 00:00:00 16.11765 C 81.6863 % 12.99 C
790 14-10-2006 00:00:00 14.12115 C 74.8654 % 9.73 C
791 15-10-2006 00:00:00 12.41569 C 74.7255 % 8.06 C
792 16-10-2006 00:00:00 9.56154 C 77.7500 % 5.87 C
793 17-10-2006 00:00:00 9.22745 C 79.4510 % 5.86 C
794 18-10-2006 00:00:00 11.90769 C 76.0000 % 7.82 C
795 19-10-2006 00:00:00 13.41961 C 81.9608 % 10.4 C
796 20-10-2006 00:00:00 15.83725 C 73.4706 % 11.11 C
797 21-10-2006 00:00:00 14.08553 C 83.7763 % 11.39 C
798 22-10-2006 00:00:00 15.405 C 72.5583 % 10.5 C
799 23-10-2006 00:00:00 17.22 C 75.0667 % 12.77 C
800 24-10-2006 00:00:00 14.19167 C 78.3917 % 10.49 C
Sensor: Nr:Datum:Temp:Feuchte:Taupunkt:
Aussen-T/F 801 25-10-2006 00:00:00 12.59167 C 76.4167 % 8.56 C
802 26-10-2006 00:00:00 16.50583 C 67.1000 % 10.39 C
803 27-10-2006 00:00:00 17.075 C 71.8000 % 11.95 C
804 28-10-2006 00:00:00 15.02083 C 78.7583 % 11.36 C
805 29-10-2006 00:00:00 15.9896 C 64.5200 % 9.31 C
806 30-10-2006 00:00:00 12.1575 C 72.2500 % 7.32 C
807 31-10-2006 00:00:00 10.23529 C 75.0084 % 6.01 C
808 01-11-2006 00:00:00 7.77167 C 60.1417 % 0.54 C
809 02-11-2006 00:00:00 3.03 C 84.9667 % 0.76 C
810 03-11-2006 00:00:00 5.84333 C 82.5583 % 3.11 C
811 04-11-2006 00:00:00 8.15833 C 76.7250 % 4.32 C
812 05-11-2006 00:00:00 9.14833 C 69.3500 % 3.84 C
813 06-11-2006 00:00:00 9.06833 C 72.1083 % 4.32 C
814 07-11-2006 00:00:00 7.04083 C 78.7083 % 3.6 C
815 08-11-2006 00:00:00 7.96417 C 78.6750 % 4.49 C
816 09-11-2006 00:00:00 9.81917 C 71.2583 % 4.87 C
817 10-11-2006 00:00:00 5.04917 C 82.0000 % 2.24 C
818 11-11-2006 00:00:00 6.26667 C 81.6333 % 3.36 C
819 12-11-2006 00:00:00 7.62353 C 71.2689 % 2.76 C
820 13-11-2006 00:00:00 8.9025 C 80.9667 % 5.82 C
821 14-11-2006 00:00:00 12.84083 C 80.6667 % 9.6 C
822 15-11-2006 00:00:00 12.90167 C 71.9083 % 7.96 C
823 16-11-2006 00:00:00 13.12 C 68.9333 % 7.55 C
824 17-11-2006 00:00:00 12.54333 C 73.7833 % 8 C
825 18-11-2006 00:00:00 9.73917 C 74.8750 % 5.5 C
Sensor: Nr:Datum:Temp:Feuchte:Taupunkt:
Aussen-T/F 826 19-11-2006 00:00:00 7.74083 C 90.8417 % 6.34 C
827 20-11-2006 00:00:00 6.5725 C 73.3000 % 2.15 C
828 21-11-2006 00:00:00 8.63583 C 75.3667 % 4.53 C
829 22-11-2006 00:00:00 6.01833 C 73.1000 % 1.57 C
830 23-11-2006 00:00:00 9.36083 C 85.5500 % 7.07 C
831 24-11-2006 00:00:00 10.1775 C 85.9250 % 7.93 C
832 25-11-2006 00:00:00 14.79583 C 59.9083 % 7.09 C
833 26-11-2006 00:00:00 10.72917 C 75.8000 % 6.64 C
834 27-11-2006 00:00:00 8.08083 C 88.9417 % 6.37 C
835 28-11-2006 00:00:00 7.2775 C 87.7083 % 5.38 C
836 29-11-2006 00:00:00 7.40583 C 93.7250 % 6.46 C
837 30-11-2006 00:00:00 6.29167 C 86.6333 % 4.23 C
838 01-12-2006 00:00:00 5.935 C 88.5667 % 4.19 C
839 02-12-2006 00:00:00 4.37083 C 94.4917 % 3.57 C
840 03-12-2006 00:00:00 10.00583 C 74.0833 % 5.61 C
841 04-12-2006 00:00:00 10.05042 C 67.0252 % 4.22 C
842 05-12-2006 00:00:00 14.25917 C 61.2333 % 6.91 C
843 06-12-2006 00:00:00 10.42667 C 63.2417 % 3.75 C
844 07-12-2006 00:00:00 8.7025 C 61.2917 % 1.68 C
845 08-12-2006 00:00:00 10.0975 C 64.9750 % 3.82 C
846 09-12-2006 00:00:00 7.6075 C 60.8583 % 0.55 C
847 10-12-2006 00:00:00 5.27833 C 69.8167 % 0.23 C
848 11-12-2006 00:00:00 5.05583 C 69.5083 % -0.05 C
849 12-12-2006 00:00:00 6.37333 C 71.1083 % 1.53 C
850 13-12-2006 00:00:00 6.9775 C 70.3000 % 1.95 C
Sensor: Nr:Datum:Temp:Feuchte:Taupunkt:
Aussen-T/F 851 14-12-2006 00:00:00 7.83083 C 66.0500 % 1.9 C
852 15-12-2006 00:00:00 3.2075 C 77.6417 % -0.31 C
853 16-12-2006 00:00:00 4.14333 C 81.4000 % 1.25 C
854 17-12-2006 00:00:00 3.69333 C 80.4833 % 0.66 C
855 18-12-2006 00:00:00 3.37917 C 88.2417 % 1.62 C
856 19-12-2006 00:00:00 3.70083 C 66.5750 % -1.93 C
857 20-12-2006 00:00:00 2.3425 C 72.1750 % -2.14 C
858 21-12-2006 00:00:00 4.7375 C 78.9667 % 1.41 C
859 22-12-2006 00:00:00 1.65 C 85.3750 % -0.53 C
860 23-12-2006 00:00:00 3.19244 C 74.2437 % -0.94 C
861 24-12-2006 00:00:00 0.1725 C 87.6417 % -1.63 C
862 25-12-2006 00:00:00 0.51583 C 82.6333 % -2.09 C
863 26-12-2006 00:00:00 0.8425 C 76.5833 % -2.79 C
864 27-12-2006 00:00:00 -1.28667 C 78.6167 % -4.52 C
865 28-12-2006 00:00:00 0.405 C 77.8667 % -3 C
866 29-12-2006 00:00:00 1.22333 C 87.1833 % -0.67 C
867 30-12-2006 00:00:00 3.5575 C 82.8833 % 0.93 C
868 31-12-2006 00:00:00 10.37107 C 53.7521 % 1.41 C
869 01-01-2007 00:00:00 7.99664 C 65.7647 % 1.99 C
870 02-01-2007 00:00:00 4.33083 C 73.7417 % 0.07 C
871 03-01-2007 00:00:00 5.63417 C 74.5750 % 1.48 C
872 04-01-2007 00:00:00 7.7525 C 65.5417 % 1.71 C
873 05-01-2007 00:00:00 8.08667 C 68.4750 % 2.65 C
874 06-01-2007 00:00:00 10.50333 C 74.0333 % 6.08 C
875 07-01-2007 00:00:00 8.5725 C 60.7083 % 1.42 C
Sensor: Nr:Datum:Temp:Feuchte:Taupunkt:
Aussen-T/F 876 08-01-2007 00:00:00 9.32667 C 63.8583 % 2.84 C
877 09-01-2007 00:00:00 13.04333 C 62.1750 % 5.98 C
878 10-01-2007 00:00:00 11.54333 C 54.4917 % 2.7 C
879 11-01-2007 00:00:00 7.61933 C 57.5210 % -0.22 C
880 12-01-2007 00:00:00 9.0325 C 55.6833 % 0.66 C
881 13-01-2007 00:00:00 11.8175 C 58.2833 % 3.9 C
882 14-01-2007 00:00:00 7.55833 C 57.9083 % -0.18 C
883 15-01-2007 00:00:00 0.8725 C 84.4250 % -1.45 C
884 16-01-2007 00:00:00 5.06583 C 71.8000 % 0.41 C
885 17-01-2007 00:00:00 10.18333 C 63.6917 % 3.62 C
886 18-01-2007 00:00:00 12.41833 C 66.3917 % 6.34 C
887 19-01-2007 00:00:00 10.36667 C 64.5917 % 3.99 C
888 20-01-2007 00:00:00 11.68917 C 61.5333 % 4.55 C
889 21-01-2007 00:00:00 6.88167 C 50.7667 % -2.6 C
890 22-01-2007 00:00:00 4.26167 C 58.4417 % -3.15 C
891 23-01-2007 00:00:00 -1.075 C 26.8500 % -17.75 C
892 24-01-2007 00:00:00 -2.97 C 47.0250 % -12.68 C
893 25-01-2007 00:00:00 -3.4521 C 59.1176 % -10.27 C
894 26-01-2007 00:00:00 -3.23083 C 57.8750 % -10.33 C
895 27-01-2007 00:00:00 2.77 C 66.9667 % -2.74 C
896 28-01-2007 00:00:00 4.49917 C 64.0417 % -1.7 C
897 29-01-2007 00:00:00 7.0175 C 67.6667 % 1.46 C
898 30-01-2007 00:00:00 6.84917 C 67.8167 % 1.33 C
899 31-01-2007 00:00:00 6.82583 C 54.6000 % -1.67 C
900 01-02-2007 00:00:00 7.76667 C 69.7000 % 2.59 C
Sensor: Nr:Datum:Temp:Feuchte:Taupunkt:
Aussen-T/F 901 02-02-2007 00:00:00 8.26583 C 81.2917 % 5.26 C
902 03-02-2007 00:00:00 6.285 C 63.1833 % -0.19 C
903 04-02-2007 00:00:00 5.90667 C 65.6500 % -0.02 C
904 05-02-2007 00:00:00 2.19664 C 75.8319 % -1.61 C
905 06-02-2007 00:00:00 3.33417 C 66.7250 % -2.25 C
906 07-02-2007 00:00:00 1.63417 C 76.0667 % -2.12 C
907 08-02-2007 00:00:00 2.62167 C 73.0167 % -1.72 C
908 09-02-2007 00:00:00 5.79167 C 53.6250 % -2.87 C
909 10-02-2007 00:00:00 5.48667 C 76.0500 % 1.61 C
910 11-02-2007 00:00:00 7.70667 C 70.3417 % 2.66 C
911 12-02-2007 00:00:00 8.33083 C 66.5000 % 2.47 C
912 13-02-2007 00:00:00 7.8175 C 58.6833 % 0.24 C
913 14-02-2007 00:00:00 5.82083 C 71.6417 % 1.1 C
914 15-02-2007 00:00:00 7.37917 C 55.4500 % -0.94 C
915 16-02-2007 00:00:00 4.61583 C 63.8750 % -1.62 C
916 17-02-2007 00:00:00 4.92083 C 57.6250 % -2.72 C
917 18-02-2007 00:00:00 3.4775 C 70.3083 % -1.41 C
918 19-02-2007 00:00:00 5.4675 C 61.9583 % -1.23 C
919 20-02-2007 00:00:00 7.09583 C 59.4417 % -0.26 C
920 21-02-2007 00:00:00 5.63083 C 70.3250 % 0.66 C
921 22-02-2007 00:00:00 7.10583 C 66.5833 % 1.32 C
922 23-02-2007 00:00:00 9.02333 C 62.6750 % 2.29 C
923 24-02-2007 00:00:00 8.47917 C 77.3583 % 4.75 C
924 25-02-2007 00:00:00 7.975 C 67.1917 % 2.27 C
925 26-02-2007 00:00:00 6.53667 C 72.2833 % 1.92 C
Sensor: Nr:Datum:Temp:Feuchte:Taupunkt:
Aussen-T/F 926 27-02-2007 00:00:00 6.38333 C 66.7083 % 0.65 C
927 28-02-2007 00:00:00 10.44667 C 55.3583 % 1.9 C
928 01-03-2007 00:00:00 9.04667 C 57.7667 % 1.18 C
929 02-03-2007 00:00:00 6.77917 C 48.5750 % -3.28 C
930 03-03-2007 00:00:00 6.66639 C 64.3950 % 0.44 C
931 04-03-2007 00:00:00 7.69833 C 59.5167 % 0.33 C
932 05-03-2007 00:00:00 10.24667 C 43.8750 % -1.49 C
933 06-03-2007 00:00:00 9.76083 C 44.7583 % -1.66 C
934 07-03-2007 00:00:00 9.16417 C 55.6583 % 0.77 C
935 08-03-2007 00:00:00 7.035 C 58.5083 % -0.53 C
936 09-03-2007 00:00:00 6.3175 C 65.3333 % 0.3 C
937 10-03-2007 00:00:00 7.155 C 55.8417 % -1.06 C
938 11-03-2007 00:00:00 7.3175 C 56.2167 % -0.81 C
939 12-03-2007 00:00:00 8.52833 C 55.5500 % 0.15 C
940 13-03-2007 00:00:00 9.0475 C 61.0417 % 1.95 C
941 14-03-2007 00:00:00 10.57395 C 59.3109 % 2.98 C
942 15-03-2007 00:00:00 8.44333 C 60.8833 % 1.34 C
943 16-03-2007 00:00:00 7.8175 C 63.4417 % 1.32 C
944 17-03-2007 00:00:00 8.70833 C 73.7500 % 4.29 C
945 18-03-2007 00:00:00 7.715 C 67.8583 % 2.16 C
946 19-03-2007 00:00:00 4.56333 C 60.6500 % -2.37 C
947 20-03-2007 00:00:00 4.1325 C 69.6417 % -0.91 C
948 21-03-2007 00:00:00 4.47417 C 69.0250 % -0.7 C
949 22-03-2007 00:00:00 2.25667 C 91.4333 % 1.01 C
950 23-03-2007 00:00:00 3.37333 C 87.0833 % 1.43 C
Sensor: Nr:Datum:Temp:Feuchte:Taupunkt:
Aussen-T/F 951 24-03-2007 00:00:00 5.37333 C 89.9750 % 3.86 C
952 25-03-2007 00:00:00 9.58345 C 60.0504 % 2.22 C
953 26-03-2007 00:00:00 12.12049 C 48.4757 % 1.59 C
954 27-03-2007 00:00:00 11.65 C 45.0139 % 0.14 C
955 28-03-2007 00:00:00 11.65313 C 40.3368 % -1.36 C
956 29-03-2007 00:00:00 9.75 C 59.7361 % 2.31 C
957 30-03-2007 00:00:00 10.73785 C 67.5660 % 4.99 C
958 31-03-2007 00:00:00 10.49618 C 62.8993 % 3.74 C
959 01-04-2007 00:00:00 13.71707 C 38.0383 % -0.31 C
960 02-04-2007 00:00:00 13.59583 C 38.9965 % -0.08 C
961 03-04-2007 00:00:00 8.94861 C 54.7222 % 0.34 C
962 04-04-2007 00:00:00 9.66076 C 41.8576 % -2.65 C
963 05-04-2007 00:00:00 8.81528 C 48.7014 % -1.38 C
964 06-04-2007 00:00:00 12.12431 C 57.7500 % 4.06 C
965 07-04-2007 00:00:00 9.61533 C 58.8711 % 1.98 C
966 08-04-2007 00:00:00 9.79306 C 57.8681 % 1.9 C
967 09-04-2007 00:00:00 11.52465 C 52.8854 % 2.26 C
968 10-04-2007 00:00:00 11.94688 C 58.9063 % 4.17 C
969 11-04-2007 00:00:00 10.93697 C 68.9455 % 5.47 C
970 12-04-2007 00:00:00 16.75 C 50.8021 % 6.51 C
971 13-04-2007 00:00:00 19.17708 C 48.5625 % 8.08 C
972 14-04-2007 00:00:00 21.16042 C 42.0417 % 7.77 C
973 15-04-2007 00:00:00 20.80833 C 40.1354 % 6.77 C
974 16-04-2007 00:00:00 19.4375 C 39.6042 % 5.36 C
975 17-04-2007 00:00:00 14.74271 C 52.0417 % 5.01 C
Sensor: Nr:Datum:Temp:Feuchte:Taupunkt:
Aussen-T/F 976 18-04-2007 00:00:00 11.07188 C 47.3542 % 0.31 C
977 19-04-2007 00:00:00 11.67188 C 50.3021 % 1.69 C
978 20-04-2007 00:00:00 12.26458 C 45.3438 % 0.8 C
979 21-04-2007 00:00:00 11.89271 C 42.5313 % -0.42 C
980 22-04-2007 00:00:00 15.65729 C 41.4792 % 2.63 C
981 23-04-2007 00:00:00 17.48021 C 43.5104 % 4.95 C
982 24-04-2007 00:00:00 20.85102 C 44.6939 % 8.39 C
983 25-04-2007 00:00:00 22.135 C 44.3917 % 9.45 C
984 26-04-2007 00:00:00 21.16 C 42.2333 % 7.83 C
985 27-04-2007 00:00:00 20.46303 C 41.7815 % 7.05 C
986 28-04-2007 00:00:00 20.92083 C 42.3000 % 7.64 C
987 29-04-2007 00:00:00 19.75583 C 41.7000 % 6.39 C
988 30-04-2007 00:00:00 16.78917 C 29.4833 % -1.1 C
989 01-05-2007 00:00:00 16.47083 C 33.2250 % 0.26 C
990 02-05-2007 00:00:00 16.09167 C 27.7833 % -2.5 C
991 03-05-2007 00:00:00 17.355 C 34.8500 % 1.7 C
992 04-05-2007 00:00:00 18.835 C 36.9750 % 3.84 C
993 05-05-2007 00:00:00 17.5975 C 41.2167 % 4.28 C
994 06-05-2007 00:00:00 16.51167 C 52.7083 % 6.83 C
995 07-05-2007 00:00:00 15.5625 C 65.1083 % 9.04 C
996 08-05-2007 00:00:00 14.1825 C 63.3750 % 7.34 C
997 09-05-2007 00:00:00 12.76917 C 79.3667 % 9.29 C
998 10-05-2007 00:00:00 17.70667 C 56.4917 % 8.96 C
999 11-05-2007 00:00:00 15.535 C 49.5583 % 5.04 C
1000 12-05-2007 00:00:00 15.02689 C 61.9748 % 7.81 C
Sensor: Nr:Datum:Temp:Feuchte:Taupunkt:
Aussen-T/F 1001 13-05-2007 00:00:00 17.04333 C 61.9250 % 9.7 C
1002 14-05-2007 00:00:00 15.98917 C 57.3750 % 7.58 C
1003 15-05-2007 00:00:00 13.36917 C 64.2667 % 6.77 C
1004 16-05-2007 00:00:00 12.17917 C 70.4833 % 6.98 C
1005 17-05-2007 00:00:00 10.8525 C 80.3333 % 7.6 C
1006 18-05-2007 00:00:00 14.6325 C 65.6667 % 8.28 C
1007 19-05-2007 00:00:00 18.53583 C 65.5583 % 11.97 C
1008 20-05-2007 00:00:00 21.92667 C 50.3333 % 11.14 C
1009 21-05-2007 00:00:00 22.61667 C 56.9000 % 13.64 C
1010 22-05-2007 00:00:00 22.86667 C 57.7333 % 14.1 C
1011 23-05-2007 00:00:00 20.8675 C 62.2750 % 13.39 C
1012 24-05-2007 00:00:00 23.91417 C 52.7667 % 13.69 C
1013 25-05-2007 00:00:00 24.57059 C 52.4370 % 14.2 C
1014 26-05-2007 00:00:00 21.745 C 66.4500 % 15.22 C
1015 27-05-2007 00:00:00 17.5125 C 66.0083 % 11.1 C
1016 28-05-2007 00:00:00 12.24917 C 78.6250 % 8.65 C
1017 29-05-2007 00:00:00 11.033 C 79.0400 % 7.54 C
1018 30-05-2007 00:00:00 13.67465 C 53.2113 % 4.34 C
1019 31-05-2007 00:00:00 16.05139 C 60.5694 % 8.43 C
1020 01-06-2007 00:00:00 15.42361 C 72.7222 % 10.55 C
1021 02-06-2007 00:00:00 18.53611 C 61.9028 % 11.1 C
1022 03-06-2007 00:00:00 20.87083 C 55.5278 % 11.64 C
1023 04-06-2007 00:00:00 22.02361 C 54.5139 % 12.44 C
1024 05-06-2007 00:00:00 21.66389 C 53.7639 % 11.89 C
1025 06-06-2007 00:00:00 22.53889 C 52.9167 % 12.46 C
Sensor: Nr:Datum:Temp:Feuchte:Taupunkt:
Aussen-T/F 1026 07-06-2007 00:00:00 25.42222 C 48.2083 % 13.68 C
1027 08-06-2007 00:00:00 26.47639 C 45.6806 % 13.81 C
1028 09-06-2007 00:00:00 23.12917 C 59.2917 % 14.76 C
1029 10-06-2007 00:00:00 21.28889 C 67.3889 % 15.01 C
1030 11-06-2007 00:00:00 21.88068 C 61.7500 % 14.21 C
1031 12-06-2007 00:00:00 20.17167 C 67.6167 % 13.99 C
1032 13-06-2007 00:00:00 21.51176 C 55.0084 % 12.1 C
1033 14-06-2007 00:00:00 22.15833 C 61.9500 % 14.52 C
1034 15-06-2007 00:00:00 19.84667 C 67.7083 % 13.7 C
1035 16-06-2007 00:00:00 18.0125 C 60.5083 % 10.26 C
1036 17-06-2007 00:00:00 20.0125 C 55.6583 % 10.88 C
1037 18-06-2007 00:00:00 20.92583 C 61.5917 % 13.27 C
1038 19-06-2007 00:00:00 23.70833 C 52.2333 % 13.34 C
1039 20-06-2007 00:00:00 23.68667 C 56.3250 % 14.48 C
1040 21-06-2007 00:00:00 18.30167 C 79.4500 % 14.69 C
1041 22-06-2007 00:00:00 16.06417 C 80.0667 % 12.63 C
1042 23-06-2007 00:00:00 16.04167 C 77.3417 % 12.08 C
1043 24-06-2007 00:00:00 19.31667 C 60.3667 % 11.45 C
1044 25-06-2007 00:00:00 18.13667 C 70.1417 % 12.61 C
1045 26-06-2007 00:00:00 13.90667 C 69.6583 % 8.46 C
1046 27-06-2007 00:00:00 14.2225 C 54.2417 % 5.12 C
1047 28-06-2007 00:00:00 15.82833 C 55.1417 % 6.85 C
1048 29-06-2007 00:00:00 16.88417 C 57.8917 % 8.55 C
1049 30-06-2007 00:00:00 18.675 C 60.6167 % 10.91 C
1050 01-07-2007 00:00:00 20.8525 C 58.6250 % 12.45 C
Sensor: Nr:Datum:Temp:Feuchte:Taupunkt:
Aussen-T/F 1051 02-07-2007 00:00:00 19.54917 C 61.9417 % 12.06 C
1052 03-07-2007 00:00:00 15.42583 C 74.8000 % 10.98 C
1053 04-07-2007 00:00:00 15.17417 C 68.8833 % 9.51 C
1054 05-07-2007 00:00:00 15.1325 C 73.8417 % 10.5 C
1055 06-07-2007 00:00:00 17.63613 C 54.9244 % 8.47 C
1056 07-07-2007 00:00:00 18.55167 C 44.9917 % 6.4 C
1057 08-07-2007 00:00:00 19.8175 C 48.6833 % 8.71 C
1058 09-07-2007 00:00:00 17.15583 C 64.2500 % 10.35 C
1059 10-07-2007 00:00:00 14.66583 C 74.5750 % 10.2 C
1060 11-07-2007 00:00:00 14.37833 C 76.4917 % 10.3 C
1061 12-07-2007 00:00:00 17.7 C 64.0500 % 10.82 C
1062 13-07-2007 00:00:00 22.43167 C 59.7333 % 14.22 C
1063 14-07-2007 00:00:00 25.05 C 50.6250 % 14.09 C
1064 15-07-2007 00:00:00 27.2075 C 43.9583 % 13.88 C
1065 16-07-2007 00:00:00 26.8025 C 35.0833 % 10.1 C
1066 17-07-2007 00:00:00 25.11167 C 36.9417 % 9.38 C
1067 18-07-2007 00:00:00 22.78 C 45.3500 % 10.35 C
1068 19-07-2007 00:00:00 20.29333 C 62.6917 % 12.95 C
1069 20-07-2007 00:00:00 22.04917 C 62.3583 % 14.52 C
1070 21-07-2007 00:00:00 19.74917 C 56.9250 % 10.97 C
1071 22-07-2007 00:00:00 19.89917 C 48.4667 % 8.72 C
1072 23-07-2007 00:00:00 16.33333 C 72.9083 % 11.47 C
1073 24-07-2007 00:00:00 16.72667 C 66.6167 % 10.49 C
1074 25-07-2007 00:00:00 19.68571 C 51.9832 % 9.56 C
1075 26-07-2007 00:00:00 21.75583 C 49.0083 % 10.58 C
Sensor: Nr:Datum:Temp:Feuchte:Taupunkt:
Aussen-T/F 1076 27-07-2007 00:00:00 22.4675 C 41.3750 % 8.71 C
1077 28-07-2007 00:00:00 21.095 C 55.3500 % 11.8 C
1078 29-07-2007 00:00:00 17.3075 C 64.5750 % 10.57 C
1079 30-07-2007 00:00:00 14.66167 C 55.2500 % 5.79 C
1080 31-07-2007 00:00:00 15.68167 C 50.1833 % 5.35 C
1081 01-08-2007 00:00:00 18.53833 C 47.1417 % 7.07 C
1082 02-08-2007 00:00:00 18.3275 C 60.9417 % 10.67 C
1083 03-08-2007 00:00:00 19.78083 C 52.2667 % 9.73 C
1084 04-08-2007 00:00:00 21.05 C 48.1750 % 9.68 C
1085 05-08-2007 00:00:00 23.69833 C 42.6583 % 10.27 C
1086 06-08-2007 00:00:00 24.23417 C 42.2667 % 10.61 C
1087 07-08-2007 00:00:00 18.36167 C 80.4833 % 14.94 C
1088 08-08-2007 00:00:00 16.0175 C 80.7583 % 12.71 C
1089 09-08-2007 00:00:00 14.26667 C 94.1833 % 13.34 C
1090 10-08-2007 00:00:00 17.82833 C 88.8083 % 15.96 C
1091 11-08-2007 00:00:00 19.64083 C 65.4417 % 12.99 C
1092 12-08-2007 00:00:00 20.07417 C 58.1167 % 11.59 C
1093 13-08-2007 00:00:00 20.9175 C 55.5833 % 11.7 C
1094 14-08-2007 00:00:00 20.9275 C 52.8667 % 10.96 C
1095 15-08-2007 00:00:00 23.49917 C 61.0750 % 15.56 C
1096 16-08-2007 00:00:00 18.74667 C 65.4750 % 12.15 C
1097 17-08-2007 00:00:00 17.27833 C 54.9417 % 8.15 C
1098 18-08-2007 00:00:00 17.40917 C 54.1667 % 8.06 C
1099 19-08-2007 00:00:00 17.24583 C 67.4583 % 11.17 C
1100 20-08-2007 00:00:00 17.315 C 65.7667 % 10.85 C
Sensor: Nr:Datum:Temp:Feuchte:Taupunkt:
Aussen-T/F 1101 21-08-2007 00:00:00 15.4225 C 78.3500 % 11.68 C
1102 22-08-2007 00:00:00 15.95593 C 87.1610 % 13.82 C
1103 23-08-2007 00:00:00 17.7575 C 79.1333 % 14.1 C
1104 24-08-2007 00:00:00 19.43833 C 69.1250 % 13.63 C
1105 25-08-2007 00:00:00 21.42 C 63.4750 % 14.2 C
1106 26-08-2007 00:00:00 21.99167 C 62.3583 % 14.47 C
1107 27-08-2007 00:00:00 19.53583 C 52.5417 % 9.58 C
1108 28-08-2007 00:00:00 16.42167 C 57.9583 % 8.13 C
1109 29-08-2007 00:00:00 17.285 C 45.6083 % 5.45 C
1110 30-08-2007 00:00:00 15.3675 C 53.4750 % 5.98 C
1111 31-08-2007 00:00:00 17.5825 C 66.0167 % 11.17 C
1112 01-09-2007 00:00:00 17.1975 C 68.3833 % 11.33 C
1113 02-09-2007 00:00:00 17.35583 C 60.9167 % 9.75 C
1114 03-09-2007 00:00:00 15.74917 C 67.6750 % 9.79 C
1115 04-09-2007 00:00:00 12.88417 C 62.5250 % 5.91 C
1116 05-09-2007 00:00:00 12.6395 C 62.3950 % 5.65 C
1117 06-09-2007 00:00:00 15.00917 C 73.4667 % 10.31 C
1118 07-09-2007 00:00:00 15.9325 C 67.9750 % 10.03 C
1119 08-09-2007 00:00:00 15.13667 C 77.7000 % 11.27 C
1120 09-09-2007 00:00:00 15.125 C 70.9333 % 9.9 C
1121 10-09-2007 00:00:00 12.4075 C 79.3917 % 8.94 C
1122 11-09-2007 00:00:00 14.36833 C 69.7833 % 8.93 C
1123 12-09-2007 00:00:00 14.94417 C 66.8167 % 8.84 C
1124 13-09-2007 00:00:00 14.5175 C 68.1667 % 8.72 C
1125 14-09-2007 00:00:00 15.68417 C 64.4583 % 9.01 C
Sensor: Nr:Datum:Temp:Feuchte:Taupunkt:
Aussen-T/F 1126 15-09-2007 00:00:00 16.86917 C 57.4250 % 8.42 C
1127 16-09-2007 00:00:00 15.27 C 63.0583 % 8.29 C
1128 17-09-2007 00:00:00 16.68833 C 71.1500 % 11.44 C
1129 18-09-2007 00:00:00 11.46833 C 80.1833 % 8.18 C
1130 19-09-2007 00:00:00 10.3275 C 66.7750 % 4.43 C
1131 20-09-2007 00:00:00 13.68083 C 59.4000 % 5.92 C
1132 21-09-2007 00:00:00 14.35833 C 62.5417 % 7.31 C
1133 22-09-2007 00:00:00 15.97583 C 64.2333 % 9.23 C
1134 23-09-2007 00:00:00 17.80333 C 62.5500 % 10.56 C
1135 24-09-2007 00:00:00 16.95833 C 65.7167 % 10.5 C
1136 25-09-2007 00:00:00 12.91917 C 68.3417 % 7.24 C
1137 26-09-2007 00:00:00 12.2675 C 72.5750 % 7.49 C
1138 27-09-2007 00:00:00 10.19083 C 93.0333 % 9.12 C
1139 28-09-2007 00:00:00 12.50168 C 79.2353 % 9.01 C
1140 29-09-2007 00:00:00 13.54444 C 73.2882 % 8.86 C
1141 30-09-2007 00:00:00 14.59687 C 72.8646 % 9.79 C
1142 01-10-2007 00:00:00 14.70313 C 77.1127 % 10.74 C
1143 02-10-2007 00:00:00 17.235 C 78.2854 % 13.42 C
1144 03-10-2007 00:00:00 17.39188 C 77.4125 % 13.4 C
1145 04-10-2007 00:00:00 17.33653 C 78.0647 % 13.48 C
1146 05-10-2007 00:00:00 15.50646 C 65.9313 % 9.17 C
1147 06-10-2007 00:00:00 12.34042 C 69.6938 % 6.97 C
1148 07-10-2007 00:00:00 11.60813 C 73.9667 % 7.13 C
1149 08-10-2007 00:00:00 10.74021 C 76.4542 % 6.77 C
1150 09-10-2007 00:00:00 12.05052 C 75.7808 % 7.91 C
Sensor: Nr:Datum:Temp:Feuchte:Taupunkt:
Aussen-T/F 1151 10-10-2007 00:00:00 14.53875 C 64.5167 % 7.93 C
1152 11-10-2007 00:00:00 11.52958 C 70.9146 % 6.44 C
1153 12-10-2007 00:00:00 12.23271 C 76.1958 % 8.17 C
1154 13-10-2007 00:00:00 13.96146 C 64.9563 % 7.49 C
1155 14-10-2007 00:00:00 9.94958 C 69.0396 % 4.54 C
1156 15-10-2007 00:00:00 10.725 C 74.7021 % 6.42 C
1157 16-10-2007 00:00:00 13.70417 C 70.5188 % 8.45 C
1158 17-10-2007 00:00:00 11.78601 C 79.8121 % 8.42 C
1159 18-10-2007 00:00:00 9.70042 C 69.9708 % 4.5 C
1160 19-10-2007 00:00:00 7.65667 C 76.3000 % 3.76 C
1161 20-10-2007 00:00:00 3.38583 C 90.8083 % 2.03 C
1162 24-10-2007 00:00:00 7.63803 C 70.4507 % 2.62 C
1163 25-10-2007 00:00:00 8.51042 C 73.2958 % 4.01 C
1164 26-10-2007 00:00:00 8.8712 C 68.9307 % 3.49 C
1165 27-10-2007 00:00:00 8.5725 C 68.2250 % 3.06 C
1166 28-10-2007 00:00:00 9.1632 C 66.2080 % 3.2 C
1167 29-10-2007 00:00:00 8.77833 C 81.3167 % 5.76 C
1168 30-10-2007 00:00:00 8.70333 C 84.3583 % 6.22 C
1169 31-10-2007 00:00:00 6.43333 C 86.2250 % 4.3 C
1170 01-11-2007 00:00:00 5.77833 C 84.4417 % 3.36 C
1171 02-11-2007 00:00:00 10.20333 C 89.5583 % 8.57 C
1172 03-11-2007 00:00:00 11.76723 C 91.7479 % 10.47 C
1173 04-11-2007 00:00:00 10.35 C 71.2250 % 5.37 C
1174 05-11-2007 00:00:00 8.61333 C 62.5167 % 1.87 C
1175 06-11-2007 00:00:00 8.1225 C 70.6167 % 3.11 C
Sensor: Nr:Datum:Temp:Feuchte:Taupunkt:
Aussen-T/F 1176 07-11-2007 00:00:00 8.495 C 71.8667 % 3.72 C
1177 08-11-2007 00:00:00 9.85667 C 77.3833 % 6.09 C
1178 09-11-2007 00:00:00 5.16167 C 74.4417 % 1 C
1179 10-11-2007 00:00:00 6.29083 C 79.9917 % 3.1 C
1180 11-11-2007 00:00:00 7.75917 C 81.9167 % 4.87 C
1181 12-11-2007 00:00:00 5.1475 C 69.7917 % 0.1 C
1182 13-11-2007 00:00:00 3.98167 C 80.9417 % 1.01 C
1183 14-11-2007 00:00:00 2.72417 C 74.8917 % -1.27 C
1184 15-11-2007 00:00:00 1.3425 C 71.9000 % -3.16 C
1185 16-11-2007 00:00:00 -0.59167 C 82.5667 % -3.19 C
1186 17-11-2007 00:00:00 3.35714 C 76.7983 % -0.32 C
1187 18-11-2007 00:00:00 3.3825 C 80.4167 % 0.34 C
1188 19-11-2007 00:00:00 2.57333 C 75.1333 % -1.37 C
1189 20-11-2007 00:00:00 5.33 C 66.0333 % -0.49 C
1190 21-11-2007 00:00:00 6.755 C 74.2750 % 2.51 C
1191 22-11-2007 00:00:00 7.93917 C 80.7167 % 4.84 C
1192 23-11-2007 00:00:00 6.7275 C 89.4750 % 5.12 C
1193 24-11-2007 00:00:00 2.76833 C 82.3250 % 0.06 C
1194 25-11-2007 00:00:00 4.25167 C 81.8417 % 1.43 C
1195 26-11-2007 00:00:00 3.9725 C 73.4750 % -0.33 C
1196 27-11-2007 00:00:00 4.23833 C 72.4417 % -0.27 C
1197 28-11-2007 00:00:00 0.0625 C 88.7167 % -1.57 C
1198 29-11-2007 00:00:00 1.3325 C 86.4167 % -0.68 C
1199 30-11-2007 00:00:00 5.76 C 79.7333 % 2.54 C
1200 01-12-2007 00:00:00 8.51345 C 68.1513 % 2.99 C
Sensor: Nr:Datum:Temp:Feuchte:Taupunkt:
Aussen-T/F 1201 02-12-2007 00:00:00 9.13667 C 70.5167 % 4.07 C
1202 03-12-2007 00:00:00 7.21167 C 63.3250 % 0.72 C
1203 04-12-2007 00:00:00 5.77583 C 78.4500 % 2.33 C
1204 05-12-2007 00:00:00 10.11667 C 76.0500 % 6.09 C
1205 06-12-2007 00:00:00 9.85667 C 71.6000 % 4.98 C
1206 07-12-2007 00:00:00 10.3625 C 63.3000 % 3.7 C
1207 08-12-2007 00:00:00 5.77917 C 65.6250 % -0.15 C
1208 09-12-2007 00:00:00 7.00333 C 74.2083 % 2.73 C
1209 10-12-2007 00:00:00 6.24167 C 83.5250 % 3.66 C
1210 11-12-2007 00:00:00 5.6775 C 75.9167 % 1.77 C
1211 12-12-2007 00:00:00 4.92417 C 74.0250 % 0.69 C
1212 13-12-2007 00:00:00 5.2125 C 63.2583 % -1.19 C
1213 14-12-2007 00:00:00 2.35798 C 51.9412 % -6.48 C
1214 15-12-2007 00:00:00 0.0325 C 58.8000 % -7.05 C
1215 16-12-2007 00:00:00 -2.92417 C 75.4000 % -6.65 C
1216 17-12-2007 00:00:00 -1.06 C 63.2333 % -7.15 C
1217 18-12-2007 00:00:00 -2.50833 C 77.1417 % -5.95 C
1218 19-12-2007 00:00:00 -3.8675 C 83.6667 % -6.22 C
1219 20-12-2007 00:00:00 -5.26417 C 86.8167 % -7.11 C
1220 21-12-2007 00:00:00 -5.9625 C 85.7917 % -7.95 C
1221 22-12-2007 00:00:00 -7.21833 C 83.9667 % -9.46 C
1222 23-12-2007 00:00:00 -5.47333 C 85.5417 % -7.51 C
1223 24-12-2007 00:00:00 -1.28333 C 90.4833 % -2.64 C
1224 25-12-2007 00:00:00 -3.13917 C 82.2500 % -5.73 C
1225 26-12-2007 00:00:00 -1.31513 C 86.6639 % -3.25 C
Sensor: Nr:Datum:Temp:Feuchte:Taupunkt:
Aussen-T/F 1226 27-12-2007 00:00:00 2.63917 C 82.9333 % 0.04 C
1227 28-12-2007 00:00:00 4.575 C 79.7167 % 1.38 C
1228 29-12-2007 00:00:00 3.32667 C 79.5917 % 0.14 C
1229 30-12-2007 00:00:00 4.99167 C 77.1417 % 1.33 C
1230 31-12-2007 00:00:00 3.21667 C 86.0250 % 1.11 C
1231 01-01-2008 00:00:00 1.85083 C 82.1417 % -0.86 C
1232 02-01-2008 00:00:00 -1.72 C 74.6417 % -5.62 C
1233 03-01-2008 00:00:00 -0.05667 C 59.5500 % -6.98 C
1234 04-01-2008 00:00:00 0.27167 C 67.6750 % -4.99 C
1235 05-01-2008 00:00:00 5.0775 C 82.4667 % 2.35 C
1236 06-01-2008 00:00:00 3.95167 C 82.4583 % 1.24 C
1237 07-01-2008 00:00:00 5.63583 C 74.8583 % 1.54 C
1238 08-01-2008 00:00:00 4.45546 C 82.7731 % 1.79 C
1239 09-01-2008 00:00:00 4.03167 C 84.5667 % 1.67 C
1240 10-01-2008 00:00:00 6.32083 C 73.8750 % 2.01 C
1241 11-01-2008 00:00:00 9.6175 C 63.9667 % 3.14 C
1242 12-01-2008 00:00:00 6.39 C 67.3417 % 0.79 C
1243 13-01-2008 00:00:00 0.58167 C 84.5167 % -1.72 C
1244 14-01-2008 00:00:00 3.80833 C 78.1083 % 0.35 C
1245 15-01-2008 00:00:00 8.28833 C 60.8250 % 1.18 C
1246 16-01-2008 00:00:00 8.28667 C 63.4917 % 1.78 C
1247 17-01-2008 00:00:00 7.21833 C 70.1750 % 2.16 C
1248 18-01-2008 00:00:00 9.17667 C 70.7167 % 4.15 C
1249 19-01-2008 00:00:00 12.72353 C 66.6975 % 6.69 C
1250 20-01-2008 00:00:00 12.27333 C 63.6250 % 5.58 C
Sensor: Nr:Datum:Temp:Feuchte:Taupunkt:
Aussen-T/F 1251 21-01-2008 00:00:00 10.16471 C 61.0719 % 3.01 C
1252 22-01-2008 00:00:00 4.58605 C 60.6163 % -2.36 C
1253 23-01-2008 00:00:00 2.9125 C 66.2750 % -2.74 C
1254 24-01-2008 00:00:00 6.355 C 62.6167 % -0.24 C
1255 25-01-2008 00:00:00 3.72583 C 69.4750 % -1.33 C
1256 26-01-2008 00:00:00 5.43583 C 60.9667 % -1.48 C
1257 27-01-2008 00:00:00 5.64333 C 60.4833 % -1.39 C
1258 28-01-2008 00:00:00 7.44 C 65.0667 % 1.32 C
1259 29-01-2008 00:00:00 5.72167 C 60.1583 % -1.39 C
1260 30-01-2008 00:00:00 2.05833 C 84.3833 % -0.29 C
1261 31-01-2008 00:00:00 2.0958 C 68.2353 % -3.13 C
1262 01-02-2008 00:00:00 4.10167 C 75.4000 % 0.15 C
1263 02-02-2008 00:00:00 2.155 C 64.7500 % -3.78 C
1264 03-02-2008 00:00:00 0.64917 C 63.2500 % -5.52 C
1265 04-02-2008 00:00:00 4.5125 C 64.6417 % -1.56 C
1266 05-02-2008 00:00:00 6.43917 C 68.3583 % 1.05 C
1267 06-02-2008 00:00:00 8.675 C 66.2917 % 2.75 C
1268 07-02-2008 00:00:00 3.96333 C 66.9167 % -1.61 C
1269 08-02-2008 00:00:00 2.41167 C 67.6667 % -2.94 C
1270 09-02-2008 00:00:00 2.61833 C 62.3083 % -3.85 C
1271 10-02-2008 00:00:00 2.41333 C 65.4500 % -3.39 C
1272 11-02-2008 00:00:00 3.10083 C 73.4750 % -1.17 C
1273 12-02-2008 00:00:00 2.92667 C 75.8833 % -0.9 C
1274 13-02-2008 00:00:00 2.03193 C 77.7647 % -1.43 C
1275 14-02-2008 00:00:00 0.96667 C 84.9667 % -1.27 C
Sensor: Nr:Datum:Temp:Feuchte:Taupunkt:
Aussen-T/F 1276 15-02-2008 00:00:00 2.4125 C 54.7917 % -5.74 C
1277 16-02-2008 00:00:00 -0.75333 C 44.0750 % -11.45 C
1278 17-02-2008 00:00:00 -1.21667 C 46.0750 % -11.32 C
1279 18-02-2008 00:00:00 -0.28333 C 44.7917 % -10.82 C
1280 19-02-2008 00:00:00 0.85417 C 49.4000 % -8.52 C
1281 20-02-2008 00:00:00 1.65 C 82.7500 % -0.96 C
1282 21-02-2008 00:00:00 6.5725 C 76.4667 % 2.74 C
1283 22-02-2008 00:00:00 9.70667 C 63.8083 % 3.19 C
1284 23-02-2008 00:00:00 9.48833 C 61.5667 % 2.48 C
1285 24-02-2008 00:00:00 6.65583 C 74.7167 % 2.5 C
1286 25-02-2008 00:00:00 9.93833 C 64.7333 % 3.62 C
1287 26-02-2008 00:00:00 11.1075 C 64.3583 % 4.64 C
1288 27-02-2008 00:00:00 7.70168 C 54.7479 % -0.82 C
1289 28-02-2008 00:00:00 7.6125 C 60.6917 % 0.52 C
1290 29-02-2008 00:00:00 8.7625 C 82.4500 % 5.94 C
1291 01-03-2008 00:00:00 9.4675 C 53.3417 % 0.47 C
1292 02-03-2008 00:00:00 11.1725 C 52.6833 % 1.88 C
1293 03-03-2008 00:00:00 7.56583 C 50.7667 % -1.97 C
1294 04-03-2008 00:00:00 2.7525 C 69.4083 % -2.27 C
1295 05-03-2008 00:00:00 1.71 C 55.6000 % -6.2 C
1296 06-03-2008 00:00:00 2.81917 C 50.9583 % -6.31 C
1297 07-03-2008 00:00:00 6.93833 C 61.2000 % -0.01 C
1298 08-03-2008 00:00:00 6.94667 C 58.2333 % -0.68 C
1299 09-03-2008 00:00:00 8.06667 C 49.4750 % -1.85 C
1300 10-03-2008 00:00:00 8.22941 C 51.4538 % -1.17 C
Sensor: Nr:Datum:Temp:Feuchte:Taupunkt:
Aussen-T/F 1301 11-03-2008 00:00:00 8.355 C 62.7667 % 1.68 C
1302 12-03-2008 00:00:00 9.11833 C 47.2750 % -1.5 C
1303 13-03-2008 00:00:00 7.62667 C 50.3083 % -2.03 C
1304 14-03-2008 00:00:00 9.14417 C 64.8417 % 2.89 C
1305 15-03-2008 00:00:00 9.33 C 60.1750 % 2.01 C
1306 16-03-2008 00:00:00 9.8675 C 71.7417 % 5.01 C
1307 17-03-2008 00:00:00 5.94583 C 55.1250 % -2.36 C
1308 18-03-2008 00:00:00 4.26083 C 47.4667 % -5.9 C
1309 19-03-2008 00:00:00 3.37083 C 64.0500 % -2.77 C
1310 20-03-2008 00:00:00 3.89083 C 64.4750 % -2.18 C
1311 21-03-2008 00:00:00 3.9975 C 66.4250 % -1.68 C
1312 22-03-2008 00:00:00 2.82917 C 80.2000 % -0.24 C
1313 23-03-2008 00:00:00 1.56639 C 42.7899 % -9.7 C
1314 24-03-2008 00:00:00 -0.00917 C 66.0500 % -5.58 C
1315 25-03-2008 00:00:00 1.51333 C 57.5000 % -5.95 C
1316 26-03-2008 00:00:00 2.39667 C 75.1083 % -1.55 C
1317 27-03-2008 00:00:00 5.29417 C 78.4500 % 1.86 C
1318 28-03-2008 00:00:00 8.15333 C 49.6167 % -1.74 C
1319 29-03-2008 00:00:00 9.55083 C 43.2917 % -2.3 C
1320 30-03-2008 00:00:00 13.03217 C 35.2696 % -1.95 C
1321 31-03-2008 00:00:00 11.98333 C 52.5750 % 2.6 C
1322 01-04-2008 00:00:00 10.06833 C 56.8833 % 1.92 C
1323 02-04-2008 00:00:00 9.77417 C 59.6083 % 2.3 C
1324 03-04-2008 00:00:00 7.48 C 71.9167 % 2.75 C
1325 04-04-2008 00:00:00 9.15583 C 65.0667 % 2.95 C
Sensor: Nr:Datum:Temp:Feuchte:Taupunkt:
Aussen-T/F 1326 05-04-2008 00:00:00 7.49076 C 84.1429 % 4.99 C
1327 06-04-2008 00:00:00 3.825 C 89.8083 % 2.31 C
1328 07-04-2008 00:00:00 1.36917 C 91.5917 % 0.15 C
1329 08-04-2008 00:00:00 3.57833 C 76.3667 % -0.18 C
1330 09-04-2008 00:00:00 5.82833 C 76.6250 % 2.05 C
1331 10-04-2008 00:00:00 8.76917 C 66.0500 % 2.79 C
1332 11-04-2008 00:00:00 8.235 C 75.5667 % 4.18 C
1333 12-04-2008 00:00:00 8.02 C 65.3333 % 1.92 C
1334 13-04-2008 00:00:00 9.70833 C 71.0833 % 4.73 C
1335 14-04-2008 00:00:00 7.63083 C 85.5083 % 5.36 C
1336 15-04-2008 00:00:00 6.56083 C 79.5167 % 3.28 C
1337 16-04-2008 00:00:00 6.30083 C 64.5917 % 0.13 C
1338 17-04-2008 00:00:00 6.47227 C 53.9076 % -2.17 C
1339 18-04-2008 00:00:00 9.94 C 48.9500 % -0.28 C
1340 19-04-2008 00:00:00 8.41667 C 72.7333 % 3.81 C
1341 20-04-2008 00:00:00 12.42417 C 65.2917 % 6.1 C
1342 21-04-2008 00:00:00 12.98833 C 55.5417 % 4.31 C
1343 22-04-2008 00:00:00 12.95917 C 52.8667 % 3.58 C
1344 23-04-2008 00:00:00 13.95083 C 52.1167 % 4.3 C
1345 24-04-2008 00:00:00 15.095 C 55.3500 % 6.22 C
1346 25-04-2008 00:00:00 12.67583 C 55.1000 % 3.91 C
1347 26-04-2008 00:00:00 14.51833 C 49.4333 % 4.07 C
1348 27-04-2008 00:00:00 15.87667 C 42.8000 % 3.26 C
1349 28-04-2008 00:00:00 13.4125 C 69.9500 % 8.05 C
1350 29-04-2008 00:00:00 13.07667 C 56.1167 % 4.54 C
Sensor: Nr:Datum:Temp:Feuchte:Taupunkt:
Aussen-T/F 1351 30-04-2008 00:00:00 13.76639 C 44.8571 % 2.01 C
1352 01-05-2008 00:00:00 11.62583 C 55.7167 % 3.09 C
1353 02-05-2008 00:00:00 12.97583 C 55.4667 % 4.28 C
1354 03-05-2008 00:00:00 14.47667 C 52.3000 % 4.83 C
1355 04-05-2008 00:00:00 17.15667 C 40.4417 % 3.61 C
1356 05-05-2008 00:00:00 16.51 C 39.2167 % 2.6 C
1357 06-05-2008 00:00:00 18.36833 C 48.8750 % 7.44 C
1358 07-05-2008 00:00:00 19.48083 C 41.7500 % 6.16 C
1359 08-05-2008 00:00:00 19.40583 C 41.8417 % 6.12 C
1360 09-05-2008 00:00:00 20.20083 C 40.3083 % 6.29 C
1361 10-05-2008 00:00:00 21.22917 C 38.5667 % 6.57 C
1362 11-05-2008 00:00:00 21.15714 C 34.7563 % 5.01 C
1363 12-05-2008 00:00:00 21.02017 C 36.7395 % 5.68 C
1364 13-05-2008 00:00:00 21.3175 C 37.9750 % 6.43 C
1365 14-05-2008 00:00:00 21.27167 C 41.8667 % 7.81 C
1366 15-05-2008 00:00:00 18.93333 C 54.9333 % 9.68 C
1367 16-05-2008 00:00:00 18.3725 C 61.7000 % 10.9 C
1368 17-05-2008 00:00:00 17.11167 C 68.8833 % 11.36 C
1369 18-05-2008 00:00:00 14.09583 C 69.0917 % 8.52 C
1370 19-05-2008 00:00:00 14.61833 C 44.8000 % 2.77 C
1371 20-05-2008 00:00:00 15.59417 C 37.0333 % 0.99 C
1372 21-05-2008 00:00:00 16.93833 C 32.8833 % 0.53 C
1373 22-05-2008 00:00:00 18.32417 C 35.0333 % 2.63 C
1374 23-05-2008 00:00:00 19.045 C 39.5417 % 4.98 C
1375 24-05-2008 00:00:00 18.23 C 50.2500 % 7.72 C
Sensor: Nr:Datum:Temp:Feuchte:Taupunkt:
Aussen-T/F 1376 25-05-2008 00:00:00 21.65462 C 49.3277 % 10.59 C
1377 26-05-2008 00:00:00 21.2775 C 60.5417 % 13.34 C
1378 27-05-2008 00:00:00 22.17167 C 62.5917 % 14.7 C
1379 28-05-2008 00:00:00 23.79417 C 47.5500 % 11.99 C
1380 29-05-2008 00:00:00 23.08917 C 55.5083 % 13.7 C
1381 30-05-2008 00:00:00 20.37 C 75.4333 % 15.88 C
1382 31-05-2008 00:00:00 17.68917 C 79.9333 % 14.18 C
1383 01-06-2008 00:00:00 21.38917 C 62.1000 % 13.84 C
1384 02-06-2008 00:00:00 23.66833 C 59.5583 % 15.33 C
1385 03-06-2008 00:00:00 21.2825 C 59.5833 % 13.1 C
1386 04-06-2008 00:00:00 19.19833 C 69.6500 % 13.52 C
1387 05-06-2008 00:00:00 20.67731 C 69.8992 % 14.99 C
1388 06-06-2008 00:00:00 21.07333 C 59.3167 % 12.84 C
1389 07-06-2008 00:00:00 19.84417 C 61.3833 % 12.2 C
1390 08-06-2008 00:00:00 20.63167 C 58.6667 % 12.26 C
1391 09-06-2008 00:00:00 22.875 C 49.0667 % 11.62 C
1392 10-06-2008 00:00:00 23.51583 C 43.6000 % 10.43 C
1393 11-06-2008 00:00:00 18.4725 C 45.7917 % 6.58 C
1394 12-06-2008 00:00:00 12.7425 C 68.8750 % 7.18 C
1395 13-06-2008 00:00:00 13.67167 C 59.9500 % 6.05 C
1396 14-06-2008 00:00:00 13.75917 C 60.5833 % 6.28 C
1397 15-06-2008 00:00:00 13.75333 C 69.6250 % 8.31 C
1398 16-06-2008 00:00:00 16.2275 C 55.7417 % 7.38 C
1399 17-06-2008 00:00:00 17.34333 C 49.3500 % 6.64 C
1400 18-06-2008 00:00:00 20.30583 C 44.8250 % 7.94 C
Sensor: Nr:Datum:Temp:Feuchte:Taupunkt:
Aussen-T/F 1401 19-06-2008 00:00:00 20.67417 C 44.7833 % 8.26 C
1402 20-06-2008 00:00:00 18.32 C 55.1333 % 9.17 C
1403 21-06-2008 00:00:00 23.24706 C 43.6807 % 10.21 C
1404 22-06-2008 00:00:00 24.30833 C 53.1000 % 14.15 C
1405 23-06-2008 00:00:00 22.40417 C 42.3417 % 8.99 C
1406 24-06-2008 00:00:00 23.6325 C 39.0917 % 8.91 C
1407 25-06-2008 00:00:00 22.66833 C 60.0500 % 14.52 C
1408 26-06-2008 00:00:00 20.39833 C 47.7000 % 8.94 C
1409 27-06-2008 00:00:00 18.72167 C 54.0750 % 9.25 C
1410 28-06-2008 00:00:00 21.21 C 53.5750 % 11.42 C
1411 29-06-2008 00:00:00 22.68667 C 48.7750 % 11.36 C
1412 30-06-2008 00:00:00 22.95083 C 42.5833 % 9.57 C
1413 01-07-2008 00:00:00 24.35583 C 41.4250 % 10.42 C
1414 02-07-2008 00:00:00 26.47583 C 41.5750 % 12.37 C
1415 03-07-2008 00:00:00 20.18992 C 73.0840 % 15.21 C
1416 04-07-2008 00:00:00 19.38083 C 55.3000 % 10.2 C
1417 05-07-2008 00:00:00 21.0575 C 48.2750 % 9.72 C
1418 06-07-2008 00:00:00 21.2225 C 48.4250 % 9.91 C
1419 07-07-2008 00:00:00 18.24917 C 52.1417 % 8.28 C
1420 08-07-2008 00:00:00 17.2125 C 59.3250 % 9.22 C
1421 09-07-2008 00:00:00 17.0525 C 60.8500 % 9.44 C
1422 10-07-2008 00:00:00 22.32833 C 54.4667 % 12.7 C
1423 11-07-2008 00:00:00 20.48167 C 62.8583 % 13.17 C
1424 12-07-2008 00:00:00 17.645 C 65.9833 % 11.22 C
1425 13-07-2008 00:00:00 17.8375 C 52.7167 % 8.06 C
Sensor: Nr:Datum:Temp:Feuchte:Taupunkt:
Aussen-T/F 1426 14-07-2008 00:00:00 18.38 C 49.4000 % 7.6 C
1427 15-07-2008 00:00:00 19.61978 C 49.3407 % 8.72 C
1428 16-07-2008 00:00:00 20.38298 C 61.2128 % 12.67 C
1429 17-07-2008 00:00:00 17.22917 C 60.9375 % 9.63 C
1430 18-07-2008 00:00:00 16.58125 C 69.0208 % 10.88 C
1431 19-07-2008 00:00:00 19.61667 C 58.8333 % 11.35 C
1432 20-07-2008 00:00:00 15.48542 C 69.1250 % 9.86 C
1433 21-07-2008 00:00:00 12.62917 C 75.8542 % 8.49 C
1434 22-07-2008 00:00:00 14.56042 C 75.3125 % 10.25 C
1435 23-07-2008 00:00:00 18.94375 C 58.9167 % 10.74 C
1436 24-07-2008 00:00:00 22.13958 C 47.5833 % 10.49 C
1437 25-07-2008 00:00:00 24.55625 C 42.5625 % 11 C
1438 26-07-2008 00:00:00 23.54792 C 58.5625 % 14.96 C
1439 27-07-2008 00:00:00 23.20625 C 66.9375 % 16.72 C
1440 28-07-2008 00:00:00 25.10833 C 53.7708 % 15.08 C
1441 29-07-2008 00:00:00 24.49792 C 54.0833 % 14.61 C
1442 30-07-2008 00:00:00 23.67292 C 59.6458 % 15.36 C
1443 31-07-2008 00:00:00 24.69792 C 59.1250 % 16.18 C
1444 01-08-2008 00:00:00 24.97917 C 47.0833 % 12.92 C
1445 02-08-2008 00:00:00 21.29792 C 50.6042 % 10.64 C
1446 03-08-2008 00:00:00 23.42561 C 52.0732 % 13.03 C
1447 04-08-2008 00:00:00 21.85083 C 52.0083 % 11.56 C
1448 05-08-2008 00:00:00 20.3125 C 49.5333 % 9.42 C
1449 06-08-2008 00:00:00 24.05417 C 46.8000 % 11.98 C
1450 07-08-2008 00:00:00 24.29583 C 50.2500 % 13.29 C
Sensor: Nr:Datum:Temp:Feuchte:Taupunkt:
Aussen-T/F 1451 08-08-2008 00:00:00 18.50948 C 74.4397 % 13.88 C
1452 09-08-2008 00:00:00 19.32 C 54.5417 % 9.93 C
1453 10-08-2008 00:00:00 20.1 C 54.1583 % 10.55 C
1454 11-08-2008 00:00:00 20.59748 C 52.7731 % 10.62 C
1455 12-08-2008 00:00:00 18.91833 C 77.3000 % 14.86 C
1456 13-08-2008 00:00:00 18.3525 C 55.7250 % 9.35 C
1457 14-08-2008 00:00:00 19.14917 C 47.3583 % 7.69 C
1458 15-08-2008 00:00:00 18.3625 C 52.1583 % 8.39 C
1459 16-08-2008 00:00:00 18.89 C 52.1083 % 8.86 C
1460 17-08-2008 00:00:00 19.10252 C 51.2353 % 8.81 C
1461 18-08-2008 00:00:00 21.21 C 57.7250 % 12.55 C
1462 19-08-2008 00:00:00 20.7925 C 53.4333 % 10.99 C
1463 20-08-2008 00:00:00 18.82 C 58.1333 % 10.42 C
1464 21-08-2008 00:00:00 19.6375 C 53.1167 % 9.83 C
1465 22-08-2008 00:00:00 18.45333 C 70.3250 % 12.96 C
1466 23-08-2008 00:00:00 14.95083 C 71.5750 % 9.86 C
1467 24-08-2008 00:00:00 16.59333 C 61.3833 % 9.14 C
1468 25-08-2008 00:00:00 17.43583 C 73.5750 % 12.67 C
1469 26-08-2008 00:00:00 19.2725 C 61.1500 % 11.61 C
1470 27-08-2008 00:00:00 19.89833 C 61.8250 % 12.36 C
1471 28-08-2008 00:00:00 20.35417 C 53.0917 % 10.49 C
1472 29-08-2008 00:00:00 20.84454 C 53.6639 % 11.1 C
1473 30-08-2008 00:00:00 21.35167 C 58.5333 % 12.89 C
1474 31-08-2008 00:00:00 22.25917 C 53.2500 % 12.3 C
1475 01-09-2008 00:00:00 20.93917 C 56.7667 % 12.04 C
Sensor: Nr:Datum:Temp:Feuchte:Taupunkt:
Aussen-T/F 1476 02-09-2008 00:00:00 19.11333 C 56.7417 % 10.33 C
1477 03-09-2008 00:00:00 15.21083 C 80.2000 % 11.82 C
1478 04-09-2008 00:00:00 13.7025 C 67.0500 % 7.7 C
1479 05-09-2008 00:00:00 16.9775 C 72.6750 % 12.04 C
1480 06-09-2008 00:00:00 17.5625 C 76.0500 % 13.3 C
1481 07-09-2008 00:00:00 16.83583 C 65.1583 % 10.26 C
1482 08-09-2008 00:00:00 17.9741 C 54.9699 % 8.8 C
1483 09-09-2008 00:00:00 18.12014 C 58.4063 % 9.84 C
1484 10-09-2008 00:00:00 21.10243 C 58.1563 % 12.56 C
1485 11-09-2008 00:00:00 19.94479 C 72.7049 % 14.9 C
1486 12-09-2008 00:00:00 16.69236 C 90.9167 % 15.2 C
1487 13-09-2008 00:00:00 12.63937 C 90.7596 % 11.17 C
1488 14-09-2008 00:00:00 11.66215 C 59.3056 % 4 C
1489 15-09-2008 00:00:00 10.27153 C 74.0764 % 5.86 C
1490 16-09-2008 00:00:00 11.32014 C 69.6597 % 5.98 C
1491 17-09-2008 00:00:00 11.34948 C 56.4111 % 3 C
1492 18-09-2008 00:00:00 10.63264 C 54.1493 % 1.76 C
1493 19-09-2008 00:00:00 10.48333 C 63.4132 % 3.84 C
1494 20-09-2008 00:00:00 11.00556 C 62.4722 % 4.12 C
1495 21-09-2008 00:00:00 11.67222 C 66.0313 % 5.55 C
1496 22-09-2008 00:00:00 12.57108 C 68.2648 % 6.89 C
1497 23-09-2008 00:00:00 12.21111 C 77.3160 % 8.36 C
1498 24-09-2008 00:00:00 13.30799 C 80.5972 % 10.05 C
1499 25-09-2008 00:00:00 12.56736 C 70.3333 % 7.32 C
1500 26-09-2008 00:00:00 12.00521 C 66.5035 % 5.97 C
Sensor: Nr:Datum:Temp:Feuchte:Taupunkt:
Aussen-T/F 1501 27-09-2008 00:00:00 11.93693 C 67.3798 % 6.09 C
1502 28-09-2008 00:00:00 11.96493 C 67.7569 % 6.2 C
1503 29-09-2008 00:00:00 11.47396 C 71.0382 % 6.41 C
1504 30-09-2008 00:00:00 10.38611 C 79.6111 % 7.02 C
1505 01-10-2008 00:00:00 13.07222 C 73.9931 % 8.55 C
1506 02-10-2008 00:00:00 10.70244 C 65.2056 % 4.45 C
1507 03-10-2008 00:00:00 8.94063 C 68.8021 % 3.53 C
1508 04-10-2008 00:00:00 9.76632 C 61.1146 % 2.64 C
1509 05-10-2008 00:00:00 11.69062 C 58.3819 % 3.81 C
1510 06-10-2008 00:00:00 14.79306 C 80.2569 % 11.43 C
1511 07-10-2008 00:00:00 15.17875 C 78.9686 % 11.56 C
1512 08-10-2008 00:00:00 13.26389 C 91.9132 % 11.98 C
1513 09-10-2008 00:00:00 13.20937 C 76.8056 % 9.23 C
1514 10-10-2008 00:00:00 13.01806 C 76.3056 % 8.95 C
1515 11-10-2008 00:00:00 13.2125 C 78.3229 % 9.53 C
1516 12-10-2008 00:00:00 15.40729 C 73.6181 % 10.72 C
1517 13-10-2008 00:00:00 14.40976 C 76.5784 % 10.35 C
1518 14-10-2008 00:00:00 15.63438 C 70.1944 % 10.23 C
1519 15-10-2008 00:00:00 13.57361 C 75.5764 % 9.35 C
1520 16-10-2008 00:00:00 11.59444 C 81.1736 % 8.48 C
1521 17-10-2008 00:00:00 8.00313 C 74.4028 % 3.74 C
1522 18-10-2008 00:00:00 7.10488 C 75.9408 % 3.16 C
1523 19-10-2008 00:00:00 8.10521 C 75.0938 % 3.97 C
1524 20-10-2008 00:00:00 9.83646 C 77.4965 % 6.09 C
1525 21-10-2008 00:00:00 13.12986 C 81.4965 % 10.04 C
Sensor: Nr:Datum:Temp:Feuchte:Taupunkt:
Aussen-T/F 1526 22-10-2008 00:00:00 9.36528 C 82.9722 % 6.62 C
1527 23-10-2008 00:00:00 9.2115 C 72.7247 % 4.58 C
1528 24-10-2008 00:00:00 7.4434 C 76.1250 % 3.52 C
1529 25-10-2008 00:00:00 10.48151 C 76.3219 % 6.5 C
1530 26-10-2008 00:00:00 10.725 C 66.5333 % 4.76 C
1531 27-10-2008 00:00:00 10.21724 C 83.8103 % 7.6 C
1532 28-10-2008 00:00:00 6.92456 C 81.5439 % 3.99 C
1533 29-10-2008 00:00:00 5.45 C 80.3621 % 2.35 C
1534 30-10-2008 00:00:00 4.78947 C 89.5789 % 3.23 C
1535 31-10-2008 00:00:00 5.97414 C 87.4310 % 4.05 C
1536 01-11-2008 00:00:00 7.97414 C 86.6897 % 5.9 C
1537 02-11-2008 00:00:00 9.98772 C 83.7018 % 7.36 C
1538 03-11-2008 00:00:00 9.82241 C 84.2586 % 7.3 C
1539 04-11-2008 00:00:00 9.00351 C 88.7193 % 7.24 C
1540 05-11-2008 00:00:00 9.79828 C 82.7759 % 7.01 C
1541 06-11-2008 00:00:00 10.54483 C 75.7241 % 6.45 C
1542 07-11-2008 00:00:00 10.79123 C 73.0526 % 6.16 C
1543 08-11-2008 00:00:00 8.24828 C 80.5690 % 5.11 C
1544 09-11-2008 00:00:00 8.89583 C 83.4250 % 6.24 C
1545 10-11-2008 00:00:00 13.98833 C 65.6333 % 7.66 C
1546 11-11-2008 00:00:00 12.73917 C 57.8750 % 4.67 C
1547 12-11-2008 00:00:00 8.5175 C 76.7417 % 4.68 C
1548 13-11-2008 00:00:00 6.40667 C 81.3417 % 3.45 C
1549 14-11-2008 00:00:00 5.60833 C 77.3667 % 1.97 C
1550 15-11-2008 00:00:00 9.82083 C 75.7750 % 5.76 C
Sensor: Nr:Datum:Temp:Feuchte:Taupunkt:
Aussen-T/F 1551 16-11-2008 00:00:00 9.9375 C 83.6167 % 7.3 C
1552 17-11-2008 00:00:00 4.03167 C 85.6500 % 1.85 C
1553 18-11-2008 00:00:00 4.76417 C 83.5917 % 2.23 C
1554 19-11-2008 00:00:00 7.7775 C 74.7250 % 3.58 C
1555 20-11-2008 00:00:00 9.54 C 72.1083 % 4.77 C
1556 21-11-2008 00:00:00 5.21083 C 75.7083 % 1.28 C
1557 22-11-2008 00:00:00 1.08571 C 72.9328 % -3.21 C
1558 23-11-2008 00:00:00 0.81333 C 80.2500 % -2.19 C
1559 24-11-2008 00:00:00 1.92667 C 84.5083 % -0.4 C
1560 25-11-2008 00:00:00 0.79667 C 88.1250 % -0.94 C
1561 26-11-2008 00:00:00 2.38333 C 86.0750 % 0.3 C
1562 27-11-2008 00:00:00 3.435 C 74.8000 % -0.6 C
1563 28-11-2008 00:00:00 0.47667 C 75.5917 % -3.32 C
1564 29-11-2008 00:00:00 0.98 C 79.6833 % -2.13 C
1565 30-11-2008 00:00:00 1.12 C 90.1583 % -0.31 C
1566 01-12-2008 00:00:00 0.30417 C 91.8167 % -0.87 C
1567 02-12-2008 00:00:00 2.80917 C 84.7583 % 0.51 C
1568 03-12-2008 00:00:00 1.785 C 89.7417 % 0.28 C
1569 04-12-2008 00:00:00 1.92353 C 91.2689 % 0.65 C
1570 05-12-2008 00:00:00 5.36 C 86.4250 % 3.28 C
1571 06-12-2008 00:00:00 4.73 C 88.2917 % 2.96 C
1572 07-12-2008 00:00:00 3.85333 C 91.7750 % 2.64 C
1573 08-12-2008 00:00:00 0.26917 C 92.6917 % -0.77 C
1574 09-12-2008 00:00:00 0.56667 C 86.5667 % -1.41 C
1575 10-12-2008 00:00:00 1.97667 C 93.1250 % 0.99 C
Sensor: Nr:Datum:Temp:Feuchte:Taupunkt:
Aussen-T/F 1576 11-12-2008 00:00:00 1.4775 C 84.6750 % -0.81 C
1577 12-12-2008 00:00:00 -0.23583 C 79.6833 % -3.31 C
1578 13-12-2008 00:00:00 -0.26167 C 74.8500 % -4.17 C
1579 14-12-2008 00:00:00 0.28083 C 85.7917 % -1.81 C
1580 15-12-2008 00:00:00 -0.1075 C 94.2750 % -0.91 C
1581 16-12-2008 00:00:00 0.42521 C 91.9328 % -0.73 C
1582 17-12-2008 00:00:00 -0.0375 C 89.1000 % -1.61 C
1583 18-12-2008 00:00:00 2.15083 C 89.2667 % 0.57 C
1584 19-12-2008 00:00:00 4.22333 C 81.0000 % 1.26 C
1585 20-12-2008 00:00:00 6.45667 C 86.6583 % 4.4 C
1586 21-12-2008 00:00:00 7.94917 C 82.6583 % 5.19 C
1587 22-12-2008 00:00:00 8.47167 C 78.5667 % 4.97 C
1588 23-12-2008 00:00:00 6.21417 C 79.6333 % 2.96 C
1589 24-12-2008 00:00:00 4.55833 C 85.2000 % 2.29 C
1590 25-12-2008 00:00:00 4.40252 C 69.7815 % -0.62 C
1591 26-12-2008 00:00:00 -1.1875 C 58.2917 % -8.32 C
1592 27-12-2008 00:00:00 -1.85667 C 60.0583 % -8.57 C
1593 28-12-2008 00:00:00 -3.02917 C 64.5667 % -8.75 C
1594 29-12-2008 00:00:00 -5.49833 C 79.2667 % -8.51 C
1595 30-12-2008 00:00:00 -6.21833 C 81.1167 % -8.92 C
1596 31-12-2008 00:00:00 -4.32583 C 81.8000 % -6.96 C
1597 01-01-2009 00:00:00 -3.46417 C 77.9083 % -6.75 C
1598 02-01-2009 00:00:00 -2.03917 C 80.6500 % -4.91 C
1599 03-01-2009 00:00:00 -3.57 C 78.4417 % -6.77 C
1600 04-01-2009 00:00:00 -1.06833 C 65.8500 % -6.63 C
Sensor: Nr:Datum:Temp:Feuchte:Taupunkt:
Aussen-T/F 1601 05-01-2009 00:00:00 -1.23866 C 73.6639 % -5.33 C
1602 06-01-2009 00:00:00 -6.97 C 42.8583 % -17.47 C
1603 07-01-2009 00:00:00 -10.99167 C 63.6167 % -16.52 C
1604 08-01-2009 00:00:00 -6.02083 C 71.7750 % -10.28 C
1605 09-01-2009 00:00:00 -11.165 C 71.4000 % -15.3 C
1606 10-01-2009 00:00:00 -11.3175 C 71.8000 % -15.38 C
1607 11-01-2009 00:00:00 -8.9975 C 75.6250 % -12.5 C
1608 12-01-2009 00:00:00 -7.30417 C 74.5667 % -11.04 C
1609 13-01-2009 00:00:00 -0.17833 C 68.6583 % -5.23 C
1610 14-01-2009 00:00:00 -0.15917 C 84.5417 % -2.44 C
1611 15-01-2009 00:00:00 0.77417 C 83.7250 % -1.66 C
1612 16-01-2009 00:00:00 0.69833 C 76.7917 % -2.9 C
1613 17-01-2009 00:00:00 2.97833 C 82.4917 % 0.3 C
1614 18-01-2009 00:00:00 4.50924 C 77.6134 % 0.95 C
1615 19-01-2009 00:00:00 5.4575 C 74.3750 % 1.27 C
1616 20-01-2009 00:00:00 3.6475 C 67.4583 % -1.8 C
1617 21-01-2009 00:00:00 0.32 C 82.9000 % -2.24 C
1618 22-01-2009 00:00:00 2.825 C 68.4250 % -2.4 C
1619 23-01-2009 00:00:00 4.345 C 81.3083 % 1.43 C
1620 24-01-2009 00:00:00 3.13 C 71.4583 % -1.52 C
1621 25-01-2009 00:00:00 0.15167 C 83.3750 % -2.32 C
1622 26-01-2009 00:00:00 -2.16917 C 88.5583 % -3.8 C
1623 27-01-2009 00:00:00 -0.93167 C 86.5917 % -2.88 C
1624 28-01-2009 00:00:00 0.50833 C 80.0250 % -2.53 C
1625 29-01-2009 00:00:00 1.15667 C 59.5000 % -5.84 C
Sensor: Nr:Datum:Temp:Feuchte:Taupunkt:
Aussen-T/F 1626 30-01-2009 00:00:00 -1.50917 C 70.1917 % -6.22 C
1627 31-01-2009 00:00:00 0.06303 C 53.3109 % -8.28 C
1628 01-02-2009 00:00:00 -0.11167 C 46.5667 % -10.18 C
1629 02-02-2009 00:00:00 1.085 C 54.3250 % -7.09 C
1630 03-02-2009 00:00:00 0.63833 C 75.1583 % -3.24 C
1631 04-02-2009 00:00:00 3.0025 C 77.5667 % -0.52 C
1632 05-02-2009 00:00:00 3.2325 C 77.6917 % -0.28 C
1633 06-02-2009 00:00:00 4.3 C 77.6083 % 0.74 C
1634 07-02-2009 00:00:00 4.03417 C 82.7167 % 1.37 C
1635 08-02-2009 00:00:00 2.6525 C 56.8750 % -5.02 C
1636 09-02-2009 00:00:00 2.3775 C 66.4917 % -3.21 C
1637 10-02-2009 00:00:00 4.155 C 80.4667 % 1.1 C
1638 11-02-2009 00:00:00 2.90333 C 61.2250 % -3.81 C
1639 12-02-2009 00:00:00 0.68908 C 76.7059 % -2.92 C
1640 13-02-2009 00:00:00 0.51333 C 80.7750 % -2.4 C
1641 14-02-2009 00:00:00 0.46083 C 68.2667 % -4.69 C
1642 15-02-2009 00:00:00 -1.63583 C 65.2583 % -7.29 C
1643 16-02-2009 00:00:00 1.96417 C 84.4833 % -0.37 C
1644 17-02-2009 00:00:00 3.77167 C 81.8500 % 0.96 C
1645 18-02-2009 00:00:00 -1.62667 C 55.2583 % -9.41 C
1646 19-02-2009 00:00:00 1.01417 C 51.9417 % -7.73 C
1647 20-02-2009 00:00:00 3.41917 C 81.8667 % 0.62 C
1648 21-02-2009 00:00:00 4.72083 C 73.0250 % 0.31 C
1649 22-02-2009 00:00:00 5.24667 C 83.4417 % 2.68 C
1650 23-02-2009 00:00:00 5.50083 C 67.2583 % -0.07 C
Sensor: Nr:Datum:Temp:Feuchte:Taupunkt:
Aussen-T/F 1651 24-02-2009 00:00:00 4.8325 C 61.0583 % -2.03 C
1652 25-02-2009 00:00:00 3.34286 C 65.7731 % -2.44 C
1653 26-02-2009 00:00:00 6.73 C 56.4333 % -1.31 C
1654 27-02-2009 00:00:00 7.10417 C 70.5083 % 2.11 C
1655 28-02-2009 00:00:00 10.0375 C 62.5667 % 3.23 C
1656 01-03-2009 00:00:00 9.95 C 61.5333 % 2.91 C
1657 02-03-2009 00:00:00 7.98 C 70.8667 % 3.03 C
1658 03-03-2009 00:00:00 5.05583 C 57.7750 % -2.56 C
1659 04-03-2009 00:00:00 7.27917 C 50.1417 % -2.4 C
1660 05-03-2009 00:00:00 4.42917 C 81.7833 % 1.6 C
1661 06-03-2009 00:00:00 3.82417 C 85.1833 % 1.57 C
1662 07-03-2009 00:00:00 5.72167 C 54.0000 % -2.85 C
1663 08-03-2009 00:00:00 7.50833 C 68.5583 % 2.11 C
1664 09-03-2009 00:00:00 5.1521 C 60.8067 % -1.78 C
1665 10-03-2009 00:00:00 5.4275 C 68.9500 % 0.2 C
1666 11-03-2009 00:00:00 5.60417 C 61.5750 % -1.18 C
1667 12-03-2009 00:00:00 5.67083 C 72.2250 % 1.07 C
1668 13-03-2009 00:00:00 8.68167 C 65.2333 % 2.53 C
1669 14-03-2009 00:00:00 8.925 C 64.7833 % 2.67 C
1670 15-03-2009 00:00:00 9.41667 C 54.2417 % 0.65 C
1671 16-03-2009 00:00:00 8.23417 C 69.4750 % 2.99 C
1672 17-03-2009 00:00:00 7.73833 C 63.3083 % 1.22 C
1673 18-03-2009 00:00:00 5.82417 C 54.7250 % -2.57 C
1674 19-03-2009 00:00:00 5.41917 C 43.4667 % -6 C
1675 20-03-2009 00:00:00 4.59917 C 40.6417 % -7.61 C
Sensor: Nr:Datum:Temp:Feuchte:Taupunkt:
Aussen-T/F 1676 21-03-2009 00:00:00 5.07 C 41.1250 % -7.03 C
1677 22-03-2009 00:00:00 5.16639 C 55.2269 % -3.06 C
1678 23-03-2009 00:00:00 7.82917 C 60.0417 % 0.57 C
1679 24-03-2009 00:00:00 3.67333 C 68.1250 % -1.65 C
1680 25-03-2009 00:00:00 3.18417 C 77.9833 % -0.27 C
1681 26-03-2009 00:00:00 6.40083 C 73.5750 % 2.03 C
1682 27-03-2009 00:00:00 7.28333 C 67.2667 % 1.63 C
1683 28-03-2009 00:00:00 6.97583 C 69.7250 % 1.84 C
1684 29-03-2009 00:00:00 6.18435 C 67.4957 % 0.63 C
1685 30-03-2009 00:00:00 6.41833 C 64.1417 % 0.15 C
1686 31-03-2009 00:00:00 8.3325 C 53.1833 % -0.62 C
1687 01-04-2009 00:00:00 10.89833 C 45.9750 % -0.26 C
1688 02-04-2009 00:00:00 15.335 C 39.5667 % 1.68 C
1689 03-04-2009 00:00:00 15.87143 C 49.6639 % 5.38 C
1690 04-04-2009 00:00:00 16.68333 C 51.5667 % 6.67 C
1691 05-04-2009 00:00:00 14.9675 C 54.1167 % 5.78 C
1692 06-04-2009 00:00:00 14.72833 C 55.3167 % 5.87 C
1693 07-04-2009 00:00:00 14.57333 C 59.3250 % 6.74 C
1694 08-04-2009 00:00:00 14.20167 C 49.7000 % 3.85 C
1695 09-04-2009 00:00:00 16.28067 C 54.0420 % 6.98 C
1696 10-04-2009 00:00:00 18.55372 C 46.9669 % 7.03 C
1697 11-04-2009 00:00:00 17.3525 C 49.3083 % 6.63 C
1698 12-04-2009 00:00:00 16.79 C 58.7167 % 8.67 C
1699 13-04-2009 00:00:00 15.65167 C 69.0750 % 10 C
1700 14-04-2009 00:00:00 16.16167 C 60.1167 % 8.43 C
Sensor: Nr:Datum:Temp:Feuchte:Taupunkt:
Aussen-T/F 1701 15-04-2009 00:00:00 16.94202 C 48.6218 % 6.06 C
1702 16-04-2009 00:00:00 14.94583 C 53.1417 % 5.5 C
1703 17-04-2009 00:00:00 10.0825 C 92.0333 % 8.85 C
1704 18-04-2009 00:00:00 9.84 C 91.7417 % 8.56 C
1705 19-04-2009 00:00:00 14.95667 C 59.5000 % 7.14 C
1706 20-04-2009 00:00:00 15.16917 C 55.7917 % 6.41 C
1707 21-04-2009 00:00:00 15.74583 C 47.3250 % 4.57 C
1708 22-04-2009 00:00:00 13.68833 C 46.2833 % 2.38 C
1709 23-04-2009 00:00:00 11.645 C 49.5000 % 1.45 C
1710 24-04-2009 00:00:00 14.11333 C 49.0667 % 3.59 C
1711 25-04-2009 00:00:00 14.64833 C 57.0583 % 6.25 C
1712 26-04-2009 00:00:00 18.35 C 52.2083 % 8.39 C
1713 27-04-2009 00:00:00 14.89496 C 57.0756 % 6.48 C
1714 28-04-2009 00:00:00 11.07833 C 79.6417 % 7.7 C
1715 29-04-2009 00:00:00 11.9025 C 67.4083 % 6.07 C
1716 30-04-2009 00:00:00 12.85833 C 66.9667 % 6.88 C
1717 01-05-2009 00:00:00 16.25583 C 58.4500 % 8.1 C
1718 02-05-2009 00:00:00 17.60167 C 51.3167 % 7.45 C
1719 03-05-2009 00:00:00 14.58333 C 56.9750 % 6.16 C
1720 04-05-2009 00:00:00 11.88333 C 42.8250 % -0.34 C
1721 05-05-2009 00:00:00 10.50917 C 68.7917 % 5.03 C
1722 06-05-2009 00:00:00 13.85625 C 60.5982 % 6.38 C
1723 07-05-2009 00:00:00 16.47708 C 53.0208 % 6.88 C
1724 08-05-2009 00:00:00 16.58021 C 59.9688 % 8.78 C
1725 09-05-2009 00:00:00 14.3875 C 64.8854 % 7.87 C
Sensor: Nr:Datum:Temp:Feuchte:Taupunkt:
Aussen-T/F 1726 10-05-2009 00:00:00 17.72083 C 64.3750 % 10.92 C
1727 11-05-2009 00:00:00 13.57188 C 94.1667 % 12.65 C
1728 12-05-2009 00:00:00 11.83333 C 86.9688 % 9.74 C
1729 13-05-2009 00:00:00 15.51771 C 67.7396 % 9.59 C
1730 14-05-2009 00:00:00 16.00104 C 69.2708 % 10.38 C
1731 15-05-2009 00:00:00 15.12255 C 80.0294 % 11.71 C
1732 16-05-2009 00:00:00 13.80333 C 61.9667 % 6.65 C
1733 17-05-2009 00:00:00 17.02083 C 54.6583 % 7.83 C
1734 18-05-2009 00:00:00 16.95083 C 45.9833 % 5.26 C
1735 19-05-2009 00:00:00 16.49333 C 55.9500 % 7.68 C
1736 20-05-2009 00:00:00 18.70167 C 59.6583 % 10.7 C
1737 21-05-2009 00:00:00 19.21167 C 64.9917 % 12.47 C
1738 22-05-2009 00:00:00 17.97917 C 48.5500 % 6.98 C
1739 23-05-2009 00:00:00 18.72083 C 46.1750 % 6.93 C
1740 24-05-2009 00:00:00 22.53417 C 45.4500 % 10.16 C
1741 25-05-2009 00:00:00 23.49833 C 50.1500 % 12.53 C
1742 26-05-2009 00:00:00 19.86583 C 58.1250 % 11.4 C
1743 27-05-2009 00:00:00 14.4425 C 49.8833 % 4.13 C
1744 28-05-2009 00:00:00 15.5325 C 61.9750 % 8.28 C
1745 29-05-2009 00:00:00 17.81765 C 44.4874 % 5.57 C
1746 30-05-2009 00:00:00 18.43417 C 40.9083 % 4.92 C
1747 31-05-2009 00:00:00 20.3075 C 42.9000 % 7.3 C
1748 01-06-2009 00:00:00 19.37167 C 54.6583 % 10.01 C
1749 02-06-2009 00:00:00 19.91917 C 47.4333 % 8.42 C
1750 03-06-2009 00:00:00 16.3775 C 38.0667 % 2.07 C
Sensor: Nr:Datum:Temp:Feuchte:Taupunkt:
Aussen-T/F 1751 04-06-2009 00:00:00 13.435 C 39.4250 % -0.07 C
1752 05-06-2009 00:00:00 13.4075 C 42.9917 % 1.1 C
1753 06-06-2009 00:00:00 9.18333 C 83.0333 % 6.46 C
1754 07-06-2009 00:00:00 13.71083 C 71.1667 % 8.59 C
1755 08-06-2009 00:00:00 16.58667 C 52.2917 % 6.78 C
1756 09-06-2009 00:00:00 17.9275 C 61.2917 % 10.38 C
1757 10-06-2009 00:00:00 17.24454 C 61.2017 % 9.71 C
1758 11-06-2009 00:00:00 14.60417 C 73.9917 % 10.02 C
1759 12-06-2009 00:00:00 15.915 C 53.7417 % 6.56 C
1760 13-06-2009 00:00:00 18.29417 C 48.8833 % 7.37 C
1761 14-06-2009 00:00:00 20.3875 C 57.6667 % 11.77 C
1762 15-06-2009 00:00:00 16.76083 C 89.1000 % 14.96 C
1763 16-06-2009 00:00:00 16.58083 C 68.6500 % 10.8 C
1764 17-06-2009 00:00:00 19.89 C 54.6000 % 10.48 C
1765 18-06-2009 00:00:00 19.45417 C 61.5583 % 11.88 C
1766 19-06-2009 00:00:00 18.45583 C 50.4250 % 7.98 C
1767 20-06-2009 00:00:00 13.84583 C 66.0250 % 7.61 C
1768 21-06-2009 00:00:00 13.40167 C 74.0583 % 8.88 C
1769 22-06-2009 00:00:00 15.23697 C 58.5546 % 7.17 C
1770 23-06-2009 00:00:00 18.58583 C 49.8333 % 7.92 C
1771 24-06-2009 00:00:00 22.29167 C 39.7583 % 7.96 C
1772 25-06-2009 00:00:00 24.10583 C 44.1750 % 11.16 C
1773 26-06-2009 00:00:00 24.31083 C 48.3250 % 12.7 C
1774 27-06-2009 00:00:00 22.1625 C 64.0333 % 15.04 C
1775 28-06-2009 00:00:00 25.04417 C 51.0333 % 14.21 C
Sensor: Nr:Datum:Temp:Feuchte:Taupunkt:
Aussen-T/F 1776 29-06-2009 00:00:00 24.71583 C 52.9667 % 14.49 C
1777 30-06-2009 00:00:00 22.55083 C 69.7750 % 16.75 C
1778 01-07-2009 00:00:00 23.6175 C 64.4750 % 16.52 C
1779 02-07-2009 00:00:00 25.95917 C 52.9750 % 15.64 C
1780 03-07-2009 00:00:00 23.36083 C 65.3750 % 16.5 C
1781 04-07-2009 00:00:00 24.17479 C 53.8235 % 14.23 C
1782 05-07-2009 00:00:00 23.89917 C 51.1667 % 13.2 C
1783 06-07-2009 00:00:00 21.82333 C 62.3417 % 14.31 C
1784 07-07-2009 00:00:00 18.7625 C 62.9417 % 11.56 C
1785 08-07-2009 00:00:00 16.39 C 68.9083 % 10.67 C
1786 09-07-2009 00:00:00 16.38583 C 61.5333 % 8.98 C
1787 10-07-2009 00:00:00 15.17083 C 60.0083 % 7.47 C
1788 11-07-2009 00:00:00 17.55667 C 54.8167 % 8.37 C
1789 12-07-2009 00:00:00 19.3525 C 63.5500 % 12.27 C
1790 13-07-2009 00:00:00 21.76917 C 63.8667 % 14.63 C
1791 14-07-2009 00:00:00 23.4 C 64.0083 % 16.2 C
1792 15-07-2009 00:00:00 24.0475 C 46.7750 % 11.97 C
1793 16-07-2009 00:00:00 23.37479 C 47.5378 % 11.6 C
1794 17-07-2009 00:00:00 20.90917 C 53.6583 % 11.16 C
1795 18-07-2009 00:00:00 17.575 C 56.4917 % 8.83 C
1796 19-07-2009 00:00:00 17.92167 C 56.9833 % 9.28 C
1797 20-07-2009 00:00:00 19.82583 C 46.0000 % 7.88 C
1798 21-07-2009 00:00:00 23.22833 C 52.9833 % 13.12 C
1799 22-07-2009 00:00:00 25.10583 C 51.8333 % 14.51 C
1800 23-07-2009 00:00:00 22.65417 C 61.1000 % 14.78 C
Sensor: Nr:Datum:Temp:Feuchte:Taupunkt:
Aussen-T/F 1801 24-07-2009 00:00:00 20.33167 C 56.1333 % 11.31 C
1802 25-07-2009 00:00:00 18.03083 C 59.8667 % 10.12 C
1803 26-07-2009 00:00:00 19.94833 C 56.6000 % 11.07 C
1804 27-07-2009 00:00:00 20.60667 C 58.0750 % 12.08 C
1805 28-07-2009 00:00:00 20.41513 C 47.8992 % 9.01 C
1806 29-07-2009 00:00:00 21.77833 C 48.0167 % 10.29 C
1807 30-07-2009 00:00:00 21.10583 C 47.3083 % 9.46 C
1808 31-07-2009 00:00:00 20.32583 C 42.6417 % 7.22 C
1809 01-08-2009 00:00:00 22.455 C 43.5250 % 9.45 C
1810 02-08-2009 00:00:00 20.47167 C 61.4417 % 12.81 C
1811 03-08-2009 00:00:00 19.3075 C 57.0000 % 10.58 C
1812 04-08-2009 00:00:00 20.48917 C 50.3583 % 9.82 C
1813 05-08-2009 00:00:00 22.0275 C 42.0333 % 8.54 C
1814 06-08-2009 00:00:00 24.19667 C 43.2167 % 10.91 C
1815 07-08-2009 00:00:00 25.2075 C 43.4333 % 11.9 C
1816 08-08-2009 00:00:00 21.22583 C 66.1417 % 14.66 C
1817 09-08-2009 00:00:00 22.82101 C 59.6975 % 14.57 C
1818 10-08-2009 00:00:00 21.7025 C 61.8167 % 14.06 C
1819 11-08-2009 00:00:00 20.44 C 65.4917 % 13.76 C
1820 12-08-2009 00:00:00 20.9725 C 61.3833 % 13.27 C
1821 13-08-2009 00:00:00 18.55917 C 80.7583 % 15.19 C
1822 14-08-2009 00:00:00 19.44083 C 64.8500 % 12.66 C
1823 15-08-2009 00:00:00 21.37917 C 56.0917 % 12.27 C
1824 16-08-2009 00:00:00 23.84583 C 51.0000 % 13.1 C
1825 17-08-2009 00:00:00 23.615 C 52.9250 % 13.46 C
Sensor: Nr:Datum:Temp:Feuchte:Taupunkt:
Aussen-T/F 1826 18-08-2009 00:00:00 22.105 C 48.4000 % 10.71 C
1827 19-08-2009 00:00:00 23.76 C 47.2250 % 11.85 C
1828 20-08-2009 00:00:00 26.03167 C 46.7167 % 13.75 C
1829 21-08-2009 00:00:00 20.32185 C 60.7227 % 12.49 C
1830 22-08-2009 00:00:00 19.745 C 53.6417 % 10.08 C
1831 23-08-2009 00:00:00 20.0375 C 48.0000 % 8.7 C
1832 24-08-2009 00:00:00 22.19667 C 47.2333 % 10.43 C
1833 25-08-2009 00:00:00 23.11917 C 51.5583 % 12.6 C
1834 26-08-2009 00:00:00 21.68417 C 51.2750 % 11.19 C
1835 27-08-2009 00:00:00 23.10167 C 50.6833 % 12.32 C
1836 28-08-2009 00:00:00 21.60583 C 44.5167 % 9.01 C
1837 29-08-2009 00:00:00 16.21167 C 47.9917 % 5.2 C
1838 30-08-2009 00:00:00 16.655 C 48.9833 % 5.9 C
1839 31-08-2009 00:00:00 19.54667 C 45.1583 % 7.36 C
1840 01-09-2009 00:00:00 19.93167 C 59.1917 % 11.73 C
1841 02-09-2009 00:00:00 18.765 C 58.3500 % 10.43 C
1842 03-09-2009 00:00:00 17.39328 C 58.5546 % 9.19 C
1843 04-09-2009 00:00:00 14.56333 C 65.8333 % 8.25 C
1844 05-09-2009 00:00:00 15.10833 C 58.8417 % 7.12 C
1845 06-09-2009 00:00:00 14.74583 C 65.4917 % 8.35 C
1846 07-09-2009 00:00:00 17.63417 C 59.2667 % 9.6 C
1847 08-09-2009 00:00:00 19.88167 C 55.6000 % 10.74 C
1848 09-09-2009 00:00:00 19.7475 C 55.6250 % 10.63 C
1849 10-09-2009 00:00:00 18.43917 C 65.5417 % 11.87 C
1850 11-09-2009 00:00:00 17.6725 C 48.9250 % 6.81 C
Sensor: Nr:Datum:Temp:Feuchte:Taupunkt:
Aussen-T/F 1851 12-09-2009 00:00:00 16.99083 C 50.4917 % 6.65 C
1852 13-09-2009 00:00:00 14.23 C 70.4250 % 8.93 C
1853 14-09-2009 00:00:00 12.17417 C 93.7250 % 11.19 C
1854 15-09-2009 00:00:00 13.7563 C 90.4790 % 12.23 C
1855 16-09-2009 00:00:00 16.725 C 80.7417 % 13.4 C
1856 17-09-2009 00:00:00 18.47583 C 63.0583 % 11.32 C
1857 18-09-2009 00:00:00 18.26083 C 63.1333 % 11.14 C
1858 19-09-2009 00:00:00 20.78583 C 61.2500 % 13.06 C
1859 20-09-2009 00:00:00 19.92833 C 69.1167 % 14.1 C
1860 21-09-2009 00:00:00 18.85833 C 66.5250 % 12.49 C
1861 22-09-2009 00:00:00 17.215 C 64.9583 % 10.57 C
1862 23-09-2009 00:00:00 17.4225 C 65.4750 % 10.89 C
1863 24-09-2009 00:00:00 17.19 C 71.3833 % 11.97 C
1864 25-09-2009 00:00:00 15.16083 C 67.2333 % 9.13 C
1865 26-09-2009 00:00:00 14.56333 C 65.6083 % 8.2 C
1866 27-09-2009 00:00:00 14.64 C 65.5500 % 8.26 C
1867 28-09-2009 00:00:00 14.21583 C 69.3333 % 8.69 C
1868 29-09-2009 00:00:00 15.88319 C 64.1513 % 9.12 C
1869 30-09-2009 00:00:00 16.535 C 70.9500 % 11.25 C
1870 01-10-2009 00:00:00 14.71583 C 70.4750 % 9.41 C
1871 02-10-2009 00:00:00 11.32167 C 64.4833 % 4.88 C
1872 03-10-2009 00:00:00 11.72333 C 64.5500 % 5.27 C
1873 04-10-2009 00:00:00 13.54167 C 67.7083 % 7.69 C
1874 05-10-2009 00:00:00 12.4075 C 91.3500 % 11.04 C
1875 06-10-2009 00:00:00 16.13417 C 87.9333 % 14.13 C
Sensor: Nr:Datum:Temp:Feuchte:Taupunkt:
Aussen-T/F 1876 07-10-2009 00:00:00 19.57083 C 76.5667 % 15.34 C
1877 08-10-2009 00:00:00 16.41167 C 71.5083 % 11.25 C
1878 09-10-2009 00:00:00 11.88417 C 71.4583 % 6.89 C
1879 10-10-2009 00:00:00 13.34667 C 83.3667 % 10.59 C
1880 11-10-2009 00:00:00 12.35042 C 81.0420 % 9.19 C
1881 12-10-2009 00:00:00 10.9275 C 64.5583 % 4.52 C
1882 13-10-2009 00:00:00 9.24333 C 70.8833 % 4.24 C
1883 14-10-2009 00:00:00 4.27333 C 67.6167 % -1.17 C
1884 15-10-2009 00:00:00 3.45583 C 68.1750 % -1.84 C
1885 16-10-2009 00:00:00 6.41083 C 77.8417 % 2.83 C
1886 17-10-2009 00:00:00 8.52083 C 65.8417 % 2.51 C
1887 18-10-2009 00:00:00 7.3775 C 67.8000 % 1.83 C
1888 19-10-2009 00:00:00 4.59 C 71.1667 % -0.17 C
1889 20-10-2009 00:00:00 5.17083 C 70.1250 % 0.18 C
1890 21-10-2009 00:00:00 8.07333 C 60.4667 % 0.9 C
1891 22-10-2009 00:00:00 9.4 C 65.3833 % 3.25 C
1892 23-10-2009 00:00:00 8.34 C 83.1083 % 5.65 C
1893 24-10-2009 00:00:00 10.5084 C 80.4958 % 7.3 C
1894 25-10-2009 00:00:00 12.6096 C 75.8400 % 8.46 C
1895 26-10-2009 00:00:00 11.8875 C 71.4000 % 6.89 C
1896 27-10-2009 00:00:00 11.82417 C 72.3750 % 7.02 C
1897 28-10-2009 00:00:00 8.37917 C 83.3000 % 5.72 C
1898 29-10-2009 00:00:00 8.69333 C 86.5333 % 6.58 C
1899 30-10-2009 00:00:00 10.54083 C 78.0750 % 6.89 C
1900 31-10-2009 00:00:00 7.03083 C 74.9917 % 2.91 C
Sensor: Nr:Datum:Temp:Feuchte:Taupunkt:
Aussen-T/F 1901 01-11-2009 00:00:00 9.17333 C 75.6500 % 5.1 C
1902 02-11-2009 00:00:00 10.32333 C 86.4250 % 8.16 C
1903 03-11-2009 00:00:00 8.06167 C 74.6333 % 3.84 C
1904 04-11-2009 00:00:00 8.75 C 80.8000 % 5.64 C
1905 05-11-2009 00:00:00 9.29748 C 68.9916 % 3.91 C
1906 06-11-2009 00:00:00 9.43333 C 69.3000 % 4.1 C
1907 07-11-2009 00:00:00 8.11583 C 71.3500 % 3.25 C
1908 08-11-2009 00:00:00 6.9 C 82.2833 % 4.09 C
1909 09-11-2009 00:00:00 6.21167 C 85.0833 % 3.9 C
1910 10-11-2009 00:00:00 6.03 C 93.3833 % 5.04 C
1911 11-11-2009 00:00:00 6.2525 C 83.7333 % 3.71 C
1912 12-11-2009 00:00:00 4.66 C 91.2500 % 3.36 C
1913 13-11-2009 00:00:00 11.27583 C 81.1833 % 8.17 C
1914 14-11-2009 00:00:00 11.7125 C 75.2250 % 7.48 C
1915 15-11-2009 00:00:00 11.2125 C 67.9167 % 5.52 C
1916 16-11-2009 00:00:00 10.92667 C 85.6250 % 8.61 C
1917 17-11-2009 00:00:00 10.88235 C 85.3697 % 8.53 C
1918 18-11-2009 00:00:00 10.245 C 65.3583 % 4.04 C
1919 19-11-2009 00:00:00 9.77667 C 70.9667 % 4.77 C
1920 20-11-2009 00:00:00 7.87917 C 83.2417 % 5.22 C
1921 21-11-2009 00:00:00 11.67333 C 74.7417 % 7.35 C
1922 22-11-2009 00:00:00 11.84167 C 61.4167 % 4.67 C
1923 23-11-2009 00:00:00 10.33417 C 72.1583 % 5.55 C
1924 24-11-2009 00:00:00 11.89833 C 68.9917 % 6.4 C
1925 25-11-2009 00:00:00 12.0875 C 59.3750 % 4.42 C
Sensor: Nr:Datum:Temp:Feuchte:Taupunkt:
Aussen-T/F 1926 26-11-2009 00:00:00 9.98917 C 60.9833 % 2.82 C
1927 27-11-2009 00:00:00 9.0425 C 63.1500 % 2.42 C
1928 28-11-2009 00:00:00 8.79 C 68.4583 % 3.31 C
1929 29-11-2009 00:00:00 9.41597 C 67.3361 % 3.68 C
1930 30-11-2009 00:00:00 6.46 C 84.5500 % 4.05 C
1931 01-12-2009 00:00:00 5.65583 C 83.5583 % 3.1 C
1932 02-12-2009 00:00:00 5.96 C 72.1333 % 1.33 C
1933 03-12-2009 00:00:00 8.53667 C 70.9333 % 3.57 C
1934 04-12-2009 00:00:00 4.73917 C 65.4500 % -1.17 C
1935 05-12-2009 00:00:00 5.3975 C 73.5583 % 1.06 C
1936 06-12-2009 00:00:00 9.83 C 80.9583 % 6.72 C
1937 07-12-2009 00:00:00 5.59917 C 85.0833 % 3.3 C
1938 08-12-2009 00:00:00 6.95833 C 81.1250 % 3.95 C
1939 09-12-2009 00:00:00 7.2525 C 78.5917 % 3.79 C
1940 10-12-2009 00:00:00 8.78583 C 80.4000 % 5.6 C
1941 11-12-2009 00:00:00 6.665 C 81.1917 % 3.68 C
1942 12-12-2009 00:00:00 3.47833 C 86.1750 % 1.39 C
1943 13-12-2009 00:00:00 1.50924 C 65.8487 % -4.17 C
1944 14-12-2009 00:00:00 -0.80667 C 58.3583 % -7.95 C
1945 15-12-2009 00:00:00 -0.50083 C 61.5917 % -6.96 C
1946 16-12-2009 00:00:00 -1.19917 C 62.6167 % -7.41 C
1947 17-12-2009 00:00:00 -4.445 C 73.9500 % -8.38 C
1948 18-12-2009 00:00:00 -5.04417 C 68.9417 % -9.85 C
1949 19-12-2009 00:00:00 -12.79 C 58.7000 % -19.18 C
1950 20-12-2009 00:00:00 -8.03917 C 68.5500 % -12.79 C
Sensor: Nr:Datum:Temp:Feuchte:Taupunkt:
Aussen-T/F 1951 21-12-2009 00:00:00 -2.18417 C 78.2000 % -5.46 C
1952 22-12-2009 00:00:00 2.7175 C 87.1750 % 0.8 C
1953 23-12-2009 00:00:00 0.49333 C 93.2833 % -0.46 C
1954 24-12-2009 00:00:00 2.31333 C 90.7833 % 0.97 C
1955 25-12-2009 00:00:00 4.38824 C 77.7983 % 0.86 C
1956 26-12-2009 00:00:00 2.04583 C 79.8417 % -1.06 C
1957 27-12-2009 00:00:00 0.5475 C 87.0417 % -1.35 C
1958 28-12-2009 00:00:00 3.1425 C 74.7333 % -0.9 C
1959 29-12-2009 00:00:00 0.4625 C 92.0917 % -0.67 C
1960 30-12-2009 00:00:00 7.05667 C 93.4917 % 6.08 C
1961 31-12-2009 00:00:00 5.32667 C 94.8417 % 4.57 C
1962 01-01-2010 00:00:00 -0.1725 C 91.5333 % -1.38 C
1963 02-01-2010 00:00:00 -1.51083 C 76.5417 % -5.09 C
1964 03-01-2010 00:00:00 -1.79667 C 80.7750 % -4.66 C
1965 04-01-2010 00:00:00 -5.24083 C 72.0250 % -9.48 C
1966 05-01-2010 00:00:00 -8.00083 C 81.2667 % -10.64 C
1967 06-01-2010 00:00:00 -6.88917 C 75.9167 % -10.41 C
1968 07-01-2010 00:00:00 -3.75966 C 75.0084 % -7.53 C
1969 08-01-2010 00:00:00 -4.82167 C 73.6333 % -8.8 C
1970 09-01-2010 00:00:00 -2.655 C 75.7333 % -6.34 C
1971 10-01-2010 00:00:00 -1.87083 C 76.9583 % -5.37 C
1972 11-01-2010 00:00:00 -1.42833 C 82.4667 % -4.02 C
1973 12-01-2010 00:00:00 -1.65833 C 78.7583 % -4.85 C
1974 13-01-2010 00:00:00 -2.2325 C 72.0917 % -6.57 C
1975 14-01-2010 00:00:00 0.35417 C 80.1083 % -2.66 C
Sensor: Nr:Datum:Temp:Feuchte:Taupunkt:
Aussen-T/F 1976 15-01-2010 00:00:00 0.87333 C 79.1833 % -2.31 C
1977 16-01-2010 00:00:00 -0.11833 C 78.0000 % -3.48 C
1978 17-01-2010 00:00:00 2.09667 C 91.1500 % 0.81 C
1979 18-01-2010 00:00:00 3.38333 C 83.1500 % 0.8 C
1980 19-01-2010 00:00:00 2.24583 C 90.2833 % 0.82 C
1981 20-01-2010 00:00:00 1.97417 C 83.9417 % -0.45 C
1982 21-01-2010 00:00:00 2.45126 C 70.1933 % -2.41 C
1983 22-01-2010 00:00:00 2.93667 C 71.6750 % -1.66 C
1984 23-01-2010 00:00:00 -0.41333 C 71.4167 % -4.94 C
1985 24-01-2010 00:00:00 0.27167 C 82.1667 % -2.4 C
1986 25-01-2010 00:00:00 0.01667 C 86.3167 % -1.99 C
1987 26-01-2010 00:00:00 -3.325 C 73.0333 % -7.46 C
1988 27-01-2010 00:00:00 -5.54083 C 66.7000 % -10.74 C
1989 28-01-2010 00:00:00 1.20667 C 76.7750 % -2.41 C
1990 29-01-2010 00:00:00 1.39083 C 84.4333 % -0.94 C
1991 30-01-2010 00:00:00 -1.54583 C 77.9250 % -4.89 C
1992 31-01-2010 00:00:00 -1.62333 C 73.9000 % -5.66 C
1993 01-02-2010 00:00:00 0.20167 C 75.0083 % -3.69 C
1994 02-02-2010 00:00:00 0.69916 C 78.5798 % -2.59 C
1995 03-02-2010 00:00:00 2.28899 C 89.1468 % 0.69 C
1996 04-02-2010 00:00:00 4.17018 C 86.3684 % 2.1 C
1997 05-02-2010 00:00:00 3.29649 C 80.7719 % 0.32 C
1998 06-02-2010 00:00:00 4.55172 C 82.9483 % 1.91 C
1999 07-02-2010 00:00:00 4.17018 C 78.0526 % 0.7 C
2000 08-02-2010 00:00:00 -0.75 C 62.0517 % -7.1 C
Sensor: Nr:Datum:Temp:Feuchte:Taupunkt:
Aussen-T/F 2001 09-02-2010 00:00:00 -3.74483 C 58.3621 % -10.71 C
2002 10-02-2010 00:00:00 -4.8 C 67.0702 % -9.96 C
2003 11-02-2010 00:00:00 -3.79828 C 70.5345 % -8.36 C
2004 12-02-2010 00:00:00 -2.14737 C 70.6140 % -6.76 C
2005 13-02-2010 00:00:00 -2.57414 C 69.6724 % -7.34 C
2006 14-02-2010 00:00:00 -2.13621 C 74.1379 % -6.11 C
2007 15-02-2010 00:00:00 -1.12632 C 71.6491 % -5.58 C
2008 16-02-2010 00:00:00 -1.16379 C 67.5690 % -6.39 C
2009 17-02-2010 00:00:00 -1.61754 C 73.4912 % -5.73 C
2010 18-02-2010 00:00:00 3.2569 C 75.4138 % -0.66 C
2011 19-02-2010 00:00:00 3.59375 C 66.6094 % -2.03 C
2012 20-02-2010 00:00:00 1.69333 C 64.8167 % -4.2 C
2013 21-02-2010 00:00:00 2.87833 C 72.0500 % -1.65 C
2014 22-02-2010 00:00:00 6.76417 C 68.6833 % 1.42 C
2015 23-02-2010 00:00:00 9.7875 C 76.2667 % 5.82 C
2016 24-02-2010 00:00:00 9.55 C 71.2250 % 4.61 C
2017 25-02-2010 00:00:00 9.58 C 64.7500 % 3.28 C
2018 26-02-2010 00:00:00 8.62667 C 61.8917 % 1.74 C
2019 27-02-2010 00:00:00 8.4025 C 48.0000 % -1.95 C
2020 28-02-2010 00:00:00 8.30667 C 65.2417 % 2.18 C
2021 01-03-2010 00:00:00 5.40917 C 55.1833 % -2.85 C
2022 02-03-2010 00:00:00 3.135 C 64.5000 % -2.9 C
2023 03-03-2010 00:00:00 2.9925 C 56.0000 % -4.91 C
2024 04-03-2010 00:00:00 2.47395 C 46.4538 % -7.82 C
2025 05-03-2010 00:00:00 0.77667 C 47.2000 % -9.17 C
Sensor: Nr:Datum:Temp:Feuchte:Taupunkt:
Aussen-T/F 2026 06-03-2010 00:00:00 -0.47083 C 72.0000 % -4.89 C
2027 07-03-2010 00:00:00 -1.6825 C 52.6417 % -10.08 C
2028 08-03-2010 00:00:00 -1.21083 C 43.0500 % -12.16 C
2029 09-03-2010 00:00:00 -0.87167 C 38.6333 % -13.19 C
2030 10-03-2010 00:00:00 1.41667 C 32.7750 % -13.15 C
2031 11-03-2010 00:00:00 0.40167 C 51.3333 % -8.45 C
2032 12-03-2010 00:00:00 1.61167 C 71.3417 % -3 C
2033 13-03-2010 00:00:00 4.36583 C 64.8667 % -1.65 C
2034 14-03-2010 00:00:00 5.79833 C 56.7083 % -2.12 C
2035 15-03-2010 00:00:00 6.445 C 67.4417 % 0.87 C
2036 16-03-2010 00:00:00 6.08067 C 77.1933 % 2.4 C
2037 17-03-2010 00:00:00 6.69417 C 58.9167 % -0.76 C
2038 18-03-2010 00:00:00 10.12333 C 47.9167 % -0.4 C
2039 19-03-2010 00:00:00 15.0225 C 36.2750 % 0.19 C
2040 20-03-2010 00:00:00 14.37667 C 68.5333 % 8.67 C
2041 21-03-2010 00:00:00 11.23667 C 85.1833 % 8.84 C
2042 22-03-2010 00:00:00 9.7575 C 75.9583 % 5.73 C
2043 23-03-2010 00:00:00 8.94 C 69.7083 % 3.71 C
2044 24-03-2010 00:00:00 11.9975 C 58.5500 % 4.14 C
2045 25-03-2010 00:00:00 14.27083 C 53.1750 % 4.88 C
2046 26-03-2010 00:00:00 10.0325 C 74.5250 % 5.72 C
2047 27-03-2010 00:00:00 9.34333 C 63.2500 % 2.73 C
2048 28-03-2010 00:00:00 9.93478 C 66.1043 % 3.91 C
2049 29-03-2010 00:00:00 11.88167 C 76.0000 % 7.79 C
2050 30-03-2010 00:00:00 12.70672 C 57.7479 % 4.6 C
Sensor: Nr:Datum:Temp:Feuchte:Taupunkt:
Aussen-T/F 2051 31-03-2010 00:00:00 8.18667 C 53.2250 % -0.75 C
2052 01-04-2010 00:00:00 5.84333 C 52.3000 % -3.16 C
2053 02-04-2010 00:00:00 6.48583 C 58.2667 % -1.1 C
2054 03-04-2010 00:00:00 9.73667 C 59.2250 % 2.17 C
2055 04-04-2010 00:00:00 8.98833 C 59.6417 % 1.57 C
2056 05-04-2010 00:00:00 9.15083 C 51.2500 % -0.37 C
2057 06-04-2010 00:00:00 10.38167 C 45.7750 % -0.79 C
2058 07-04-2010 00:00:00 13.61167 C 43.0667 % 1.3 C
2059 08-04-2010 00:00:00 12.375 C 63.8000 % 5.72 C
2060 09-04-2010 00:00:00 11.49917 C 57.1917 % 3.34 C
2061 10-04-2010 00:00:00 11.3575 C 45.4833 % 0.01 C
2062 11-04-2010 00:00:00 7.86667 C 53.1250 % -1.07 C
2063 12-04-2010 00:00:00 7.44958 C 67.1176 % 1.76 C
2064 13-04-2010 00:00:00 11.85583 C 58.3000 % 3.94 C
2065 14-04-2010 00:00:00 11.76417 C 44.4000 % 0.05 C
2066 15-04-2010 00:00:00 11.8575 C 47.2917 % 1.01 C
2067 16-04-2010 00:00:00 9.71583 C 46.7750 % -1.1 C
2068 17-04-2010 00:00:00 11.1225 C 45.0083 % -0.34 C
2069 18-04-2010 00:00:00 13.27917 C 39.1333 % -0.32 C
2070 19-04-2010 00:00:00 11.18333 C 50.5667 % 1.32 C
2071 20-04-2010 00:00:00 11.13833 C 50.6583 % 1.3 C
2072 21-04-2010 00:00:00 7.34417 C 48.4667 % -2.8 C
2073 22-04-2010 00:00:00 8.35333 C 45.1250 % -2.83 C
2074 23-04-2010 00:00:00 11.44917 C 39.7500 % -1.74 C
2075 24-04-2010 00:00:00 14.91167 C 35.7417 % -0.11 C
Sensor: Nr:Datum:Temp:Feuchte:Taupunkt:
Aussen-T/F 2076 25-04-2010 00:00:00 17.1075 C 36.0667 % 1.96 C
2077 26-04-2010 00:00:00 15.72269 C 52.7899 % 6.12 C
2078 27-04-2010 00:00:00 15.50417 C 47.7417 % 4.48 C
2079 28-04-2010 00:00:00 16.8925 C 44.0167 % 4.58 C
2080 29-04-2010 00:00:00 19.21417 C 40.4917 % 5.48 C
2081 30-04-2010 00:00:00 18.69583 C 44.4333 % 6.35 C
2082 01-05-2010 00:00:00 15.09917 C 52.5333 % 5.47 C
2083 02-05-2010 00:00:00 13.48583 C 65.3833 % 7.13 C
2084 03-05-2010 00:00:00 10.01667 C 73.7583 % 5.56 C
2085 04-05-2010 00:00:00 9.78833 C 59.6167 % 2.32 C
2086 05-05-2010 00:00:00 10.09083 C 40.0167 % -2.87 C
2087 06-05-2010 00:00:00 6.68167 C 89.3500 % 5.06 C
2088 07-05-2010 00:00:00 6.49417 C 88.9000 % 4.8 C
2089 08-05-2010 00:00:00 11.06218 C 63.5126 % 4.41 C
2090 09-05-2010 00:00:00 12.575 C 62.7583 % 5.67 C
2091 10-05-2010 00:00:00 11.99917 C 62.6167 % 5.1 C
2092 11-05-2010 00:00:00 11.53167 C 66.0583 % 5.42 C
2093 12-05-2010 00:00:00 8.62333 C 73.6000 % 4.18 C
2094 13-05-2010 00:00:00 8.07667 C 75.9167 % 4.09 C
2095 14-05-2010 00:00:00 8.97333 C 81.9833 % 6.07 C
2096 15-05-2010 00:00:00 10.6825 C 60.3500 % 3.33 C
2097 16-05-2010 00:00:00 13.32917 C 45.9333 % 1.95 C
2098 17-05-2010 00:00:00 10.56917 C 73.2083 % 5.98 C
2099 18-05-2010 00:00:00 11.44333 C 59.0083 % 3.73 C
2100 19-05-2010 00:00:00 10.30583 C 66.0083 % 4.24 C
Sensor: Nr:Datum:Temp:Feuchte:Taupunkt:
Aussen-T/F 2101 20-05-2010 00:00:00 12.64034 C 56.8739 % 4.32 C
2102 21-05-2010 00:00:00 16.54333 C 54.3833 % 7.31 C
2103 22-05-2010 00:00:00 18.32583 C 49.5167 % 7.59 C
2104 23-05-2010 00:00:00 20.32083 C 49.1083 % 9.3 C
2105 24-05-2010 00:00:00 21.23 C 48.1667 % 9.84 C
2106 25-05-2010 00:00:00 20.64583 C 44.5083 % 8.14 C
2107 26-05-2010 00:00:00 15.41917 C 68.9500 % 9.75 C
2108 27-05-2010 00:00:00 15.6175 C 61.4583 % 8.24 C
2109 28-05-2010 00:00:00 17.3075 C 53.8500 % 7.88 C
2110 29-05-2010 00:00:00 16.34 C 52.0167 % 6.48 C
2111 30-05-2010 00:00:00 14.5975 C 71.3750 % 9.48 C
2112 31-05-2010 00:00:00 11.56667 C 78.6667 % 7.99 C
2113 01-06-2010 00:00:00 16.01833 C 61.6500 % 8.66 C
2114 02-06-2010 00:00:00 17.66471 C 51.7731 % 7.63 C
2115 03-06-2010 00:00:00 20.49083 C 44.3000 % 7.93 C
2116 04-06-2010 00:00:00 21.43 C 42.1333 % 8.04 C
2117 05-06-2010 00:00:00 22.97667 C 42.9500 % 9.72 C
2118 06-06-2010 00:00:00 20.91333 C 60.9250 % 13.1 C
2119 07-06-2010 00:00:00 19.58833 C 53.6333 % 9.93 C
2120 08-06-2010 00:00:00 19.76833 C 55.8333 % 10.7 C
2121 09-06-2010 00:00:00 22.5625 C 56.5667 % 13.5 C
2122 10-06-2010 00:00:00 22.76417 C 66.8333 % 16.28 C
2123 11-06-2010 00:00:00 22.89167 C 56.7417 % 13.86 C
2124 12-06-2010 00:00:00 18.84917 C 63.4750 % 11.77 C
2125 13-06-2010 00:00:00 18.25083 C 50.0250 % 7.67 C
Sensor: Nr:Datum:Temp:Feuchte:Taupunkt:
Aussen-T/F 2126 14-06-2010 00:00:00 19.76667 C 45.7833 % 7.76 C
2127 15-06-2010 00:00:00 18.9 C 49.7311 % 8.18 C
2128 16-06-2010 00:00:00 18.82833 C 38.3167 % 4.34 C
2129 17-06-2010 00:00:00 15.08583 C 71.6167 % 10 C
2130 18-06-2010 00:00:00 15.2325 C 71.9167 % 10.2 C
2131 19-06-2010 00:00:00 14.2725 C 51.1167 % 4.32 C
2132 20-06-2010 00:00:00 13.20333 C 59.2167 % 5.43 C
2133 21-06-2010 00:00:00 14.11083 C 52.4833 % 4.55 C
2134 22-06-2010 00:00:00 17.38667 C 47.4833 % 6.12 C
2135 23-06-2010 00:00:00 19.75917 C 47.6667 % 8.34 C
2136 24-06-2010 00:00:00 22.54833 C 43.3500 % 9.47 C
2137 25-06-2010 00:00:00 23.37 C 41.1917 % 9.45 C
2138 26-06-2010 00:00:00 23.635 C 41.1583 % 9.67 C
2139 27-06-2010 00:00:00 24.49417 C 40.2750 % 10.12 C
2140 28-06-2010 00:00:00 25.25546 C 38.9832 % 10.31 C
2141 29-06-2010 00:00:00 24.86167 C 43.0500 % 11.45 C
2142 30-06-2010 00:00:00 24.6175 C 44.6583 % 11.78 C
2143 01-07-2010 00:00:00 25.8425 C 40.2750 % 11.32 C
2144 02-07-2010 00:00:00 26.96667 C 37.4917 % 11.24 C
2145 03-07-2010 00:00:00 26.33 C 45.6083 % 13.66 C
2146 04-07-2010 00:00:00 26.44833 C 48.2917 % 14.65 C
2147 05-07-2010 00:00:00 22.02083 C 46.5417 % 10.05 C
2148 06-07-2010 00:00:00 20.17833 C 47.7667 % 8.76 C
2149 07-07-2010 00:00:00 22.53417 C 40.7500 % 8.54 C
2150 08-07-2010 00:00:00 26.43417 C 34.8333 % 9.67 C
Sensor: Nr:Datum:Temp:Feuchte:Taupunkt:
Aussen-T/F 2151 09-07-2010 00:00:00 27.51333 C 35.5750 % 10.93 C
2152 10-07-2010 00:00:00 29.25667 C 36.9500 % 13.04 C
2153 11-07-2010 00:00:00 28.48319 C 46.0252 % 15.75 C
2154 12-07-2010 00:00:00 27.1175 C 42.8500 % 13.41 C
2155 13-07-2010 00:00:00 25.36083 C 44.2167 % 12.31 C
2156 14-07-2010 00:00:00 25.98917 C 48.2250 % 14.2 C
2157 15-07-2010 00:00:00 22.6525 C 43.7250 % 9.69 C
2158 16-07-2010 00:00:00 23.97667 C 38.9833 % 9.17 C
2159 17-07-2010 00:00:00 21.99167 C 52.4833 % 11.83 C
2160 18-07-2010 00:00:00 21.73833 C 38.4417 % 6.98 C
2161 19-07-2010 00:00:00 23.63167 C 37.6000 % 8.33 C
2162 20-07-2010 00:00:00 25.03833 C 36.6583 % 9.2 C
2163 21-07-2010 00:00:00 24.73833 C 41.0417 % 10.62 C
2164 22-07-2010 00:00:00 21.34917 C 62.1250 % 13.8 C
2165 23-07-2010 00:00:00 20.17059 C 65.9748 % 13.61 C
2166 24-07-2010 00:00:00 19.00667 C 56.1417 % 10.07 C
2167 25-07-2010 00:00:00 17.26833 C 53.0333 % 7.62 C
2168 26-07-2010 00:00:00 17.2925 C 77.8500 % 13.39 C
2169 27-07-2010 00:00:00 19.815 C 58.8583 % 11.54 C
2170 28-07-2010 00:00:00 20.5075 C 62.7583 % 13.17 C
2171 29-07-2010 00:00:00 16.32417 C 82.1667 % 13.28 C
2172 30-07-2010 00:00:00 19.665 C 55.1000 % 10.41 C
2173 31-07-2010 00:00:00 20.62417 C 50.6750 % 10.04 C
2174 01-08-2010 00:00:00 22.90833 C 58.5833 % 14.36 C
2175 02-08-2010 00:00:00 19.60917 C 66.5833 % 13.22 C
Sensor: Nr:Datum:Temp:Feuchte:Taupunkt:
Aussen-T/F 2176 03-08-2010 00:00:00 18.94167 C 62.2917 % 11.58 C
2177 04-08-2010 00:00:00 19.62269 C 54.1933 % 10.12 C
2178 05-08-2010 00:00:00 18.49417 C 63.2500 % 11.38 C
2179 06-08-2010 00:00:00 19.04667 C 49.4417 % 8.23 C
2180 07-08-2010 00:00:00 19.46583 C 47.2333 % 7.94 C
2181 08-08-2010 00:00:00 18.485 C 73.9083 % 13.75 C
2182 09-08-2010 00:00:00 19.515 C 62.0500 % 12.06 C
2183 10-08-2010 00:00:00 22.13583 C 49.8000 % 11.17 C
2184 11-08-2010 00:00:00 20.32833 C 71.7583 % 15.06 C
2185 12-08-2010 00:00:00 19.10917 C 68.7917 % 13.24 C
2186 13-08-2010 00:00:00 18.77833 C 56.4000 % 9.93 C
2187 14-08-2010 00:00:00 19.9675 C 55.6000 % 10.82 C
2188 15-08-2010 00:00:00 16.88667 C 82.0833 % 13.81 C
2189 16-08-2010 00:00:00 17.07479 C 76.6975 % 12.95 C
2190 17-08-2010 00:00:00 16.06667 C 78.3083 % 12.29 C
2191 18-08-2010 00:00:00 18.40917 C 62.9750 % 11.24 C
2192 19-08-2010 00:00:00 18.88917 C 50.6417 % 8.44 C
2193 20-08-2010 00:00:00 20.42605 C 55.8739 % 11.32 C
2194 21-08-2010 00:00:00 23.76417 C 52.7167 % 13.53 C
2195 22-08-2010 00:00:00 23.01667 C 59.0250 % 14.58 C
2196 23-08-2010 00:00:00 21.205 C 70.7833 % 15.69 C
2197 24-08-2010 00:00:00 19.27083 C 47.4667 % 7.83 C
2198 25-08-2010 00:00:00 17.61917 C 51.1167 % 7.4 C
2199 26-08-2010 00:00:00 20.68083 C 64.0500 % 13.64 C
2200 27-08-2010 00:00:00 18.37667 C 83.9000 % 15.61 C
Sensor: Nr:Datum:Temp:Feuchte:Taupunkt:
Aussen-T/F 2201 28-08-2010 00:00:00 14.0675 C 73.3833 % 9.38 C
2202 29-08-2010 00:00:00 13.03167 C 75.5167 % 8.81 C
2203 30-08-2010 00:00:00 12.5675 C 77.2917 % 8.7 C
2204 31-08-2010 00:00:00 15.42917 C 63.8417 % 8.62 C
2205 01-09-2010 00:00:00 14.82437 C 66.2437 % 8.59 C
2206 02-09-2010 00:00:00 14.95333 C 68.7750 % 9.27 C
2207 03-09-2010 00:00:00 15.91417 C 66.8500 % 9.77 C
2208 04-09-2010 00:00:00 16.71417 C 59.2667 % 8.74 C
2209 05-09-2010 00:00:00 15.205 C 57.9500 % 6.99 C
2210 06-09-2010 00:00:00 15.675 C 50.6333 % 5.48 C
2211 07-09-2010 00:00:00 13.36083 C 72.0500 % 8.43 C
2212 08-09-2010 00:00:00 15.545 C 82.5083 % 12.58 C
2213 09-09-2010 00:00:00 16.20583 C 69.6333 % 10.65 C
2214 10-09-2010 00:00:00 16.18 C 73.5500 % 11.45 C
2215 11-09-2010 00:00:00 18.13417 C 67.4000 % 12 C
2216 12-09-2010 00:00:00 16.21667 C 76.2417 % 12.03 C
2217 13-09-2010 00:00:00 15.67583 C 69.6833 % 10.16 C
2218 14-09-2010 00:00:00 16.63697 C 63.2689 % 9.63 C
2219 15-09-2010 00:00:00 16.3175 C 56.3417 % 7.62 C
2220 16-09-2010 00:00:00 14.07 C 68.7833 % 8.43 C
2221 17-09-2010 00:00:00 13.76667 C 63.3000 % 6.92 C
2222 18-09-2010 00:00:00 11.45083 C 66.4583 % 5.43 C
2223 19-09-2010 00:00:00 11.7425 C 63.7833 % 5.12 C
2224 20-09-2010 00:00:00 14.01 C 60.2750 % 6.44 C
2225 21-09-2010 00:00:00 14.27 C 69.4583 % 8.76 C
Sensor: Nr:Datum:Temp:Feuchte:Taupunkt:
Aussen-T/F 2226 22-09-2010 00:00:00 15.86667 C 68.2250 % 10.02 C
2227 23-09-2010 00:00:00 16.56167 C 70.7917 % 11.24 C
2228 24-09-2010 00:00:00 14.165 C 94.1000 % 13.23 C
2229 25-09-2010 00:00:00 12.41833 C 72.2250 % 7.56 C
2230 26-09-2010 00:00:00 11.2425 C 71.6917 % 6.33 C
2231 27-09-2010 00:00:00 9.86807 C 80.2269 % 6.63 C
2232 28-09-2010 00:00:00 10.93083 C 94.2917 % 10.05 C
2233 29-09-2010 00:00:00 13.39417 C 76.6083 % 9.37 C
2234 30-09-2010 00:00:00 11.89667 C 83.4333 % 9.18 C
2235 01-10-2010 00:00:00 12.33667 C 83.6000 % 9.64 C
2236 02-10-2010 00:00:00 13.4525 C 88.8333 % 11.65 C
2237 03-10-2010 00:00:00 17.83583 C 69.4500 % 12.17 C
2238 04-10-2010 00:00:00 16.905 C 67.1833 % 10.78 C
2239 05-10-2010 00:00:00 15.64833 C 81.7000 % 12.53 C
2240 06-10-2010 00:00:00 17.22333 C 68.1250 % 11.3 C
2241 07-10-2010 00:00:00 16.31167 C 74.2083 % 11.71 C
2242 08-10-2010 00:00:00 16.02917 C 68.6417 % 10.27 C
2243 09-10-2010 00:00:00 13.1475 C 71.0083 % 8.01 C
2244 10-10-2010 00:00:00 11.6125 C 61.5417 % 4.48 C
2245 11-10-2010 00:00:00 10.90084 C 54.7647 % 2.17 C
2246 12-10-2010 00:00:00 8.71917 C 68.1167 % 3.18 C
2247 13-10-2010 00:00:00 7.475 C 69.3833 % 2.25 C
2248 14-10-2010 00:00:00 7.55583 C 74.6167 % 3.35 C
2249 15-10-2010 00:00:00 10.475 C 76.0250 % 6.44 C
2250 16-10-2010 00:00:00 8.375 C 89.9250 % 6.82 C
Sensor: Nr:Datum:Temp:Feuchte:Taupunkt:
Aussen-T/F 2251 17-10-2010 00:00:00 7.22667 C 80.5250 % 4.11 C
2252 18-10-2010 00:00:00 6.71833 C 73.3000 % 2.29 C
2253 19-10-2010 00:00:00 7.28167 C 81.9417 % 4.41 C
2254 20-10-2010 00:00:00 6.14167 C 81.5000 % 3.22 C
2255 21-10-2010 00:00:00 5.27 C 66.8833 % -0.37 C
2256 22-10-2010 00:00:00 4.20167 C 63.7833 % -2.03 C
2257 23-10-2010 00:00:00 4.37899 C 73.9748 % 0.16 C
2258 24-10-2010 00:00:00 8.55667 C 66.0833 % 2.59 C
2259 25-10-2010 00:00:00 6.1525 C 71.2167 % 1.34 C
2260 26-10-2010 00:00:00 3.62417 C 82.5583 % 0.94 C
2261 27-10-2010 00:00:00 8.14917 C 58.7667 % 0.58 C
2262 28-10-2010 00:00:00 9.1725 C 62.2417 % 2.34 C
2263 29-10-2010 00:00:00 9.9325 C 69.5917 % 4.64 C
2264 30-10-2010 00:00:00 10.57143 C 68.9286 % 5.12 C
2265 02-11-2010 00:00:00 11.31548 C 66.6667 % 5.35 C
2266 03-11-2010 00:00:00 13.10333 C 68.7083 % 7.49 C
2267 04-11-2010 00:00:00 16.41167 C 62.3167 % 9.19 C
2268 05-11-2010 00:00:00 14.51917 C 58.8000 % 6.56 C
2269 06-11-2010 00:00:00 10.40917 C 80.1167 % 7.13 C
2270 07-11-2010 00:00:00 6.86917 C 92.5083 % 5.74 C
2271 08-11-2010 00:00:00 4.65583 C 85.5500 % 2.45 C
2272 09-11-2010 00:00:00 6.65667 C 85.5833 % 4.42 C
2273 10-11-2010 00:00:00 7.08319 C 83.2017 % 4.43 C
2274 11-11-2010 00:00:00 5.84167 C 74.0333 % 1.58 C
2275 12-11-2010 00:00:00 11.04083 C 67.0583 % 5.17 C
Sensor: Nr:Datum:Temp:Feuchte:Taupunkt:
Aussen-T/F 2276 13-11-2010 00:00:00 14.51917 C 70.8917 % 9.31 C
2277 14-11-2010 00:00:00 14.60833 C 62.1917 % 7.46 C
2278 15-11-2010 00:00:00 9.47833 C 67.6667 % 3.81 C
2279 16-11-2010 00:00:00 6.0125 C 79.4417 % 2.73 C
2280 17-11-2010 00:00:00 5.3125 C 74.5000 % 1.16 C
2281 18-11-2010 00:00:00 5.61917 C 84.0500 % 3.14 C
2282 19-11-2010 00:00:00 6.4275 C 81.7500 % 3.54 C
2283 20-11-2010 00:00:00 4.8325 C 88.3833 % 3.08 C
2284 21-11-2010 00:00:00 4.48333 C 73.7500 % 0.22 C
2285 22-11-2010 00:00:00 4.47417 C 75.5417 % 0.54 C
2286 23-11-2010 00:00:00 4.54118 C 69.6723 % -0.51 C
2287 24-11-2010 00:00:00 3.415 C 80.1833 % 0.33 C
2288 25-11-2010 00:00:00 1.74083 C 80.3500 % -1.27 C
2289 26-11-2010 00:00:00 -0.29083 C 87.9417 % -2.04 C
2290 27-11-2010 00:00:00 -1.99167 C 84.3333 % -4.27 C
2291 28-11-2010 00:00:00 -1.325 C 80.3667 % -4.26 C
2292 29-11-2010 00:00:00 -1.55833 C 80.7833 % -4.42 C
2293 30-11-2010 00:00:00 -1.9425 C 80.4000 % -4.86 C
2294 01-12-2010 00:00:00 -5.7325 C 61.7750 % -11.88 C
2295 02-12-2010 00:00:00 -7.03167 C 68.9667 % -11.75 C
2296 03-12-2010 00:00:00 -7.38583 C 76.6667 % -10.77 C
2297 04-12-2010 00:00:00 -3.48167 C 68.7667 % -8.38 C
2298 05-12-2010 00:00:00 0.91667 C 65.5750 % -4.79 C
2299 06-12-2010 00:00:00 0.24538 C 81.3697 % -2.56 C
2300 07-12-2010 00:00:00 -0.20833 C 81.1417 % -3.04 C
Sensor: Nr:Datum:Temp:Feuchte:Taupunkt:
Aussen-T/F 2301 08-12-2010 00:00:00 -0.25917 C 90.8167 % -1.57 C
2302 09-12-2010 00:00:00 0.61333 C 77.4667 % -2.86 C
2303 10-12-2010 00:00:00 1.73333 C 85.9917 % -0.35 C
2304 11-12-2010 00:00:00 4.07583 C 81.0750 % 1.13 C
2305 12-12-2010 00:00:00 3.085 C 76.4250 % -0.65 C
2306 13-12-2010 00:00:00 -4.44833 C 70.7250 % -8.95 C
2307 14-12-2010 00:00:00 -3.65833 C 75.1500 % -7.41 C
2308 15-12-2010 00:00:00 -3.1275 C 73.4333 % -7.19 C
2309 16-12-2010 00:00:00 -3.4675 C 77.7917 % -6.78 C
2310 17-12-2010 00:00:00 -2.77417 C 73.1083 % -6.91 C
2311 18-12-2010 00:00:00 -4.65833 C 78.4500 % -7.83 C
2312 19-12-2010 00:00:00 -0.7125 C 83.7583 % -3.11 C
2313 20-12-2010 00:00:00 -1.53667 C 79.9500 % -4.54 C
2314 21-12-2010 00:00:00 -0.65546 C 86.2857 % -2.66 C
2315 22-12-2010 00:00:00 0.9225 C 90.2417 % -0.49 C
2316 23-12-2010 00:00:00 -0.36833 C 89.5583 % -1.87 C
2317 24-12-2010 00:00:00 -1.77438 C 82.4132 % -4.37 C
2318 25-12-2010 00:00:00 -5.4775 C 72.1917 % -9.68 C
2319 26-12-2010 00:00:00 -4.87833 C 75.4833 % -8.53 C
2320 27-12-2010 00:00:00 -2.21833 C 78.9083 % -5.37 C
2321 28-12-2010 00:00:00 -2.07899 C 79.7983 % -5.09 C
2322 29-12-2010 00:00:00 -0.255 C 79.0333 % -3.44 C
2323 30-12-2010 00:00:00 -0.55333 C 77.5833 % -3.98 C
2324 31-12-2010 00:00:00 -1.10413 C 79.2975 % -4.22 C
2325 01-01-2011 00:00:00 1.07311 C 86.7311 % -0.88 C
Sensor: Nr:Datum:Temp:Feuchte:Taupunkt:
Aussen-T/F 2326 02-01-2011 00:00:00 0.8025 C 85.7500 % -1.31 C
2327 03-01-2011 00:00:00 -0.9125 C 85.2333 % -3.07 C
2328 04-01-2011 00:00:00 -2.36667 C 81.6500 % -5.07 C
2329 05-01-2011 00:00:00 -3.83583 C 71.7333 % -8.18 C
2330 06-01-2011 00:00:00 3.72667 C 87.9667 % 1.92 C
2331 07-01-2011 00:00:00 6.91833 C 89.9000 % 5.38 C
2332 08-01-2011 00:00:00 10.5675 C 72.8000 % 5.9 C
2333 09-01-2011 00:00:00 5.08655 C 85.5042 % 2.86 C
2334 10-01-2011 00:00:00 0.7175 C 86.3333 % -1.3 C
2335 11-01-2011 00:00:00 3.43667 C 78.5333 % 0.07 C
2336 12-01-2011 00:00:00 5.44 C 78.6250 % 2.03 C
2337 13-01-2011 00:00:00 11.80333 C 77.9417 % 8.09 C
2338 14-01-2011 00:00:00 11.77417 C 66.0167 % 5.64 C
2339 15-01-2011 00:00:00 8.68167 C 69.2417 % 3.37 C
2340 16-01-2011 00:00:00 6.84167 C 76.6833 % 3.04 C
2341 17-01-2011 00:00:00 3.62917 C 87.1750 % 1.7 C
2342 18-01-2011 00:00:00 7.28833 C 76.0833 % 3.36 C
2343 19-01-2011 00:00:00 3.30833 C 77.6417 % -0.21 C
2344 20-01-2011 00:00:00 1.7 C 80.0083 % -1.37 C
2345 21-01-2011 00:00:00 -0.0675 C 63.4250 % -6.17 C
2346 22-01-2011 00:00:00 0.39664 C 78.3361 % -2.92 C
2347 23-01-2011 00:00:00 1.50167 C 86.5500 % -0.49 C
2348 24-01-2011 00:00:00 3.10167 C 84.6333 % 0.77 C
2349 25-01-2011 00:00:00 2.49833 C 79.4167 % -0.69 C
2350 26-01-2011 00:00:00 0.84083 C 82.9250 % -1.72 C
Sensor: Nr:Datum:Temp:Feuchte:Taupunkt:
Aussen-T/F 2351 27-01-2011 00:00:00 -0.28583 C 71.6667 % -4.77 C
2352 28-01-2011 00:00:00 -1.27083 C 64.6250 % -7.07 C
2353 29-01-2011 00:00:00 -4.9 C 78.6250 % -8.03 C
2354 30-01-2011 00:00:00 -6.20917 C 79.4500 % -9.17 C
2355 31-01-2011 00:00:00 -5.73833 C 80.2583 % -8.59 C
2356 01-02-2011 00:00:00 -4.03917 C 72.9333 % -8.16 C
2357 02-02-2011 00:00:00 -0.865 C 75.9667 % -4.56 C
2358 03-02-2011 00:00:00 1.94454 C 80.8824 % -0.98 C
2359 04-02-2011 00:00:00 6.18583 C 70.0667 % 1.15 C
2360 05-02-2011 00:00:00 9.25833 C 62.0000 % 2.37 C
2361 06-02-2011 00:00:00 8.62 C 60.0083 % 1.31 C
2362 07-02-2011 00:00:00 6.48083 C 55.1667 % -1.85 C
2363 08-02-2011 00:00:00 5.48833 C 65.0417 % -0.55 C
2364 09-02-2011 00:00:00 -0.23333 C 82.7917 % -2.8 C
2365 10-02-2011 00:00:00 3.9425 C 78.7083 % 0.59 C
2366 11-02-2011 00:00:00 10.23917 C 74.1917 % 5.85 C
2367 12-02-2011 00:00:00 6.88 C 81.4333 % 3.93 C
2368 13-02-2011 00:00:00 5.13417 C 82.5250 % 2.41 C
2369 14-02-2011 00:00:00 5.215 C 81.7250 % 2.35 C
2370 15-02-2011 00:00:00 5.14958 C 83.2101 % 2.54 C
2371 16-02-2011 00:00:00 4.90417 C 79.7167 % 1.7 C
2372 17-02-2011 00:00:00 1.96333 C 77.4417 % -1.56 C
2373 18-02-2011 00:00:00 2.23667 C 72.6417 % -2.16 C
2374 19-02-2011 00:00:00 2.82833 C 73.3833 % -1.45 C
2375 20-02-2011 00:00:00 0.7 C 62.1917 % -5.69 C
Sensor: Nr:Datum:Temp:Feuchte:Taupunkt:
Aussen-T/F 2376 21-02-2011 00:00:00 -1.8125 C 51.6000 % -10.45 C
2377 22-02-2011 00:00:00 -3.39167 C 51.9833 % -11.83 C
2378 23-02-2011 00:00:00 -2.66583 C 50.3167 % -11.56 C
2379 24-02-2011 00:00:00 0.91083 C 75.5417 % -2.91 C
2380 25-02-2011 00:00:00 3.445 C 84.2583 % 1.05 C
2381 26-02-2011 00:00:00 5.07167 C 75.9333 % 1.19 C
2382 27-02-2011 00:00:00 5.47731 C 73.6807 % 1.16 C
2383 28-02-2011 00:00:00 4.52333 C 67.9083 % -0.88 C
2384 01-03-2011 00:00:00 4.31167 C 69.8833 % -0.69 C
2385 02-03-2011 00:00:00 3.41 C 50.2917 % -5.93 C
2386 03-03-2011 00:00:00 1.585 C 49.3000 % -7.87 C
2387 04-03-2011 00:00:00 2.1825 C 60.4167 % -4.67 C
2388 05-03-2011 00:00:00 0.19833 C 75.1083 % -3.68 C
2389 06-03-2011 00:00:00 1.7325 C 60.2167 % -5.14 C
2390 07-03-2011 00:00:00 1.05667 C 46.9417 % -8.99 C
2391 08-03-2011 00:00:00 1.92583 C 52.3083 % -6.79 C
2392 09-03-2011 00:00:00 6.48333 C 61.8000 % -0.3 C
2393 10-03-2011 00:00:00 7.3 C 57.6167 % -0.49 C
2394 11-03-2011 00:00:00 8.78571 C 53.4790 % -0.13 C
2395 12-03-2011 00:00:00 7.3525 C 60.9583 % 0.33 C
2396 13-03-2011 00:00:00 11.07917 C 64.7167 % 4.7 C
2397 14-03-2011 00:00:00 10.09917 C 77.5250 % 6.35 C
2398 15-03-2011 00:00:00 10.73917 C 68.9250 % 5.28 C
2399 16-03-2011 00:00:00 8.73583 C 66.1667 % 2.78 C
2400 17-03-2011 00:00:00 6.295 C 79.3167 % 2.99 C
Sensor: Nr:Datum:Temp:Feuchte:Taupunkt:
Aussen-T/F 2401 18-03-2011 00:00:00 6.41833 C 70.2167 % 1.4 C
2402 19-03-2011 00:00:00 6.63 C 65.1750 % 0.57 C
2403 20-03-2011 00:00:00 3.39167 C 61.9167 % -3.2 C
2404 21-03-2011 00:00:00 4.66333 C 60.1083 % -2.4 C
2405 22-03-2011 00:00:00 6.83333 C 59.2833 % -0.54 C
2406 23-03-2011 00:00:00 8.59333 C 65.0750 % 2.41 C
2407 24-03-2011 00:00:00 9.14417 C 60.8917 % 2.01 C
2408 25-03-2011 00:00:00 9.65798 C 55.8908 % 1.29 C
2409 26-03-2011 00:00:00 8.11917 C 59.6833 % 0.76 C
2410 27-03-2011 00:00:00 9.62174 C 53.4696 % 0.65 C
2411 28-03-2011 00:00:00 7.7225 C 57.4083 % -0.15 C
2412 29-03-2011 00:00:00 7.42083 C 58.3917 % -0.2 C
2413 30-03-2011 00:00:00 8.36333 C 66.2417 % 2.44 C
2414 31-03-2011 00:00:00 12.03833 C 73.1000 % 7.37 C
2415 01-04-2011 00:00:00 13.985 C 68.4250 % 8.27 C
2416 02-04-2011 00:00:00 14.21833 C 66.4500 % 8.06 C
2417 03-04-2011 00:00:00 11.81167 C 76.3083 % 7.78 C
2418 04-04-2011 00:00:00 10.68333 C 67.0083 % 4.82 C
2419 05-04-2011 00:00:00 9.30833 C 68.0500 % 3.73 C
2420 06-04-2011 00:00:00 15.69167 C 63.4000 % 8.77 C
2421 07-04-2011 00:00:00 16.35294 C 59.8739 % 8.55 C
2422 08-04-2011 00:00:00 13.4925 C 56.0417 % 4.91 C
2423 09-04-2011 00:00:00 12.96917 C 49.7083 % 2.72 C
2424 10-04-2011 00:00:00 12.2825 C 55.3833 % 3.61 C
2425 11-04-2011 00:00:00 14.76333 C 53.4583 % 5.41 C
Sensor: Nr:Datum:Temp:Feuchte:Taupunkt:
Aussen-T/F 2426 12-04-2011 00:00:00 10.27917 C 57.0083 % 2.15 C
2427 13-04-2011 00:00:00 7.60083 C 55.2417 % -0.79 C
2428 14-04-2011 00:00:00 8.3025 C 53.3167 % -0.62 C
2429 15-04-2011 00:00:00 7.43583 C 58.4250 % -0.17 C
2430 16-04-2011 00:00:00 8.14667 C 54.9167 % -0.36 C
2431 17-04-2011 00:00:00 11.61917 C 46.3000 % 0.5 C
2432 18-04-2011 00:00:00 10.9521 C 55.2605 % 2.34 C
2433 19-04-2011 00:00:00 12.87583 C 55.1250 % 4.1 C
2434 20-04-2011 00:00:00 13.54917 C 55.3917 % 4.79 C
2435 21-04-2011 00:00:00 14.49333 C 54.9917 % 5.57 C
2436 22-04-2011 00:00:00 16.35083 C 55.1083 % 7.33 C
2437 23-04-2011 00:00:00 18.26083 C 59.3250 % 10.2 C
2438 24-04-2011 00:00:00 16.74333 C 54.1333 % 7.43 C
2439 25-04-2011 00:00:00 15.975 C 45.3000 % 4.16 C
2440 26-04-2011 00:00:00 12.8275 C 60.7167 % 5.44 C
2441 27-04-2011 00:00:00 11.27167 C 76.9583 % 7.38 C
2442 28-04-2011 00:00:00 13.99 C 71.8583 % 9 C
2443 29-04-2011 00:00:00 15.08333 C 65.8750 % 8.76 C
2444 30-04-2011 00:00:00 15.42 C 56.5500 % 6.84 C
2445 01-05-2011 00:00:00 15.09328 C 37.9496 % 0.88 C
2446 02-05-2011 00:00:00 11.83333 C 44.3167 % 0.09 C
2447 03-05-2011 00:00:00 10.93167 C 41.8667 % -1.5 C
2448 04-05-2011 00:00:00 8.28 C 53.9417 % -0.48 C
2449 05-05-2011 00:00:00 10.32333 C 55.8000 % 1.89 C
2450 06-05-2011 00:00:00 13.52917 C 53.1000 % 4.17 C
Sensor: Nr:Datum:Temp:Feuchte:Taupunkt:
Aussen-T/F 2451 07-05-2011 00:00:00 17.6125 C 49.5667 % 6.95 C
2452 08-05-2011 00:00:00 19.07167 C 37.5667 % 4.28 C
2453 09-05-2011 00:00:00 18.40083 C 39.3250 % 4.33 C
2454 10-05-2011 00:00:00 17.95833 C 50.2083 % 7.45 C
2455 11-05-2011 00:00:00 18.40667 C 60.4833 % 10.63 C
2456 12-05-2011 00:00:00 15.77833 C 53.4917 % 6.36 C
2457 13-05-2011 00:00:00 13.68403 C 52.7983 % 4.24 C
2458 14-05-2011 00:00:00 12.59917 C 53.0417 % 3.3 C
2459 15-05-2011 00:00:00 10.34333 C 63.7833 % 3.79 C
2460 16-05-2011 00:00:00 12.58667 C 60.3917 % 5.13 C
2461 17-05-2011 00:00:00 17.04083 C 51.7667 % 7.06 C
2462 18-05-2011 00:00:00 16.60583 C 55.1333 % 7.57 C
2463 19-05-2011 00:00:00 17.10833 C 62.0917 % 9.8 C
2464 20-05-2011 00:00:00 16.53 C 72.2833 % 11.53 C
2465 21-05-2011 00:00:00 19.16077 C 60.6385 % 11.38 C
2466 22-05-2011 00:00:00 16.79593 C 62.6667 % 9.64 C
2467 23-05-2011 00:00:00 16.00167 C 49.6833 % 5.5 C
2468 24-05-2011 00:00:00 15.90583 C 48.1000 % 4.95 C
2469 25-05-2011 00:00:00 15.29333 C 44.6833 % 3.34 C
2470 26-05-2011 00:00:00 16.04833 C 43.0167 % 3.49 C
2471 27-05-2011 00:00:00 14.61 C 44.7667 % 2.75 C
2472 28-05-2011 00:00:00 15.2875 C 48.6000 % 4.53 C
2473 29-05-2011 00:00:00 19.21849 C 41.4286 % 5.81 C
2474 30-05-2011 00:00:00 20.91333 C 47.3750 % 9.3 C
2475 31-05-2011 00:00:00 14.84583 C 71.3000 % 9.7 C
Sensor: Nr:Datum:Temp:Feuchte:Taupunkt:
Aussen-T/F 2476 01-06-2011 00:00:00 14.86083 C 55.0833 % 5.94 C
2477 02-06-2011 00:00:00 19.79167 C 41.8750 % 6.48 C
2478 03-06-2011 00:00:00 20.65583 C 37.7917 % 5.77 C
2479 04-06-2011 00:00:00 21.20417 C 56.0500 % 12.1 C
2480 05-06-2011 00:00:00 18.63333 C 81.4833 % 15.4 C
2481 06-06-2011 00:00:00 18.38667 C 75.9000 % 14.06 C
2482 07-06-2011 00:00:00 20.62417 C 61.2917 % 12.92 C
2483 08-06-2011 00:00:00 15.695 C 66.5583 % 9.49 C
2484 09-06-2011 00:00:00 14.09328 C 68.2437 % 8.34 C
2485 10-06-2011 00:00:00 14.6563 C 70.2437 % 9.3 C
2486 11-06-2011 00:00:00 15.99417 C 59.1250 % 8.03 C
2487 12-06-2011 00:00:00 15.21167 C 56.7750 % 6.7 C
2488 13-06-2011 00:00:00 16.92167 C 58.7417 % 8.8 C
2489 14-06-2011 00:00:00 20.63333 C 59.4000 % 12.45 C
2490 15-06-2011 00:00:00 19.88909 C 59.3000 % 11.72 C
2491 16-06-2011 00:00:00 15.99375 C 61.2500 % 8.54 C
2492 17-06-2011 00:00:00 15.96417 C 59.6833 % 8.14 C
2493 18-06-2011 00:00:00 15.91083 C 58.8917 % 7.89 C
2494 19-06-2011 00:00:00 14.57917 C 57.0417 % 6.18 C
2495 20-06-2011 00:00:00 13.67417 C 78.2583 % 9.96 C
2496 21-06-2011 00:00:00 19.2575 C 67.7583 % 13.15 C
2497 22-06-2011 00:00:00 18.02773 C 72.1597 % 12.94 C
2498 23-06-2011 00:00:00 16.265 C 59.2250 % 8.3 C
2499 24-06-2011 00:00:00 14.2775 C 58.5250 % 6.27 C
2500 25-06-2011 00:00:00 13.42417 C 77.5000 % 9.57 C
Sensor: Nr:Datum:Temp:Feuchte:Taupunkt:
Aussen-T/F 2501 26-06-2011 00:00:00 15 C 80.0000 % 11.58 C
2502 27-06-2011 00:00:00 17.65667 C 72.5083 % 12.66 C
2503 28-06-2011 00:00:00 25.33167 C 49.5333 % 14.02 C
2504 29-06-2011 00:00:00 20.62 C 64.0583 % 13.59 C
2505 30-06-2011 00:00:00 17.92833 C 46.7417 % 6.39 C
2506 01-07-2011 00:00:00 15.115 C 62.0000 % 7.9 C
2507 02-07-2011 00:00:00 14.5975 C 56.8083 % 6.14 C
2508 03-07-2011 00:00:00 16.92083 C 48.2583 % 5.93 C
2509 04-07-2011 00:00:00 16.2 C 55.0000 % 7.16 C
2510 05-07-2011 00:00:00 24.435 C 44.7625 % 11.65 C
2511 06-07-2011 00:00:00 20.39333 C 51.4417 % 10.05 C
2512 07-07-2011 00:00:00 19.52083 C 53.1917 % 9.75 C
2513 08-07-2011 00:00:00 19.92333 C 49.6583 % 9.1 C
2514 09-07-2011 00:00:00 21.28083 C 46.1667 % 9.26 C
2515 10-07-2011 00:00:00 18.22833 C 60.4000 % 10.44 C
2516 11-07-2011 00:00:00 20.90417 C 55.0583 % 11.55 C
2517 12-07-2011 00:00:00 19.89917 C 61.4750 % 12.28 C
2518 13-07-2011 00:00:00 15.985 C 78.1250 % 12.18 C
2519 14-07-2011 00:00:00 15.70417 C 52.2083 % 5.94 C
2520 15-07-2011 00:00:00 18.7025 C 41.8750 % 5.5 C
2521 16-07-2011 00:00:00 18.92269 C 46.1933 % 7.12 C
2522 17-07-2011 00:00:00 17.68667 C 65.9583 % 11.25 C
2523 18-07-2011 00:00:00 16.98583 C 56.7583 % 8.35 C
2524 19-07-2011 00:00:00 16.52167 C 65.5917 % 10.06 C
2525 20-07-2011 00:00:00 15.91917 C 76.3167 % 11.76 C
Sensor: Nr:Datum:Temp:Feuchte:Taupunkt:
Aussen-T/F 2526 21-07-2011 00:00:00 16.59583 C 76.6083 % 12.47 C
2527 22-07-2011 00:00:00 16.87083 C 58.2333 % 8.62 C
2528 23-07-2011 00:00:00 13.94417 C 62.1417 % 6.82 C
2529 24-07-2011 00:00:00 12.63083 C 75.5917 % 8.44 C
2530 25-07-2011 00:00:00 16.39417 C 63.4083 % 9.44 C
2531 26-07-2011 00:00:00 16.5375 C 73.3667 % 11.76 C
2532 27-07-2011 00:00:00 17.045 C 76.9417 % 12.97 C
2533 28-07-2011 00:00:00 18.71345 C 71.7899 % 13.52 C
2534 29-07-2011 00:00:00 17.87583 C 65.5000 % 11.33 C
2535 30-07-2011 00:00:00 15.04833 C 66.9083 % 8.95 C
2536 31-07-2011 00:00:00 15.27667 C 58.7917 % 7.27 C
2537 01-08-2011 00:00:00 16.885 C 62.5250 % 9.69 C
2538 02-08-2011 00:00:00 20.45917 C 60.0667 % 12.45 C
2539 03-08-2011 00:00:00 19.3425 C 74.8750 % 14.77 C
2540 04-08-2011 00:00:00 21.59083 C 66.0417 % 14.98 C
2541 05-08-2011 00:00:00 22.10417 C 66.0500 % 15.47 C
2542 06-08-2011 00:00:00 19.43333 C 80.8333 % 16.06 C
2543 07-08-2011 00:00:00 17.99583 C 60.5083 % 10.25 C
2544 08-08-2011 00:00:00 15.61 C 65.0500 % 9.07 C
2545 09-08-2011 00:00:00 15.21177 C 65.5882 % 8.82 C
2546 10-08-2011 00:00:00 11.545 C 70.7500 % 6.42 C
2547 11-08-2011 00:00:00 15.27417 C 59.8917 % 7.54 C
2548 12-08-2011 00:00:00 17.7625 C 71.7917 % 12.61 C
2549 13-08-2011 00:00:00 19.08833 C 72.0417 % 13.93 C
2550 14-08-2011 00:00:00 18.79167 C 79.1417 % 15.1 C
Sensor: Nr:Datum:Temp:Feuchte:Taupunkt:
Aussen-T/F 2551 15-08-2011 00:00:00 19.07917 C 64.2167 % 12.17 C
2552 16-08-2011 00:00:00 18.73083 C 60.4333 % 10.92 C
2553 17-08-2011 00:00:00 18.89 C 66.1833 % 12.45 C
2554 18-08-2011 00:00:00 22.63167 C 61.2417 % 14.79 C
2555 19-08-2011 00:00:00 19.24667 C 68.7333 % 13.36 C
2556 20-08-2011 00:00:00 18.59833 C 65.7167 % 12.06 C
2557 21-08-2011 00:00:00 20.63583 C 69.0417 % 14.76 C
2558 22-08-2011 00:00:00 23.83613 C 62.0504 % 16.13 C
2559 23-08-2011 00:00:00 23.46583 C 60.9833 % 15.51 C
2560 24-08-2011 00:00:00 20.97833 C 67.3417 % 14.7 C
2561 25-08-2011 00:00:00 20.68833 C 69.8333 % 14.99 C
2562 26-08-2011 00:00:00 20.87 C 74.2833 % 16.12 C
2563 27-08-2011 00:00:00 15.035 C 76.8333 % 11.01 C
2564 28-08-2011 00:00:00 15.25583 C 63.6333 % 8.41 C
2565 29-08-2011 00:00:00 14.68667 C 59.3667 % 6.86 C
2566 30-08-2011 00:00:00 12.15833 C 69.4583 % 6.74 C
2567 31-08-2011 00:00:00 13.1325 C 69.1000 % 7.6 C
2568 01-09-2011 00:00:00 15.16083 C 67.3250 % 9.15 C
2569 02-09-2011 00:00:00 17.55667 C 71.4250 % 12.33 C
2570 03-09-2011 00:00:00 20.71597 C 69.7311 % 14.99 C
2571 04-09-2011 00:00:00 21.65833 C 66.8333 % 15.23 C
2572 05-09-2011 00:00:00 17.79667 C 52.4583 % 7.95 C
2573 06-09-2011 00:00:00 15.93333 C 57.8333 % 7.64 C
2574 07-09-2011 00:00:00 16.43 C 56.2417 % 7.7 C
2575 08-09-2011 00:00:00 15.3775 C 59.5333 % 7.55 C
Sensor: Nr:Datum:Temp:Feuchte:Taupunkt:
Aussen-T/F 2576 09-09-2011 00:00:00 18.46 C 74.5500 % 13.86 C
2577 10-09-2011 00:00:00 21.15667 C 77.6667 % 17.1 C
2578 11-09-2011 00:00:00 17.895 C 81.2500 % 14.64 C
2579 12-09-2011 00:00:00 17.43583 C 68.8250 % 11.65 C
2580 13-09-2011 00:00:00 18.005 C 66.8333 % 11.75 C
2581 14-09-2011 00:00:00 14.43917 C 60.2417 % 6.84 C
2582 15-09-2011 00:00:00 13.91583 C 66.4583 % 7.78 C
2583 16-09-2011 00:00:00 12.79667 C 78.8750 % 9.23 C
2584 17-09-2011 00:00:00 16.78824 C 67.5798 % 10.76 C
2585 18-09-2011 00:00:00 12.7625 C 73.2333 % 8.1 C
2586 19-09-2011 00:00:00 12.76833 C 68.7167 % 7.17 C
2587 20-09-2011 00:00:00 12.41333 C 74.0667 % 7.93 C
2588 21-09-2011 00:00:00 13.775 C 70.1333 % 8.43 C
2589 22-09-2011 00:00:00 15.79167 C 59.3417 % 7.89 C
2590 23-09-2011 00:00:00 14.20917 C 64.8250 % 7.69 C
2591 24-09-2011 00:00:00 12.8025 C 74.2750 % 8.34 C
2592 25-09-2011 00:00:00 14.1125 C 76.8000 % 10.11 C
2593 26-09-2011 00:00:00 15.74917 C 76.1250 % 11.56 C
2594 27-09-2011 00:00:00 17.1525 C 74.8583 % 12.66 C
2595 28-09-2011 00:00:00 16.71 C 77.5333 % 12.77 C
2596 29-09-2011 00:00:00 16.13167 C 75.2500 % 11.75 C
2597 30-09-2011 00:00:00 14.48824 C 75.4034 % 10.2 C
2598 01-10-2011 00:00:00 14.3525 C 77.3833 % 10.45 C
2599 02-10-2011 00:00:00 14.74 C 77.1417 % 10.78 C
2600 03-10-2011 00:00:00 15.125 C 75.4750 % 10.82 C
Sensor: Nr:Datum:Temp:Feuchte:Taupunkt:
Aussen-T/F 2601 04-10-2011 00:00:00 16.96167 C 63.1167 % 9.9 C
2602 05-10-2011 00:00:00 17.94667 C 59.6250 % 9.98 C
2603 06-10-2011 00:00:00 14.175 C 69.3833 % 8.66 C
2604 07-10-2011 00:00:00 9.92583 C 66.5083 % 3.99 C
2605 08-10-2011 00:00:00 9.01167 C 73.3417 % 4.51 C
2606 09-10-2011 00:00:00 9.11667 C 79.0750 % 5.69 C
2607 10-10-2011 00:00:00 16.5475 C 68.2167 % 10.67 C
2608 11-10-2011 00:00:00 16.37917 C 62.5417 % 9.22 C
2609 12-10-2011 00:00:00 15.74333 C 66.8000 % 9.59 C
2610 13-10-2011 00:00:00 10.145 C 73.3667 % 5.6 C
2611 14-10-2011 00:00:00 6.14286 C 78.8151 % 2.75 C
2612 15-10-2011 00:00:00 4.65417 C 78.8000 % 1.3 C
2613 16-10-2011 00:00:00 4.29833 C 79.7583 % 1.12 C
2614 17-10-2011 00:00:00 6.42917 C 82.1833 % 3.62 C
2615 18-10-2011 00:00:00 8.99833 C 81.0167 % 5.92 C
2616 19-10-2011 00:00:00 8.2025 C 70.7333 % 3.21 C
2617 20-10-2011 00:00:00 5.4275 C 79.8333 % 2.23 C
2618 21-10-2011 00:00:00 3.16333 C 87.6917 % 1.32 C
2619 22-10-2011 00:00:00 3.45333 C 82.2083 % 0.71 C
2620 23-10-2011 00:00:00 2.44833 C 85.8917 % 0.33 C
2621 24-10-2011 00:00:00 5.85083 C 75.8167 % 1.92 C
2622 25-10-2011 00:00:00 9.17417 C 73.4750 % 4.69 C
2623 26-10-2011 00:00:00 9.305 C 71.1750 % 4.36 C
2624 27-10-2011 00:00:00 5.69333 C 85.4917 % 3.46 C
2625 28-10-2011 00:00:00 8.32857 C 86.7731 % 6.26 C
Sensor: Nr:Datum:Temp:Feuchte:Taupunkt:
Aussen-T/F 2626 29-10-2011 00:00:00 10.61667 C 83.0000 % 7.85 C
2627 30-10-2011 00:00:00 12.2192 C 86.1680 % 9.98 C
2628 31-10-2011 00:00:00 11.39 C 86.4000 % 9.2 C
2629 01-11-2011 00:00:00 9.17333 C 84.4083 % 6.69 C
2630 02-11-2011 00:00:00 10.59667 C 80.8500 % 7.45 C
2631 03-11-2011 00:00:00 11.35583 C 71.9417 % 6.48 C
2632 04-11-2011 00:00:00 10.15333 C 80.0500 % 6.87 C
2633 05-11-2011 00:00:00 10.31333 C 76.4167 % 6.35 C
2634 06-11-2011 00:00:00 8.90583 C 84.0333 % 6.36 C
2635 07-11-2011 00:00:00 8.85 C 80.9583 % 5.77 C
2636 08-11-2011 00:00:00 5.84583 C 87.4583 % 3.93 C
2637 09-11-2011 00:00:00 6.5025 C 86.5500 % 4.43 C
2638 10-11-2011 00:00:00 6.29328 C 81.6218 % 3.39 C
2639 11-11-2011 00:00:00 6.25417 C 76.0750 % 2.36 C
2640 12-11-2011 00:00:00 4.20083 C 82.4417 % 1.48 C
2641 13-11-2011 00:00:00 4.15833 C 85.7750 % 1.99 C
2642 14-11-2011 00:00:00 0.35917 C 92.4167 % -0.72 C
2643 15-11-2011 00:00:00 0.25583 C 92.2667 % -0.85 C
2644 16-11-2011 00:00:00 -1.305 C 91.7000 % -2.48 C
2645 17-11-2011 00:00:00 3.935 C 80.2583 % 0.85 C
2646 18-11-2011 00:00:00 7.49833 C 83.7333 % 4.93 C
2647 19-11-2011 00:00:00 5.435 C 89.5667 % 3.86 C
2648 20-11-2011 00:00:00 6.58083 C 80.3583 % 3.45 C
2649 21-11-2011 00:00:00 1.40917 C 92.2250 % 0.29 C
2650 22-11-2011 00:00:00 1.14083 C 92.1583 % 0.01 C
Sensor: Nr:Datum:Temp:Feuchte:Taupunkt:
Aussen-T/F 2651 23-11-2011 00:00:00 1.59583 C 92.8833 % 0.57 C
2652 24-11-2011 00:00:00 2.37083 C 92.1167 % 1.23 C
2653 25-11-2011 00:00:00 1.0775 C 85.7083 % -1.04 C
2654 26-11-2011 00:00:00 6.25167 C 75.0583 % 2.17 C
2655 27-11-2011 00:00:00 7.40833 C 70.7917 % 2.46 C
2656 28-11-2011 00:00:00 0.83833 C 92.3250 % -0.26 C
2657 29-11-2011 00:00:00 1.88167 C 89.6667 % 0.37 C
2658 30-11-2011 00:00:00 4.85083 C 85.9250 % 2.7 C
2659 01-12-2011 00:00:00 5.52417 C 87.8333 % 3.67 C
2660 02-12-2011 00:00:00 7.12667 C 77.6917 % 3.5 C
2661 03-12-2011 00:00:00 6.26583 C 76.7250 % 2.49 C
2662 04-12-2011 00:00:00 8.2975 C 80.9000 % 5.22 C
2663 05-12-2011 00:00:00 4.38417 C 71.7167 % -0.26 C
2664 06-12-2011 00:00:00 4.445 C 67.2500 % -1.08 C
2665 07-12-2011 00:00:00 5.57833 C 70.8167 % 0.71 C
2666 08-12-2011 00:00:00 6.22333 C 62.1250 % -0.48 C
2667 09-12-2011 00:00:00 5.94583 C 71.2167 % 1.14 C
2668 10-12-2011 00:00:00 1.885 C 76.4500 % -1.81 C
2669 11-12-2011 00:00:00 0.43667 C 83.0417 % -2.1 C
2670 12-12-2011 00:00:00 5.96583 C 76.8000 % 2.21 C
2671 13-12-2011 00:00:00 6.86417 C 68.8250 % 1.55 C
2672 14-12-2011 00:00:00 6.68371 C 80.3447 % 3.55 C
2673 15-12-2011 00:00:00 6.13646 C 77.7778 % 2.56 C
2674 16-12-2011 00:00:00 6.07222 C 83.0347 % 3.41 C
2675 17-12-2011 00:00:00 3.63507 C 84.7535 % 1.31 C
Sensor: Nr:Datum:Temp:Feuchte:Taupunkt:
Aussen-T/F 2676 18-12-2011 00:00:00 2.25764 C 86.7604 % 0.29 C
2677 19-12-2011 00:00:00 1.70208 C 86.1250 % -0.36 C
2678 20-12-2011 00:00:00 2.28715 C 90.9132 % 0.96 C
2679 21-12-2011 00:00:00 4.19792 C 87.9167 % 2.38 C
2680 22-12-2011 00:00:00 6.57917 C 94.6910 % 5.79 C
2681 23-12-2011 00:00:00 8.41806 C 90.8021 % 7 C
2682 24-12-2011 00:00:00 5.63368 C 83.5243 % 3.07 C
2683 25-12-2011 00:00:00 5.68472 C 86.3750 % 3.59 C
2684 26-12-2011 00:00:00 8.12222 C 89.4931 % 6.5 C
2685 27-12-2011 00:00:00 8.25139 C 89.0139 % 6.55 C
2686 28-12-2011 00:00:00 5.71424 C 86.6597 % 3.67 C
2687 29-12-2011 00:00:00 5.51667 C 80.4757 % 2.43 C
2688 30-12-2011 00:00:00 4.24861 C 83.3125 % 1.68 C
2689 31-12-2011 00:00:00 5.15729 C 93.6007 % 4.21 C
2690 01-01-2012 00:00:00 12.02807 C 88.3754 % 10.17 C
2691 02-01-2012 00:00:00 8.87847 C 88.2917 % 7.05 C
2692 03-01-2012 00:00:00 7.43403 C 81.7917 % 4.53 C
2693 04-01-2012 00:00:00 6.56875 C 76.5174 % 2.75 C
2694 05-01-2012 00:00:00 6.88368 C 80.3785 % 3.75 C
2695 06-01-2012 00:00:00 5.40208 C 81.6389 % 2.52 C
2696 07-01-2012 00:00:00 5.54653 C 84.9201 % 3.22 C
2697 08-01-2012 00:00:00 5.96042 C 84.6111 % 3.57 C
2698 09-01-2012 00:00:00 6.11424 C 89.9479 % 4.59 C
2699 10-01-2012 00:00:00 6.93056 C 91.1319 % 5.59 C
2700 11-01-2012 00:00:00 8.11597 C 82.0938 % 5.25 C
Sensor: Nr:Datum:Temp:Feuchte:Taupunkt:
Aussen-T/F 2701 12-01-2012 00:00:00 8.18819 C 82.4028 % 5.37 C
2702 13-01-2012 00:00:00 5.12569 C 75.8264 % 1.22 C
2703 14-01-2012 00:00:00 3.95417 C 78.8958 % 0.63 C
2704 15-01-2012 00:00:00 -0.23715 C 94.8993 % -0.95 C
2705 16-01-2012 00:00:00 -1.80312 C 94.0521 % -2.63 C
2706 17-01-2012 00:00:00 -2.78368 C 92.5069 % -3.83 C
2707 18-01-2012 00:00:00 -0.12708 C 89.9653 % -1.57 C
2708 19-01-2012 00:00:00 6.67639 C 90.1007 % 5.17 C
2709 20-01-2012 00:00:00 4.025 C 86.9236 % 2.05 C
2710 21-01-2012 00:00:00 5.73681 C 89.5382 % 4.15 C
2711 22-01-2012 00:00:00 6.85764 C 76.0660 % 2.94 C
2712 23-01-2012 00:00:00 5.22708 C 82.6806 % 2.53 C
2713 24-01-2012 00:00:00 3.1191 C 90.7222 % 1.75 C
2714 25-01-2012 00:00:00 0.47708 C 94.7813 % -0.26 C
2715 26-01-2012 00:00:00 1.84132 C 84.3368 % -0.51 C
2716 27-01-2012 00:00:00 2.58437 C 92.0104 % 1.42 C
2717 28-01-2012 00:00:00 2.69896 C 87.8090 % 0.89 C
2718 29-01-2012 00:00:00 0.84583 C 81.3299 % -1.98 C
2719 30-01-2012 00:00:00 -0.00208 C 80.3854 % -2.97 C
2720 31-01-2012 00:00:00 -1.90972 C 70.0243 % -6.64 C
2721 01-02-2012 00:00:00 -5.28403 C 61.1667 % -11.58 C
2722 02-02-2012 00:00:00 -7.12396 C 51.7535 % -15.35 C
2723 03-02-2012 00:00:00 -8.52361 C 68.2153 % -13.32 C
2724 04-02-2012 00:00:00 -8.31389 C 77.7396 % -11.5 C
2725 05-02-2012 00:00:00 -9.04861 C 72.3715 % -13.1 C
Sensor: Nr:Datum:Temp:Feuchte:Taupunkt:
Aussen-T/F 2726 06-02-2012 00:00:00 -9.67674 C 69.6979 % -14.16 C
2727 07-02-2012 00:00:00 -9.19832 C 69.3067 % -13.77 C
2728 08-02-2012 00:00:00 -5.57083 C 72.6528 % -9.69 C
2729 09-02-2012 00:00:00 -7.39479 C 86.5868 % -9.24 C
2730 10-02-2012 00:00:00 -6.11875 C 75.6354 % -9.71 C
2731 11-02-2012 00:00:00 -8.24931 C 70.5451 % -12.64 C
2732 12-02-2012 00:00:00 -6.58063 C 72.4466 % -10.7 C
2733 13-02-2012 00:00:00 -0.88993 C 82.6458 % -3.46 C
2734 14-02-2012 00:00:00 1.59931 C 93.4410 % 0.66 C
2735 15-02-2012 00:00:00 3.97674 C 86.0694 % 1.86 C
2736 16-02-2012 00:00:00 3.54896 C 91.1875 % 2.25 C
2737 17-02-2012 00:00:00 5.57917 C 87.8576 % 3.73 C
2738 18-02-2012 00:00:00 6.37083 C 88.0556 % 4.54 C
2739 19-02-2012 00:00:00 2.99271 C 87.9861 % 1.2 C
2740 20-02-2012 00:00:00 1.18333 C 84.9583 % -1.06 C
2741 21-02-2012 00:00:00 1.84583 C 78.4063 % -1.5 C
2742 22-02-2012 00:00:00 3.17951 C 81.1493 % 0.27 C
2743 23-02-2012 00:00:00 6.17352 C 81.6864 % 3.28 C
2744 24-02-2012 00:00:00 9.38101 C 86.6938 % 7.28 C
2745 25-02-2012 00:00:00 8.6186 C 80.9439 % 5.54 C
2746 26-02-2012 00:00:00 5.29167 C 88.4757 % 3.55 C
2747 27-02-2012 00:00:00 5.81944 C 83.3333 % 3.22 C
2748 28-02-2012 00:00:00 8.57639 C 85.4861 % 6.28 C
2749 29-02-2012 00:00:00 9.49583 C 92.3403 % 8.32 C
2750 01-03-2012 00:00:00 9.01563 C 93.6979 % 8.06 C
Sensor: Nr:Datum:Temp:Feuchte:Taupunkt:
Aussen-T/F 2751 02-03-2012 00:00:00 8.57986 C 92.6771 % 7.46 C
2752 03-03-2012 00:00:00 7.91597 C 90.3438 % 6.43 C
2753 04-03-2012 00:00:00 8.65625 C 81.6354 % 5.7 C
2754 05-03-2012 00:00:00 5.81597 C 77.6597 % 2.22 C
2755 06-03-2012 00:00:00 5.43924 C 73.2222 % 1.04 C
2756 07-03-2012 00:00:00 2.91784 C 81.1970 % 0.02 C
2757 08-03-2012 00:00:00 5.35833 C 80.5347 % 2.29 C
2758 09-03-2012 00:00:00 4.88437 C 78.4410 % 1.46 C
2759 10-03-2012 00:00:00 8.58723 C 78.8759 % 5.14 C
2760 11-03-2012 00:00:00 9.26151 C 82.9496 % 6.52 C
2761 12-03-2012 00:00:00 8.06347 C 86.5240 % 5.96 C
2762 13-03-2012 00:00:00 7.68299 C 83.6458 % 5.1 C
2763 14-03-2012 00:00:00 6.93542 C 78.8819 % 3.53 C
2764 15-03-2012 00:00:00 7.07812 C 79.2431 % 3.73 C
2765 16-03-2012 00:00:00 10.0412 C 69.7077 % 4.77 C
2766 17-03-2012 00:00:00 9.42917 C 75.0799 % 5.24 C
2767 18-03-2012 00:00:00 8.64931 C 83.8368 % 6.07 C
2768 19-03-2012 00:00:00 7.34303 C 72.1270 % 2.66 C
2769 20-03-2012 00:00:00 6.68807 C 68.1687 % 1.25 C
2770 21-03-2012 00:00:00 7.73902 C 69.3206 % 2.49 C
2771 22-03-2012 00:00:00 10.04583 C 71.3403 % 5.1 C
2772 23-03-2012 00:00:00 11.69132 C 71.9826 % 6.82 C
2773 24-03-2012 00:00:00 11.62674 C 70.9132 % 6.54 C
2774 25-03-2012 00:00:00 12.80873 C 62.8291 % 5.91 C
2775 26-03-2012 00:00:00 11.16806 C 58.5764 % 3.36 C
Sensor: Nr:Datum:Temp:Feuchte:Taupunkt:
Aussen-T/F 2776 27-03-2012 00:00:00 11.10694 C 65.9826 % 5 C
2777 28-03-2012 00:00:00 11.74201 C 67.7188 % 5.98 C
2778 29-03-2012 00:00:00 9.58194 C 71.1354 % 4.62 C
2779 30-03-2012 00:00:00 9.39062 C 79.1701 % 5.97 C
2780 31-03-2012 00:00:00 7.98706 C 76.3042 % 4.08 C
2781 01-04-2012 00:00:00 4.77396 C 63.6736 % -1.51 C
2782 02-04-2012 00:00:00 6.69514 C 71.1493 % 1.85 C
2783 03-04-2012 00:00:00 11.08125 C 62.9931 % 4.31 C
2784 04-04-2012 00:00:00 9.89722 C 82.2743 % 7.02 C
2785 05-04-2012 00:00:00 7.74514 C 80.8958 % 4.68 C
2786 06-04-2012 00:00:00 7.88292 C 67.6655 % 2.28 C
2787 07-04-2012 00:00:00 5.61389 C 72.7882 % 1.13 C
2788 08-04-2012 00:00:00 5.19194 C 54.1941 % -3.29 C
2789 09-04-2012 00:00:00 7.24583 C 83.3264 % 4.61 C
2790 10-04-2012 00:00:00 11.25451 C 77.8646 % 7.54 C
2791 11-04-2012 00:00:00 9.71215 C 72.8056 % 5.08 C
2792 12-04-2012 00:00:00 6.41736 C 84.4444 % 3.99 C
2793 13-04-2012 00:00:00 6.76632 C 81.2847 % 3.79 C
2794 14-04-2012 00:00:00 7.83021 C 71.5486 % 3.02 C
2795 15-04-2012 00:00:00 8.52361 C 73.9826 % 4.16 C
2796 16-04-2012 00:00:00 5.92438 C 63.9835 % -0.36 C
2797 17-04-2012 00:00:00 5.90382 C 59.8090 % -1.3 C
2798 18-04-2012 00:00:00 8.72674 C 72.5451 % 4.08 C
2799 19-04-2012 00:00:00 8.47422 C 80.8084 % 5.37 C
2800 20-04-2012 00:00:00 7.34574 C 84.4529 % 4.9 C
Sensor: Nr:Datum:Temp:Feuchte:Taupunkt:
Aussen-T/F 2801 21-04-2012 00:00:00 8.16701 C 81.3229 % 5.16 C
2802 22-04-2012 00:00:00 7.84306 C 80.2049 % 4.65 C
2803 23-04-2012 00:00:00 8.39097 C 79.6389 % 5.08 C
2804 24-04-2012 00:00:00 8.89757 C 84.6181 % 6.45 C
2805 25-04-2012 00:00:00 10.14167 C 78.2292 % 6.53 C
2806 26-04-2012 00:00:00 11.47083 C 79.8958 % 8.13 C
2807 27-04-2012 00:00:00 12.5625 C 82.5104 % 9.67 C
2808 28-04-2012 00:00:00 18.10903 C 72.5139 % 13.09 C
2809 29-04-2012 00:00:00 16.89826 C 73.1979 % 12.07 C
2810 30-04-2012 00:00:00 17.93194 C 63.6007 % 10.94 C
2811 01-05-2012 00:00:00 17.12465 C 71.7708 % 11.99 C
2812 02-05-2012 00:00:00 15.24479 C 86.9549 % 13.09 C
2813 03-05-2012 00:00:00 13.43472 C 77.5035 % 9.59 C
2814 04-05-2012 00:00:00 14.57083 C 73.6806 % 9.93 C
2815 05-05-2012 00:00:00 11.45069 C 92.9271 % 10.35 C
2816 06-05-2012 00:00:00 10.57674 C 92.8021 % 9.46 C
2817 07-05-2012 00:00:00 10.38681 C 83.5556 % 7.73 C
2818 08-05-2012 00:00:00 13.89063 C 73.1215 % 9.16 C
2819 09-05-2012 00:00:00 16.78229 C 82.0903 % 13.71 C
2820 10-05-2012 00:00:00 19.11111 C 78.7257 % 15.33 C
2821 11-05-2012 00:00:00 19.125 C 80.7014 % 15.73 C
2822 12-05-2012 00:00:00 11.31289 C 69.8188 % 6.01 C
2823 13-05-2012 00:00:00 9.38646 C 66.5382 % 3.48 C
2824 14-05-2012 00:00:00 11.40799 C 62.7778 % 4.57 C
2825 15-05-2012 00:00:00 9.5625 C 74.6979 % 5.3 C
Sensor: Nr:Datum:Temp:Feuchte:Taupunkt:
Aussen-T/F 2826 16-05-2012 00:00:00 8.66597 C 76.0417 % 4.69 C
2827 17-05-2012 00:00:00 9.38889 C 67.5799 % 3.7 C
2828 18-05-2012 00:00:00 12.68299 C 77.1667 % 8.79 C
2829 19-05-2012 00:00:00 15.71389 C 82.6667 % 12.77 C
2830 20-05-2012 00:00:00 17.6684 C 78.6076 % 13.91 C
2831 21-05-2012 00:00:00 18.52986 C 81.4410 % 15.29 C
2832 22-05-2012 00:00:00 21.31944 C 73.3576 % 16.36 C
2833 23-05-2012 00:00:00 18.79965 C 89.2743 % 17 C
2834 24-05-2012 00:00:00 20.69687 C 73.7639 % 15.85 C
2835 25-05-2012 00:00:00 19.45313 C 48.2882 % 8.25 C
2836 26-05-2012 00:00:00 18.11007 C 54.3056 % 8.75 C
2837 27-05-2012 00:00:00 18.05868 C 62.2743 % 10.74 C
2838 28-05-2012 00:00:00 18.93417 C 63.8705 % 11.95 C
2839 29-05-2012 00:00:00 18.46288 C 64.9508 % 11.76 C
2840 30-05-2012 00:00:00 17.68438 C 78.7569 % 13.95 C
2841 31-05-2012 00:00:00 16.03021 C 84.4167 % 13.4 C
2842 01-06-2012 00:00:00 15.74271 C 76.1632 % 11.56 C
2843 02-06-2012 00:00:00 15.19271 C 70.5938 % 9.89 C
2844 03-06-2012 00:00:00 12.60255 C 88.8727 % 10.82 C
2845 04-06-2012 00:00:00 13.31389 C 85.8576 % 11 C
2846 05-06-2012 00:00:00 12.15312 C 69.0486 % 6.65 C
2847 06-06-2012 00:00:00 13.09444 C 86.8056 % 10.95 C
2848 07-06-2012 00:00:00 16.45799 C 88.8576 % 14.62 C
2849 08-06-2012 00:00:00 17.34097 C 72.3854 % 12.33 C
2850 09-06-2012 00:00:00 14.79028 C 66.1215 % 8.53 C
Sensor: Nr:Datum:Temp:Feuchte:Taupunkt:
Aussen-T/F 2851 10-06-2012 00:00:00 15.29514 C 66.6736 % 9.14 C
2852 11-06-2012 00:00:00 14.57014 C 84.7083 % 12.03 C
2853 12-06-2012 00:00:00 14.40729 C 86.0764 % 12.11 C
2854 13-06-2012 00:00:00 12.57363 C 92.7692 % 11.44 C
2855 14-06-2012 00:00:00 14.15694 C 81.5104 % 11.04 C
2856 15-06-2012 00:00:00 16.11806 C 85.0833 % 13.61 C
2857 16-06-2012 00:00:00 15.40799 C 92.7326 % 14.24 C
2858 17-06-2012 00:00:00 17.28021 C 70.4549 % 11.86 C
2859 18-06-2012 00:00:00 18.57292 C 74.0694 % 13.87 C
2860 19-06-2012 00:00:00 17.44028 C 82.5590 % 14.44 C
2861 20-06-2012 00:00:00 16.35833 C 96.8785 % 15.86 C
2862 21-06-2012 00:00:00 18.41354 C 89.4583 % 16.65 C
2863 22-06-2012 00:00:00 16.36181 C 75.7083 % 12.07 C
2864 23-06-2012 00:00:00 16.63472 C 71.3924 % 11.44 C
2865 24-06-2012 00:00:00 14.73507 C 82.4306 % 11.78 C
2866 25-06-2012 00:00:00 15.09028 C 78.7917 % 11.44 C
2867 26-06-2012 00:00:00 16.43125 C 73.6111 % 11.71 C
2868 27-06-2012 00:00:00 18.07569 C 84.8264 % 15.48 C
2869 28-06-2012 00:00:00 21.87465 C 80.2743 % 18.32 C
2870 29-06-2012 00:00:00 20.49063 C 90.0868 % 18.81 C
2871 30-06-2012 00:00:00 20.14965 C 78.6563 % 16.32 C
2872 01-07-2012 00:00:00 17.98889 C 81.2882 % 14.74 C
2873 02-07-2012 00:00:00 15.24444 C 86.4826 % 13 C
2874 03-07-2012 00:00:00 18.02153 C 76.9132 % 13.91 C
2875 04-07-2012 00:00:00 19.87465 C 76.5000 % 15.62 C
Sensor: Nr:Datum:Temp:Feuchte:Taupunkt:
Aussen-T/F 2876 05-07-2012 00:00:00 19.09722 C 91.7153 % 17.72 C
2877 06-07-2012 00:00:00 19.21042 C 82.2708 % 16.11 C
2878 07-07-2012 00:00:00 19.57743 C 72.4514 % 14.49 C
2879 08-07-2012 00:00:00 17.84097 C 81.3542 % 14.6 C
2880 09-07-2012 00:00:00 18.63611 C 72.1944 % 13.53 C
2881 10-07-2012 00:00:00 19.1441 C 76.7604 % 14.97 C
2882 11-07-2012 00:00:00 16.03394 C 79.6861 % 12.53 C
2883 12-07-2012 00:00:00 14.8191 C 77.8715 % 11 C
2884 13-07-2012 00:00:00 15.50417 C 89.5694 % 13.8 C
2885 14-07-2012 00:00:00 15.27708 C 87.8125 % 13.27 C
2886 15-07-2012 00:00:00 14.52014 C 86.8542 % 12.36 C
2887 16-07-2012 00:00:00 15.02292 C 79.1840 % 11.45 C
2888 17-07-2012 00:00:00 17.55035 C 76.7431 % 13.42 C
2889 18-07-2012 00:00:00 19.89649 C 72.5088 % 14.81 C
2890 19-07-2012 00:00:00 18.18194 C 70.2743 % 12.68 C
2891 20-07-2012 00:00:00 14.85872 C 85.6406 % 12.48 C
2892 21-07-2012 00:00:00 15.04167 C 80.6493 % 11.74 C
2893 22-07-2012 00:00:00 14.62049 C 74.5139 % 10.15 C
2894 23-07-2012 00:00:00 17.15069 C 68.0972 % 11.22 C
2895 24-07-2012 00:00:00 19.81701 C 70.4826 % 14.3 C
2896 25-07-2012 00:00:00 22.11408 C 72.7218 % 16.99 C
2897 26-07-2012 00:00:00 23.10764 C 73.2326 % 18.05 C
2898 27-07-2012 00:00:00 22.2566 C 82.8021 % 19.19 C
2899 28-07-2012 00:00:00 19.03507 C 92.5660 % 17.8 C
2900 29-07-2012 00:00:00 17.61875 C 75.5799 % 13.26 C
Sensor: Nr:Datum:Temp:Feuchte:Taupunkt:
Aussen-T/F 2901 30-07-2012 00:00:00 16.17396 C 70.1250 % 10.73 C
2902 31-07-2012 00:00:00 16.33993 C 79.2778 % 12.75 C
2903 01-08-2012 00:00:00 20.08194 C 75.0521 % 15.52 C
2904 02-08-2012 00:00:00 20.75938 C 75.0938 % 16.19 C
2905 03-08-2012 00:00:00 19.31771 C 71.6042 % 14.06 C
2906 04-08-2012 00:00:00 19.1 C 71.9653 % 13.93 C
2907 05-08-2012 00:00:00 19.0875 C 83.3889 % 16.21 C
2908 06-08-2012 00:00:00 18.40312 C 78.4965 % 14.6 C
2909 07-08-2012 00:00:00 17.15556 C 73.1701 % 12.31 C
2910 08-08-2012 00:00:00 16.59132 C 79.3229 % 13 C
2911 09-08-2012 00:00:00 18.49479 C 77.0868 % 14.41 C
2912 10-08-2012 00:00:00 17.33299 C 71.4028 % 12.11 C
2913 11-08-2012 00:00:00 16.29444 C 73.2604 % 11.5 C
2914 12-08-2012 00:00:00 17.40486 C 68.6181 % 11.58 C
2915 13-08-2012 00:00:00 18.22326 C 73.1944 % 13.35 C
2916 14-08-2012 00:00:00 19.78993 C 79.0521 % 16.05 C
2917 15-08-2012 00:00:00 22.31354 C 70.9549 % 16.79 C
2918 16-08-2012 00:00:00 21.27535 C 67.3125 % 14.97 C
2919 17-08-2012 00:00:00 20.12986 C 70.1146 % 14.51 C
2920 18-08-2012 00:00:00 23.0066 C 67.4271 % 16.65 C
2921 19-08-2012 00:00:00 24.67083 C 69.9722 % 18.82 C
2922 20-08-2012 00:00:00 23.43229 C 80.3090 % 19.84 C
2923 21-08-2012 00:00:00 22.6875 C 81.6771 % 19.39 C
2924 22-08-2012 00:00:00 20.95729 C 64.6042 % 14.04 C
2925 23-08-2012 00:00:00 17.78194 C 65.1285 % 11.15 C
Sensor: Nr:Datum:Temp:Feuchte:Taupunkt:
Aussen-T/F 2926 24-08-2012 00:00:00 18.62842 C 81.4105 % 15.38 C
2927 25-08-2012 00:00:00 18.46493 C 78.6458 % 14.69 C
2928 26-08-2012 00:00:00 16.26667 C 78.3021 % 12.49 C
2929 27-08-2012 00:00:00 16.32049 C 79.0486 % 12.68 C
2930 28-08-2012 00:00:00 18.03507 C 74.6076 % 13.46 C
2931 29-08-2012 00:00:00 20.02396 C 77.5486 % 15.98 C
2932 30-08-2012 00:00:00 17.48889 C 81.0208 % 14.2 C
2933 31-08-2012 00:00:00 13.93646 C 84.9132 % 11.44 C
2934 01-09-2012 00:00:00 14.49236 C 76.3785 % 10.39 C
2935 02-09-2012 00:00:00 13.96285 C 82.2604 % 10.99 C
2936 03-09-2012 00:00:00 16.22222 C 79.7535 % 12.72 C
2937 04-09-2012 00:00:00 16.86098 C 82.0105 % 13.77 C
2938 05-09-2012 00:00:00 16.4125 C 79.7500 % 12.91 C
2939 06-09-2012 00:00:00 14.63604 C 70.9187 % 9.42 C
2940 07-09-2012 00:00:00 14.4309 C 73.8368 % 9.83 C
2941 08-09-2012 00:00:00 16.83403 C 70.1076 % 11.36 C
2942 09-09-2012 00:00:00 18.54722 C 68.1563 % 12.57 C
2943 10-09-2012 00:00:00 19.67847 C 67.2465 % 13.44 C
2944 11-09-2012 00:00:00 17.74028 C 83.6910 % 14.95 C
2945 12-09-2012 00:00:00 11.13646 C 93.3750 % 10.11 C
2946 13-09-2012 00:00:00 10.78611 C 90.3368 % 9.27 C
2947 14-09-2012 00:00:00 13.01424 C 83.7639 % 10.33 C
2948 15-09-2012 00:00:00 13.44514 C 88.4410 % 11.57 C
2949 16-09-2012 00:00:00 13.24236 C 85.5903 % 10.88 C
2950 17-09-2012 00:00:00 15.15729 C 83.0208 % 12.3 C
Sensor: Nr:Datum:Temp:Feuchte:Taupunkt:
Aussen-T/F 2951 18-09-2012 00:00:00 14.10868 C 84.2188 % 11.49 C
2952 19-09-2012 00:00:00 11.7684 C 70.2292 % 6.53 C
2953 20-09-2012 00:00:00 9.9566 C 72.9271 % 5.33 C
2954 21-09-2012 00:00:00 10.62118 C 79.5069 % 7.23 C
2955 22-09-2012 00:00:00 11.53611 C 80.2917 % 8.26 C
2956 23-09-2012 00:00:00 11.58819 C 78.6007 % 8 C
2957 24-09-2012 00:00:00 14.89201 C 84.5486 % 12.31 C
2958 25-09-2012 00:00:00 12.86597 C 88.1563 % 10.96 C
2959 26-09-2012 00:00:00 12.27917 C 95.0382 % 11.51 C
2960 27-09-2012 00:00:00 12.68611 C 88.7257 % 10.88 C
2961 28-09-2012 00:00:00 12.56701 C 85.9757 % 10.29 C
2962 29-09-2012 00:00:00 11.68819 C 84.0382 % 9.08 C
2963 30-09-2012 00:00:00 9.30035 C 89.3681 % 7.64 C
2964 01-10-2012 00:00:00 9.46319 C 85.2118 % 7.11 C
2965 02-10-2012 00:00:00 12.25764 C 84.6736 % 9.75 C
2966 03-10-2012 00:00:00 14.55312 C 82.0139 % 11.52 C
2967 04-10-2012 00:00:00 12.89722 C 83.2569 % 10.13 C
2968 05-10-2012 00:00:00 13.57986 C 85.1285 % 11.13 C
2969 06-10-2012 00:00:00 14.99065 C 84.0244 % 12.32 C
2970 07-10-2012 00:00:00 10.63669 C 85.8058 % 8.36 C
2971 08-10-2012 00:00:00 8.1958 C 91.4790 % 6.89 C
2972 09-10-2012 00:00:00 10.60348 C 82.4776 % 7.75 C
2973 10-10-2012 00:00:00 6.21146 C 91.4826 % 4.93 C
2974 11-10-2012 00:00:00 6.67361 C 92.2431 % 5.51 C
2975 12-10-2012 00:00:00 10.79653 C 89.9479 % 9.22 C
Sensor: Nr:Datum:Temp:Feuchte:Taupunkt:
Aussen-T/F 2976 13-10-2012 00:00:00 9.08472 C 85.8854 % 6.85 C
2977 14-10-2012 00:00:00 8.15833 C 90.5868 % 6.71 C
2978 15-10-2012 00:00:00 7.43264 C 92.8646 % 6.36 C
2979 16-10-2012 00:00:00 7.85556 C 89.7188 % 6.27 C
2980 17-10-2012 00:00:00 10.85972 C 90.2361 % 9.33 C
2981 18-10-2012 00:00:00 14.37569 C 85.3924 % 11.96 C
2982 19-10-2012 00:00:00 14.37187 C 89.1111 % 12.6 C
2983 20-10-2012 00:00:00 13.74722 C 92.9722 % 12.63 C
2984 21-10-2012 00:00:00 13.32917 C 93.7014 % 12.34 C
2985 22-10-2012 00:00:00 11.79062 C 93.9931 % 10.86 C
2986 23-10-2012 00:00:00 11.38403 C 87.8194 % 9.44 C
2987 24-10-2012 00:00:00 9.71528 C 91.8819 % 8.46 C
2988 25-10-2012 00:00:00 9.9441 C 92.9271 % 8.85 C
2989 26-10-2012 00:00:00 6.73542 C 93.3472 % 5.74 C
2990 27-10-2012 00:00:00 2.98993 C 78.3160 % -0.41 C
2991 28-10-2012 00:00:00 0.51181 C 90.1007 % -0.92 C
2992 29-10-2012 00:00:00 0.69306 C 92.2292 % -0.42 C
2993 30-10-2012 00:00:00 6.0566 C 90.8507 % 4.68 C
2994 31-10-2012 00:00:00 5.97118 C 91.2778 % 4.66 C
2995 01-11-2012 00:00:00 7.64965 C 85.8819 % 5.44 C
2996 02-11-2012 00:00:00 7.75417 C 81.4132 % 4.78 C
2997 03-11-2012 00:00:00 7.38542 C 94.0104 % 6.49 C
2998 04-11-2012 00:00:00 7.74028 C 92.3472 % 6.58 C
2999 05-11-2012 00:00:00 8.00382 C 84.4444 % 5.55 C
3000 06-11-2012 00:00:00 6.03264 C 87.7708 % 4.16 C
Sensor: Nr:Datum:Temp:Feuchte:Taupunkt:
Aussen-T/F 3001 07-11-2012 00:00:00 8.52535 C 86.8021 % 6.46 C
3002 08-11-2012 00:00:00 8.82222 C 80.7188 % 5.7 C
3003 09-11-2012 00:00:00 8.19861 C 83.9444 % 5.65 C
3004 10-11-2012 00:00:00 8.89201 C 93.0243 % 7.83 C
3005 11-11-2012 00:00:00 8.24097 C 92.3333 % 7.07 C
3006 12-11-2012 00:00:00 5.70868 C 88.6701 % 3.99 C
3007 13-11-2012 00:00:00 3.26076 C 94.2639 % 2.43 C
3008 14-11-2012 00:00:00 2.60312 C 94.3438 % 1.79 C
3009 15-11-2012 00:00:00 4.53958 C 88.2361 % 2.77 C
3010 16-11-2012 00:00:00 3.22222 C 87.5313 % 1.36 C
3011 17-11-2012 00:00:00 4.33472 C 93.4931 % 3.38 C
3012 18-11-2012 00:00:00 7.54896 C 95.9792 % 6.95 C
3013 19-11-2012 00:00:00 7.68403 C 95.0035 % 6.94 C
3014 20-11-2012 00:00:00 5.27188 C 93.6215 % 4.33 C
3015 21-11-2012 00:00:00 4.38681 C 91.7778 % 3.17 C
3016 22-11-2012 00:00:00 5.51111 C 94.8819 % 4.76 C
3017 23-11-2012 00:00:00 6.88472 C 93.0660 % 5.84 C
3018 24-11-2012 00:00:00 9.16042 C 89.4167 % 7.51 C
3019 25-11-2012 00:00:00 10.6066 C 72.8889 % 5.95 C
3020 26-11-2012 00:00:00 6.01493 C 95.3368 % 5.33 C
3021 27-11-2012 00:00:00 7.67986 C 89.1875 % 6.02 C
3022 28-11-2012 00:00:00 5.5184 C 91.1563 % 4.19 C
3023 29-11-2012 00:00:00 4.01319 C 86.8021 % 2.02 C
3024 30-11-2012 00:00:00 1.44375 C 93.9375 % 0.58 C
3025 01-12-2012 00:00:00 -0.39861 C 93.9271 % -1.25 C
Sensor: Nr:Datum:Temp:Feuchte:Taupunkt:
Aussen-T/F 3026 02-12-2012 00:00:00 2.39375 C 89.5035 % 0.85 C
3027 03-12-2012 00:00:00 2.27222 C 89.5486 % 0.74 C
3028 04-12-2012 00:00:00 3.75312 C 89.4653 % 2.18 C
3029 05-12-2012 00:00:00 2.86667 C 90.6389 % 1.49 C
3030 06-12-2012 00:00:00 0.5625 C 84.7813 % -1.7 C
3031 07-12-2012 00:00:00 -1.00382 C 91.2500 % -2.25 C
3032 08-12-2012 00:00:00 -4.66111 C 93.4826 % -5.55 C
3033 09-12-2012 00:00:00 0.22326 C 90.9479 % -1.08 C
3034 10-12-2012 00:00:00 2.70764 C 86.9965 % 0.77 C
3035 11-12-2012 00:00:00 -0.72396 C 86.9514 % -2.62 C
3036 12-12-2012 00:00:00 -3.40937 C 85.1563 % -5.54 C
3037 13-12-2012 00:00:00 -3.53646 C 88.4896 % -5.16 C
3038 14-12-2012 00:00:00 2.76076 C 92.6389 % 1.69 C
3039 15-12-2012 00:00:00 6.97153 C 92.2500 % 5.8 C
3040 16-12-2012 00:00:00 6.60868 C 91.0278 % 5.25 C
3041 17-12-2012 00:00:00 6.04792 C 93.6910 % 5.11 C
3042 18-12-2012 00:00:00 5.04583 C 93.1146 % 4.03 C
3043 19-12-2012 00:00:00 3.47361 C 96.2708 % 2.94 C
3044 20-12-2012 00:00:00 1.32396 C 93.7708 % 0.43 C
3045 21-12-2012 00:00:00 3.19236 C 97.7708 % 2.87 C
3046 22-12-2012 00:00:00 6.1691 C 95.2361 % 5.47 C
3047 23-12-2012 00:00:00 11.85 C 90.7014 % 10.38 C
3048 24-12-2012 00:00:00 11.08715 C 83.9306 % 8.48 C
3049 25-12-2012 00:00:00 9.61181 C 81.7431 % 6.65 C
3050 26-12-2012 00:00:00 8.15278 C 84.2465 % 5.66 C
Sensor: Nr:Datum:Temp:Feuchte:Taupunkt:
Aussen-T/F 3051 27-12-2012 00:00:00 7.84757 C 87.0868 % 5.84 C
3052 28-12-2012 00:00:00 6.19479 C 93.6806 % 5.25 C
3053 29-12-2012 00:00:00 8.19931 C 92.4514 % 7.05 C
3054 30-12-2012 00:00:00 8.44618 C 76.8021 % 4.62 C
3055 31-12-2012 00:00:00 8.92569 C 76.6319 % 5.05 C
3056 01-01-2013 00:00:00 6.59132 C 85.2465 % 4.3 C
3057 02-01-2013 00:00:00 4.69861 C 86.2326 % 2.6 C
3058 03-01-2013 00:00:00 7.62951 C 90.5069 % 6.18 C
3059 04-01-2013 00:00:00 9.87292 C 91.9063 % 8.62 C
3060 05-01-2013 00:00:00 7.8816 C 90.6528 % 6.45 C
3061 06-01-2013 00:00:00 8.15069 C 89.3438 % 6.51 C
3062 07-01-2013 00:00:00 7.30764 C 88.5938 % 5.55 C
3063 08-01-2013 00:00:00 6.15417 C 86.4549 % 4.07 C
3064 09-01-2013 00:00:00 4.72465 C 87.9271 % 2.9 C
3065 10-01-2013 00:00:00 4.44028 C 90.6840 % 3.05 C
3066 11-01-2013 00:00:00 1.09201 C 80.8958 % -1.81 C
3067 12-01-2013 00:00:00 -2.64514 C 86.8611 % -4.53 C
3068 13-01-2013 00:00:00 -3.28368 C 83.3715 % -5.69 C
3069 14-01-2013 00:00:00 -4.44028 C 89.7431 % -5.87 C
3070 15-01-2013 00:00:00 -2.1941 C 89.2222 % -3.72 C
3071 16-01-2013 00:00:00 -2.65521 C 90.0208 % -4.06 C
3072 17-01-2013 00:00:00 -2.48542 C 88.3472 % -4.14 C
3073 18-01-2013 00:00:00 -1.70729 C 86.0417 % -3.73 C
3074 19-01-2013 00:00:00 -2.39375 C 81.1181 % -5.18 C
3075 20-01-2013 00:00:00 -3.06146 C 87.3229 % -4.87 C
Sensor: Nr:Datum:Temp:Feuchte:Taupunkt:
Aussen-T/F 3076 21-01-2013 00:00:00 -0.75938 C 92.5590 % -1.81 C
3077 22-01-2013 00:00:00 -1.20382 C 91.8194 % -2.36 C
3078 23-01-2013 00:00:00 -1.0566 C 91.6736 % -2.24 C
3079 24-01-2013 00:00:00 -2.40833 C 86.2639 % -4.38 C
3080 25-01-2013 00:00:00 -2.18368 C 84.2292 % -4.48 C
3081 26-01-2013 00:00:00 -1.99549 C 84.4306 % -4.26 C
3082 27-01-2013 00:00:00 2.22882 C 88.1528 % 0.48 C
3083 28-01-2013 00:00:00 3.96389 C 87.7361 % 2.12 C
3084 29-01-2013 00:00:00 9.00868 C 87.2743 % 7.01 C
3085 30-01-2013 00:00:00 11.32361 C 82.5660 % 8.47 C
3086 31-01-2013 00:00:00 7.765 C 75.5864 % 3.73 C
3087 01-02-2013 00:00:00 6.26378 C 91.9921 % 5.06 C
3088 02-02-2013 00:00:00 3.24097 C 87.7743 % 1.41 C
3089 03-02-2013 00:00:00 3.41458 C 84.2292 % 1.01 C
3090 04-02-2013 00:00:00 5.84792 C 89.4167 % 4.24 C
3091 05-02-2013 00:00:00 4.44583 C 78.9896 % 1.13 C
3092 06-02-2013 00:00:00 1.58819 C 91.4306 % 0.35 C
3093 07-02-2013 00:00:00 1.88576 C 90.5625 % 0.51 C
3094 08-02-2013 00:00:00 0.56424 C 91.6042 % -0.64 C
3095 09-02-2013 00:00:00 -0.7941 C 88.5694 % -2.44 C
3096 10-02-2013 00:00:00 -1.98681 C 82.7569 % -4.52 C
3097 11-02-2013 00:00:00 -0.9316 C 70.8750 % -5.54 C
3098 12-02-2013 00:00:00 -0.84618 C 72.2569 % -5.2 C
3099 13-02-2013 00:00:00 -0.98125 C 73.6458 % -5.08 C
3100 14-02-2013 00:00:00 -2.40382 C 83.6806 % -4.78 C
Sensor: Nr:Datum:Temp:Feuchte:Taupunkt:
Aussen-T/F 3101 15-02-2013 00:00:00 0.91806 C 93.3993 % -0.02 C
3102 16-02-2013 00:00:00 2.92847 C 95.7014 % 2.31 C
3103 17-02-2013 00:00:00 2.97465 C 92.8229 % 1.93 C
3104 18-02-2013 00:00:00 0.52847 C 89.7049 % -0.96 C
3105 19-02-2013 00:00:00 0.79306 C 91.9375 % -0.36 C
3106 20-02-2013 00:00:00 0.4316 C 79.5799 % -2.68 C
3107 21-02-2013 00:00:00 -1.21979 C 76.7188 % -4.77 C
3108 22-02-2013 00:00:00 -2.3066 C 72.8819 % -6.5 C
3109 23-02-2013 00:00:00 -2.80139 C 85.8924 % -4.83 C
3110 24-02-2013 00:00:00 -0.43958 C 90.7604 % -1.76 C
3111 25-02-2013 00:00:00 0.88785 C 95.9375 % 0.32 C
3112 26-02-2013 00:00:00 2.31215 C 94.4792 % 1.52 C
3113 27-02-2013 00:00:00 1.69271 C 89.6667 % 0.18 C
3114 28-02-2013 00:00:00 2.41771 C 88.3368 % 0.69 C
3115 01-03-2013 00:00:00 2.75278 C 82.7014 % 0.11 C
3116 02-03-2013 00:00:00 2.60208 C 75.2674 % -1.32 C
3117 03-03-2013 00:00:00 1.90104 C 84.2535 % -0.47 C
3118 04-03-2013 00:00:00 1.8934 C 82.4444 % -0.77 C
3119 05-03-2013 00:00:00 2.56979 C 83.8611 % 0.12 C
3120 06-03-2013 00:00:00 5.45035 C 78.0139 % 1.93 C
3121 07-03-2013 00:00:00 8.96146 C 79.3646 % 5.59 C
3122 08-03-2013 00:00:00 10.92049 C 83.9063 % 8.31 C
3123 09-03-2013 00:00:00 10.42118 C 84.5660 % 7.94 C
3124 10-03-2013 00:00:00 3.88611 C 90.5799 % 2.49 C
3125 11-03-2013 00:00:00 -0.5191 C 89.0764 % -2.09 C
Sensor: Nr:Datum:Temp:Feuchte:Taupunkt:
Aussen-T/F 3126 12-03-2013 00:00:00 -2.72153 C 90.2674 % -4.09 C
3127 13-03-2013 00:00:00 -2.95907 C 81.1566 % -5.73 C
3128 14-03-2013 00:00:00 -1.88944 C 86.0493 % -3.91 C
3129 15-03-2013 00:00:00 -2.50139 C 79.4063 % -5.57 C
3130 16-03-2013 00:00:00 2.40938 C 66.0729 % -3.26 C
3131 17-03-2013 00:00:00 3.22014 C 86.2431 % 1.15 C
3132 18-03-2013 00:00:00 4.14479 C 82.4410 % 1.43 C
3133 19-03-2013 00:00:00 4.10313 C 82.7500 % 1.44 C
3134 20-03-2013 00:00:00 3.59201 C 90.7639 % 2.23 C
3135 21-03-2013 00:00:00 1.33993 C 86.7153 % -0.62 C
3136 22-03-2013 00:00:00 1.7441 C 78.1840 % -1.64 C
3137 23-03-2013 00:00:00 1.46875 C 67.2951 % -3.92 C
3138 24-03-2013 00:00:00 0.48854 C 50.8924 % -8.48 C
3139 25-03-2013 00:00:00 0.18681 C 56.3854 % -7.45 C
3140 26-03-2013 00:00:00 0.3309 C 54.9167 % -7.65 C
3141 27-03-2013 00:00:00 1.19896 C 57.4340 % -6.26 C
3142 28-03-2013 00:00:00 2.07639 C 68.6563 % -3.07 C
3143 29-03-2013 00:00:00 0.53715 C 86.8750 % -1.39 C
3144 30-03-2013 00:00:00 1.50903 C 75.2361 % -2.39 C
3145 31-03-2013 00:00:00 1.17246 C 77.9094 % -2.24 C
3146 01-04-2013 00:00:00 1.44201 C 69.0382 % -3.6 C
3147 02-04-2013 00:00:00 2.12708 C 62.2396 % -4.33 C
3148 03-04-2013 00:00:00 1.88194 C 70.0521 % -2.99 C
3149 04-04-2013 00:00:00 3.97465 C 65.6701 % -1.85 C
3150 05-04-2013 00:00:00 2.45382 C 75.3299 % -1.46 C
Sensor: Nr:Datum:Temp:Feuchte:Taupunkt:
Aussen-T/F 3151 06-04-2013 00:00:00 3.55104 C 83.4028 % 1.01 C
3152 07-04-2013 00:00:00 3.40382 C 71.6181 % -1.23 C
3153 08-04-2013 00:00:00 4.46979 C 71.6076 % -0.2 C
3154 09-04-2013 00:00:00 5.89479 C 88.8681 % 4.2 C
3155 10-04-2013 00:00:00 8.34653 C 86.5139 % 6.23 C
3156 11-04-2013 00:00:00 12.25972 C 76.2674 % 8.21 C
3157 12-04-2013 00:00:00 10.42708 C 83.9722 % 7.84 C
3158 13-04-2013 00:00:00 11.30243 C 70.4826 % 6.14 C
3159 14-04-2013 00:00:00 15.49271 C 69.5903 % 9.96 C
3160 15-04-2013 00:00:00 15.52118 C 73.4931 % 10.81 C
3161 16-04-2013 00:00:00 16.01215 C 73.3854 % 11.26 C
3162 17-04-2013 00:00:00 17.14167 C 64.9028 % 10.49 C
3163 18-04-2013 00:00:00 15.57153 C 62.1528 % 8.36 C
3164 19-04-2013 00:00:00 11.46389 C 56.8333 % 3.21 C
3165 20-04-2013 00:00:00 10.16944 C 61.6736 % 3.15 C
3166 21-04-2013 00:00:00 10.71389 C 59.7014 % 3.21 C
3167 22-04-2013 00:00:00 12.26562 C 60.0069 % 4.74 C
3168 23-04-2013 00:00:00 12.48924 C 62.8681 % 5.62 C
3169 24-04-2013 00:00:00 14.60278 C 69.3472 % 9.06 C
3170 25-04-2013 00:00:00 17.28958 C 64.4965 % 10.54 C
3171 26-04-2013 00:00:00 12.59896 C 84.6528 % 10.09 C
3172 27-04-2013 00:00:00 6.70972 C 88.6111 % 4.97 C
3173 28-04-2013 00:00:00 7.57118 C 83.3438 % 4.93 C
3174 29-04-2013 00:00:00 11.20139 C 67.0556 % 5.32 C
3175 30-04-2013 00:00:00 9.40104 C 78.5139 % 5.86 C
Sensor: Nr:Datum:Temp:Feuchte:Taupunkt:
Aussen-T/F 3176 01-05-2013 00:00:00 12.25 C 80.0972 % 8.92 C
3177 02-05-2013 00:00:00 15.26458 C 71.7535 % 10.2 C
3178 03-05-2013 00:00:00 14.28056 C 76.8472 % 10.28 C
3179 04-05-2013 00:00:00 15.30521 C 68.4132 % 9.53 C
3180 05-05-2013 00:00:00 14.71458 C 67.0556 % 8.67 C
3181 06-05-2013 00:00:00 15.4691 C 70.1458 % 10.06 C
3182 07-05-2013 00:00:00 14.47708 C 86.2465 % 12.21 C
3183 08-05-2013 00:00:00 15.69062 C 80.7188 % 12.39 C
3184 09-05-2013 00:00:00 16.1566 C 79.2674 % 12.57 C
3185 10-05-2013 00:00:00 13.28785 C 70.3924 % 8.02 C
3186 11-05-2013 00:00:00 12.72431 C 79.9549 % 9.36 C
3187 12-05-2013 00:00:00 9.44583 C 87.2049 % 7.43 C
3188 13-05-2013 00:00:00 11.19688 C 87.3056 % 9.17 C
3189 14-05-2013 00:00:00 12.63125 C 81.3576 % 9.53 C
3190 15-05-2013 00:00:00 13.05694 C 84.4688 % 10.5 C
3191 16-05-2013 00:00:00 13.25521 C 93.0174 % 12.15 C
3192 17-05-2013 00:00:00 10.33125 C 94.0278 % 9.41 C
3193 18-05-2013 00:00:00 13.12118 C 83.2813 % 10.35 C
3194 19-05-2013 00:00:00 13.29792 C 84.1910 % 10.69 C
3195 20-05-2013 00:00:00 10.92014 C 91.6771 % 9.62 C
3196 21-05-2013 00:00:00 12.35104 C 85.9826 % 10.08 C
3197 22-05-2013 00:00:00 9.34444 C 87.3438 % 7.35 C
3198 23-05-2013 00:00:00 7.90764 C 85.7535 % 5.67 C
3199 24-05-2013 00:00:00 7.60521 C 78.8576 % 4.18 C
3200 25-05-2013 00:00:00 8.39687 C 79.6493 % 5.09 C
Sensor: Nr:Datum:Temp:Feuchte:Taupunkt:
Aussen-T/F 3201 26-05-2013 00:00:00 8.03611 C 93.6493 % 7.08 C
3202 27-05-2013 00:00:00 12.39201 C 76.8368 % 8.45 C
3203 28-05-2013 00:00:00 13.87465 C 75.0903 % 9.54 C
3204 29-05-2013 00:00:00 10.21285 C 92.6875 % 9.08 C
3205 30-05-2013 00:00:00 11.70208 C 80.4896 % 8.46 C
3206 31-05-2013 00:00:00 13.19792 C 90.3090 % 11.65 C
3207 01-06-2013 00:00:00 12.09549 C 87.9410 % 10.16 C
3208 02-06-2013 00:00:00 13.08125 C 66.3472 % 6.96 C
3209 03-06-2013 00:00:00 12.7375 C 64.3750 % 6.19 C
3210 04-06-2013 00:00:00 13.85833 C 72.3507 % 8.97 C
3211 05-06-2013 00:00:00 16.28889 C 78.3125 % 12.51 C
3212 06-06-2013 00:00:00 18.00868 C 68.3264 % 12.09 C
3213 07-06-2013 00:00:00 18.14826 C 71.4236 % 12.9 C
3214 08-06-2013 00:00:00 18.53125 C 79.0556 % 14.83 C
3215 09-06-2013 00:00:00 15.18819 C 89.5868 % 13.49 C
3216 10-06-2013 00:00:00 12.77396 C 94.5868 % 11.93 C
3217 11-06-2013 00:00:00 15.40451 C 84.7708 % 12.86 C
3218 12-06-2013 00:00:00 17.48576 C 83.4236 % 14.65 C
3219 13-06-2013 00:00:00 18.45313 C 85.0625 % 15.9 C
3220 14-06-2013 00:00:00 14.47917 C 78.2500 % 10.74 C
3221 15-06-2013 00:00:00 15.22674 C 77.9653 % 11.41 C
3222 16-06-2013 00:00:00 16.60104 C 70.9306 % 11.31 C
3223 17-06-2013 00:00:00 20.99236 C 73.9583 % 16.17 C
3224 18-06-2013 00:00:00 23.88576 C 78.5104 % 19.92 C
3225 19-06-2013 00:00:00 24.9691 C 80.3924 % 21.36 C
Sensor: Nr:Datum:Temp:Feuchte:Taupunkt:
Aussen-T/F 3226 20-06-2013 00:00:00 21.63299 C 83.6493 % 18.74 C
3227 21-06-2013 00:00:00 17.72778 C 79.6563 % 14.17 C
3228 22-06-2013 00:00:00 18.08576 C 74.9688 % 13.58 C
3229 23-06-2013 00:00:00 16.03403 C 77.5938 % 12.12 C
3230 24-06-2013 00:00:00 14.4184 C 80.7326 % 11.15 C
3231 25-06-2013 00:00:00 13.24861 C 81.2049 % 10.1 C
3232 26-06-2013 00:00:00 12.21597 C 78.8819 % 8.66 C
3233 27-06-2013 00:00:00 12.77257 C 85.6111 % 10.42 C
3234 28-06-2013 00:00:00 12.51979 C 89.5764 % 10.85 C
3235 29-06-2013 00:00:00 15.31319 C 83.5000 % 12.54 C
3236 30-06-2013 00:00:00 14.36458 C 77.9931 % 10.58 C
3237 01-07-2013 00:00:00 18.46319 C 74.8715 % 13.93 C
3238 02-07-2013 00:00:00 18.88542 C 76.4132 % 14.65 C
3239 03-07-2013 00:00:00 17.18993 C 93.0868 % 16.06 C
3240 04-07-2013 00:00:00 18.03542 C 87.4410 % 15.92 C
3241 05-07-2013 00:00:00 19.17361 C 80.8785 % 15.81 C
3242 06-07-2013 00:00:00 19.30833 C 81.3438 % 16.03 C
3243 07-07-2013 00:00:00 20.55243 C 74.5069 % 15.86 C
3244 08-07-2013 00:00:00 20.53924 C 71.9444 % 15.31 C
3245 09-07-2013 00:00:00 20.80694 C 73.6597 % 15.93 C
3246 10-07-2013 00:00:00 20.12292 C 72.3368 % 14.99 C
3247 11-07-2013 00:00:00 17.10417 C 69.4097 % 11.47 C
3248 12-07-2013 00:00:00 16.90868 C 73.6806 % 12.18 C
3249 13-07-2013 00:00:00 17.26424 C 74.3160 % 12.66 C
3250 14-07-2013 00:00:00 18.30139 C 74.2847 % 13.65 C
Sensor: Nr:Datum:Temp:Feuchte:Taupunkt:
Aussen-T/F 3251 15-07-2013 00:00:00 18.85486 C 75.3333 % 14.4 C
3252 16-07-2013 00:00:00 20.18438 C 72.0590 % 14.99 C
3253 17-07-2013 00:00:00 20.29896 C 74.5729 % 15.63 C
3254 18-07-2013 00:00:00 21.84757 C 69.7014 % 16.06 C
3255 19-07-2013 00:00:00 22.12674 C 67.1042 % 15.74 C
3256 20-07-2013 00:00:00 21.31076 C 69.5417 % 15.52 C
3257 21-07-2013 00:00:00 22.30521 C 69.0000 % 16.34 C
3258 22-07-2013 00:00:00 22.41562 C 70.3958 % 16.76 C
3259 23-07-2013 00:00:00 21.37396 C 86.5069 % 19.03 C
3260 24-07-2013 00:00:00 21.35972 C 80.1076 % 17.79 C
3261 25-07-2013 00:00:00 20.88542 C 86.3472 % 18.52 C
3262 26-07-2013 00:00:00 21.25729 C 95.1007 % 20.44 C
3263 27-07-2013 00:00:00 23.54236 C 84.8646 % 20.85 C
3264 28-07-2013 00:00:00 21.69965 C 82.3889 % 18.57 C
3265 29-07-2013 00:00:00 19.41007 C 88.3993 % 17.44 C
3266 30-07-2013 00:00:00 18.99028 C 79.0139 % 15.27 C
3267 31-07-2013 00:00:00 20.83715 C 75.4653 % 16.34 C
3268 01-08-2013 00:00:00 21.89653 C 75.0764 % 17.28 C
3269 02-08-2013 00:00:00 23.37049 C 72.4132 % 18.13 C
3270 03-08-2013 00:00:00 21.1934 C 85.6146 % 18.69 C
3271 04-08-2013 00:00:00 19.79549 C 78.0382 % 15.86 C
3272 05-08-2013 00:00:00 20.42639 C 78.9618 % 16.65 C
3273 06-08-2013 00:00:00 19.98646 C 87.9132 % 17.92 C
3274 07-08-2013 00:00:00 18.91562 C 91.5833 % 17.51 C
3275 08-08-2013 00:00:00 16.92118 C 86.3229 % 14.62 C
Sensor: Nr:Datum:Temp:Feuchte:Taupunkt:
Aussen-T/F 3276 09-08-2013 00:00:00 16.41597 C 86.1181 % 14.09 C
3277 10-08-2013 00:00:00 18.10764 C 74.2986 % 13.46 C
3278 11-08-2013 00:00:00 16.80278 C 69.1771 % 11.13 C
3279 12-08-2013 00:00:00 15.88229 C 83.6007 % 13.11 C
3280 13-08-2013 00:00:00 15.61319 C 81.7326 % 12.5 C
3281 14-08-2013 00:00:00 14.4559 C 81.5660 % 11.34 C
3282 15-08-2013 00:00:00 16.30035 C 77.9028 % 12.44 C
3283 16-08-2013 00:00:00 17.96319 C 75.3750 % 13.55 C
3284 17-08-2013 00:00:00 20.47965 C 70.5158 % 14.94 C
3285 18-08-2013 00:00:00 19.29614 C 82.4596 % 16.23 C
3286 19-08-2013 00:00:00 17.75764 C 80.2465 % 14.31 C
3287 20-08-2013 00:00:00 14.96458 C 79.6111 % 11.47 C
3288 21-08-2013 00:00:00 15.16285 C 81.7743 % 12.07 C
3289 22-08-2013 00:00:00 16.33576 C 83.6111 % 13.56 C
3290 23-08-2013 00:00:00 18.61667 C 76.7708 % 14.46 C
3291 24-08-2013 00:00:00 16.10208 C 89.7396 % 14.42 C
3292 25-08-2013 00:00:00 16.06806 C 95.2708 % 15.31 C
3293 26-08-2013 00:00:00 15.16806 C 96.5451 % 14.62 C
3294 27-08-2013 00:00:00 15.88472 C 89.9792 % 14.24 C
3295 28-08-2013 00:00:00 15.65312 C 87.5035 % 13.59 C
3296 29-08-2013 00:00:00 14.74062 C 90.2153 % 13.15 C
3297 30-08-2013 00:00:00 15.73924 C 87.8472 % 13.73 C
3298 31-08-2013 00:00:00 16.33229 C 86.2986 % 14.04 C
3299 01-09-2013 00:00:00 14.50938 C 73.5035 % 9.83 C
3300 02-09-2013 00:00:00 17.48924 C 69.9375 % 11.95 C
Sensor: Nr:Datum:Temp:Feuchte:Taupunkt:
Aussen-T/F 3301 03-09-2013 00:00:00 18.08299 C 80.6319 % 14.7 C
3302 04-09-2013 00:00:00 17.74583 C 85.1701 % 15.22 C
3303 05-09-2013 00:00:00 18.47349 C 84.5181 % 15.82 C
3304 06-09-2013 00:00:00 22.68615 C 74.2769 % 17.87 C
3305 07-09-2013 00:00:00 18.36354 C 91.5208 % 16.96 C
3306 08-09-2013 00:00:00 14.78542 C 93.9097 % 13.81 C
3307 09-09-2013 00:00:00 14.16944 C 86.9965 % 12.04 C
3308 10-09-2013 00:00:00 13.35073 C 82.4891 % 10.43 C
3309 11-09-2013 00:00:00 13.00912 C 87.8066 % 11.04 C
3310 12-09-2013 00:00:00 13.53472 C 92.7535 % 12.39 C
3311 13-09-2013 00:00:00 14.67363 C 88.3553 % 12.77 C
3312 14-09-2013 00:00:00 15.8191 C 93.1007 % 14.71 C
3313 15-09-2013 00:00:00 14.41667 C 87.2500 % 12.33 C
3314 16-09-2013 00:00:00 13.23333 C 81.3229 % 10.11 C
3315 17-09-2013 00:00:00 10.58958 C 82.5833 % 7.75 C
3316 18-09-2013 00:00:00 12.57951 C 92.8750 % 11.46 C
3317 19-09-2013 00:00:00 11.89444 C 86.6076 % 9.73 C
3318 20-09-2013 00:00:00 13.91806 C 85.7778 % 11.58 C
3319 21-09-2013 00:00:00 12.20868 C 91.0000 % 10.78 C
3320 22-09-2013 00:00:00 13.3788 C 90.7668 % 11.9 C
3321 23-09-2013 00:00:00 15.46493 C 89.1076 % 13.68 C
3322 24-09-2013 00:00:00 12.34792 C 94.6979 % 11.52 C
3323 25-09-2013 00:00:00 14.08646 C 94.5347 % 13.22 C
3324 26-09-2013 00:00:00 14.58924 C 91.1389 % 13.16 C
3325 27-09-2013 00:00:00 11.25312 C 89.0660 % 9.52 C
Sensor: Nr:Datum:Temp:Feuchte:Taupunkt:
Aussen-T/F 3326 28-09-2013 00:00:00 10.575 C 88.4286 % 8.74 C
3327 29-09-2013 00:00:00 11.89028 C 85.1667 % 9.48 C
3328 30-09-2013 00:00:00 9.80833 C 87.1910 % 7.78 C
3329 01-10-2013 00:00:00 11.38264 C 80.5903 % 8.17 C
3330 02-10-2013 00:00:00 9.01493 C 82.1111 % 6.13 C
3331 03-10-2013 00:00:00 8.84479 C 80.9549 % 5.76 C
3332 04-10-2013 00:00:00 11.33993 C 91.6215 % 10.03 C
3333 05-10-2013 00:00:00 12.69583 C 97.5486 % 12.32 C
3334 06-10-2013 00:00:00 13.60313 C 92.6910 % 12.44 C
3335 07-10-2013 00:00:00 13.21667 C 94.6806 % 12.38 C
3336 08-10-2013 00:00:00 13.44791 C 95.3505 % 12.72 C
3337 09-10-2013 00:00:00 13.86667 C 91.5938 % 12.52 C
3338 10-10-2013 00:00:00 8.4625 C 94.6285 % 7.65 C
3339 11-10-2013 00:00:00 6.86042 C 97.1285 % 6.44 C
3340 12-10-2013 00:00:00 6.31215 C 95.1910 % 5.6 C
3341 13-10-2013 00:00:00 7.69167 C 90.0208 % 6.16 C
3342 14-10-2013 00:00:00 9.89091 C 92.2182 % 8.69 C
3343 15-10-2013 00:00:00 10.43275 C 94.2113 % 9.54 C
3344 16-10-2013 00:00:00 10.04523 C 95.8799 % 9.42 C
3345 17-10-2013 00:00:00 12.70972 C 88.6771 % 10.89 C
3346 18-10-2013 00:00:00 11.80868 C 95.7083 % 11.15 C
3347 19-10-2013 00:00:00 11.72702 C 95.4877 % 11.03 C
3348 20-10-2013 00:00:00 15.28507 C 93.8021 % 14.29 C
3349 21-10-2013 00:00:00 15.075 C 89.9861 % 13.45 C
3350 22-10-2013 00:00:00 15.7614 C 91.7404 % 14.42 C
Sensor: Nr:Datum:Temp:Feuchte:Taupunkt:
Aussen-T/F 3351 23-10-2013 00:00:00 15.81476 C 92.6790 % 14.63 C
3352 24-10-2013 00:00:00 13.67431 C 95.5069 % 12.97 C
3353 25-10-2013 00:00:00 13.01701 C 96.8958 % 12.54 C
3354 26-10-2013 00:00:00 16.41144 C 95.1808 % 15.64 C
3355 27-10-2013 00:00:00 14.94896 C 83.9028 % 12.25 C
3356 28-10-2013 00:00:00 15.40962 C 78.1385 % 11.62 C
3357 29-10-2013 00:00:00 11.12569 C 77.4901 % 7.34 C
3358 30-10-2013 00:00:00 7.81825 C 86.6702 % 5.74 C
3359 31-10-2013 00:00:00 5.27708 C 94.3854 % 4.45 C
3360 01-11-2013 00:00:00 9.4316 C 89.5208 % 7.8 C
3361 02-11-2013 00:00:00 12.79889 C 90.4354 % 11.27 C
3362 03-11-2013 00:00:00 9.93611 C 83.6701 % 7.31 C
3363 04-11-2013 00:00:00 9.80526 C 87.0912 % 7.76 C
3364 05-11-2013 00:00:00 6.72153 C 87.5556 % 4.81 C
3365 06-11-2013 00:00:00 10.70215 C 88.7348 % 8.92 C
3366 07-11-2013 00:00:00 15.04132 C 84.5243 % 12.46 C
3367 08-11-2013 00:00:00 11.92093 C 93.0372 % 10.83 C
3368 09-11-2013 00:00:00 9.48785 C 80.9931 % 6.39 C
3369 10-11-2013 00:00:00 6.68715 C 90.9653 % 5.32 C
3370 11-11-2013 00:00:00 4.00764 C 96.3542 % 3.48 C
3371 12-11-2013 00:00:00 4.41146 C 93.7951 % 3.5 C
3372 13-11-2013 00:00:00 6.28491 C 93.5579 % 5.32 C
3373 14-11-2013 00:00:00 3.2816 C 95.0833 % 2.57 C
3374 15-11-2013 00:00:00 4.99201 C 90.5035 % 3.57 C
3375 16-11-2013 00:00:00 3.05 C 91.8507 % 1.86 C
Sensor: Nr:Datum:Temp:Feuchte:Taupunkt:
Aussen-T/F 3376 17-11-2013 00:00:00 3.2184 C 94.6285 % 2.44 C
3377 18-11-2013 00:00:00 5.38287 C 94.0916 % 4.51 C
3378 19-11-2013 00:00:00 6.22 C 91.5647 % 4.95 C
3379 20-11-2013 00:00:00 3.96643 C 91.7483 % 2.75 C
3380 21-11-2013 00:00:00 4.05603 C 89.4310 % 2.48 C
3381 22-11-2013 00:00:00 4.42 C 86.5545 % 2.38 C
3382 23-11-2013 00:00:00 7.03092 C 87.0000 % 5.02 C
3383 24-11-2013 00:00:00 5.71435 C 88.4739 % 3.96 C
3384 25-11-2013 00:00:00 2.65439 C 93.3216 % 1.69 C
3385 26-11-2013 00:00:00 0.53125 C 94.5590 % -0.24 C
3386 27-11-2013 00:00:00 0.63854 C 92.5035 % -0.43 C
3387 28-11-2013 00:00:00 3.45709 C 94.3022 % 2.63 C
3388 29-11-2013 00:00:00 5.6434 C 91.5833 % 4.38 C
3389 30-11-2013 00:00:00 4.32604 C 93.7951 % 3.42 C
3390 01-12-2013 00:00:00 5.01254 C 94.7178 % 4.24 C
3391 02-12-2013 00:00:00 4.76458 C 93.0486 % 3.74 C
3392 03-12-2013 00:00:00 -0.45729 C 97.1806 % -0.85 C
3393 04-12-2013 00:00:00 3.27917 C 91.8924 % 2.09 C
3394 05-12-2013 00:00:00 3.93475 C 87.9291 % 2.12 C
3395 06-12-2013 00:00:00 3.76181 C 74.9583 % -0.26 C
3396 07-12-2013 00:00:00 4.38715 C 85.8194 % 2.23 C
3397 08-12-2013 00:00:00 6.92188 C 87.3785 % 4.97 C
3398 09-12-2013 00:00:00 6.42222 C 84.1806 % 3.95 C
3399 10-12-2013 00:00:00 3.24896 C 95.9236 % 2.66 C
3400 11-12-2013 00:00:00 3.72465 C 96.5903 % 3.23 C
Sensor: Nr:Datum:Temp:Feuchte:Taupunkt:
Aussen-T/F 3401 12-12-2013 00:00:00 4.08993 C 92.2118 % 2.94 C
3402 13-12-2013 00:00:00 2.65694 C 90.5313 % 1.27 C
3403 14-12-2013 00:00:00 3.58986 C 92.6923 % 2.52 C
3404 15-12-2013 00:00:00 4.99688 C 85.9340 % 2.84 C
3405 16-12-2013 00:00:00 1.49676 C 94.6511 % 0.73 C
3406 17-12-2013 00:00:00 1.25451 C 95.3924 % 0.6 C
3407 18-12-2013 00:00:00 4.19965 C 94.2153 % 3.35 C
3408 19-12-2013 00:00:00 8.13715 C 88.2813 % 6.32 C
3409 20-12-2013 00:00:00 4.38403 C 92.2708 % 3.24 C
3410 21-12-2013 00:00:00 4.81354 C 81.8229 % 1.98 C
3411 22-12-2013 00:00:00 8.81493 C 82.7222 % 6.04 C
3412 23-12-2013 00:00:00 8.42341 C 85.6230 % 6.16 C
3413 24-12-2013 00:00:00 11.57579 C 73.6140 % 7.03 C
3414 25-12-2013 00:00:00 8.41944 C 92.4444 % 7.27 C
3415 26-12-2013 00:00:00 6.06579 C 94.8195 % 5.3 C
3416 27-12-2013 00:00:00 6.6549 C 85.1608 % 4.34 C
3417 28-12-2013 00:00:00 9.14444 C 90.1181 % 7.61 C
3418 29-12-2013 00:00:00 4.76463 C 93.9695 % 3.88 C
3419 30-12-2013 00:00:00 4.17107 C 89.7934 % 2.65 C
3420 31-12-2013 00:00:00 2.91045 C 89.5522 % 1.37 C
3421 01-01-2014 00:00:00 6.46912 C 86.4737 % 4.38 C
3422 02-01-2014 00:00:00 8.31947 C 88.5649 % 6.54 C
3423 03-01-2014 00:00:00 8.74861 C 86.5347 % 6.63 C
3424 04-01-2014 00:00:00 7.47049 C 88.5833 % 5.71 C
3425 05-01-2014 00:00:00 6.13111 C 91.4622 % 4.85 C
Sensor: Nr:Datum:Temp:Feuchte:Taupunkt:
Aussen-T/F 3426 06-01-2014 00:00:00 8.33819 C 89.1736 % 6.66 C
3427 07-01-2014 00:00:00 10.72882 C 85.7708 % 8.45 C
3428 08-01-2014 00:00:00 10.3965 C 86.9027 % 8.31 C
3429 09-01-2014 00:00:00 9.27876 C 85.9961 % 7.06 C
3430 10-01-2014 00:00:00 5.59896 C 86.9757 % 3.61 C
3431 11-01-2014 00:00:00 3.80382 C 93.2049 % 2.81 C
3432 12-01-2014 00:00:00 0.34545 C 97.0618 % -0.06 C
3433 13-01-2014 00:00:00 3.73194 C 95.9965 % 3.15 C
3434 14-01-2014 00:00:00 5.06036 C 94.4536 % 4.25 C
3435 15-01-2014 00:00:00 4.1934 C 91.9444 % 3 C
3436 16-01-2014 00:00:00 6.5375 C 93.3160 % 5.54 C
3437 17-01-2014 00:00:00 6.75 C 92.8021 % 5.67 C
3438 18-01-2014 00:00:00 4.5321 C 90.4686 % 3.11 C
3439 19-01-2014 00:00:00 4.621 C 92.0569 % 3.44 C
3440 20-01-2014 00:00:00 4.32836 C 94.6567 % 3.55 C
3441 21-01-2014 00:00:00 3.49792 C 93.6632 % 2.58 C
3442 22-01-2014 00:00:00 3.18571 C 95.3022 % 2.51 C
3443 23-01-2014 00:00:00 3.72927 C 92.3049 % 2.6 C
3444 24-01-2014 00:00:00 3.90268 C 93.5670 % 2.96 C
3445 25-01-2014 00:00:00 2.8165 C 94.8000 % 2.07 C
3446 26-01-2014 00:00:00 5.11851 C 83.3630 % 2.54 C
3447 27-01-2014 00:00:00 4.4199 C 87.2094 % 2.48 C
3448 28-01-2014 00:00:00 2.36869 C 88.8889 % 0.73 C
3449 29-01-2014 00:00:00 1.54036 C 85.8253 % -0.57 C
3450 30-01-2014 00:00:00 1.98611 C 84.2049 % -0.39 C
Sensor: Nr:Datum:Temp:Feuchte:Taupunkt:
Aussen-T/F 3451 31-01-2014 00:00:00 1.03819 C 91.0799 % -0.25 C
3452 01-02-2014 00:00:00 4.63819 C 89.8646 % 3.12 C
3453 02-02-2014 00:00:00 4.14306 C 90.0729 % 2.66 C
3454 03-02-2014 00:00:00 1.00938 C 95.5486 % 0.38 C
3455 04-02-2014 00:00:00 4.28785 C 89.7083 % 2.75 C
3456 05-02-2014 00:00:00 4.74236 C 89.7049 % 3.2 C
3457 06-02-2014 00:00:00 8.42431 C 76.6181 % 4.56 C
3458 07-02-2014 00:00:00 8.79132 C 78.4410 % 5.25 C
3459 08-02-2014 00:00:00 6.5309 C 83.7222 % 3.98 C
3460 09-02-2014 00:00:00 5.34375 C 80.9306 % 2.34 C
3461 10-02-2014 00:00:00 3.38819 C 87.2500 % 1.48 C
3462 11-02-2014 00:00:00 5.41354 C 82.3819 % 2.66 C
3463 12-02-2014 00:00:00 5.44028 C 81.1319 % 2.47 C
3464 13-02-2014 00:00:00 5.71771 C 88.4479 % 3.96 C
3465 14-02-2014 00:00:00 5.64722 C 85.6979 % 3.44 C
3466 15-02-2014 00:00:00 9.70669 C 79.3415 % 6.31 C
3467 16-02-2014 00:00:00 7.36493 C 80.5694 % 4.25 C
3468 17-02-2014 00:00:00 3.59861 C 91.7118 % 2.38 C
3469 18-02-2014 00:00:00 3.38715 C 94.0590 % 2.52 C
3470 19-02-2014 00:00:00 7.825 C 84.9722 % 5.46 C
3471 20-02-2014 00:00:00 8.68958 C 82.6215 % 5.9 C
3472 21-02-2014 00:00:00 7.64062 C 84.5451 % 5.21 C
3473 22-02-2014 00:00:00 4.99861 C 87.1563 % 3.05 C
3474 23-02-2014 00:00:00 5.94204 C 83.6694 % 3.39 C
3475 24-02-2014 00:00:00 5.86389 C 80.9444 % 2.85 C
Sensor: Nr:Datum:Temp:Feuchte:Taupunkt:
Aussen-T/F 3476 25-02-2014 00:00:00 6.68681 C 82.1910 % 3.87 C
3477 26-02-2014 00:00:00 8.58182 C 81.5382 % 5.61 C
3478 27-02-2014 00:00:00 5.86275 C 84.1961 % 3.41 C
3479 28-02-2014 00:00:00 6.2146 C 87.8248 % 4.35 C
3480 01-03-2014 00:00:00 5.44375 C 88.4410 % 3.69 C
3481 02-03-2014 00:00:00 3.55069 C 87.5208 % 1.68 C
3482 03-03-2014 00:00:00 5.27743 C 86.6458 % 3.24 C
3483 04-03-2014 00:00:00 4.21701 C 86.7118 % 2.2 C
3484 05-03-2014 00:00:00 4.68235 C 86.5059 % 2.63 C
3485 06-03-2014 00:00:00 3.87951 C 89.4306 % 2.3 C
3486 07-03-2014 00:00:00 6.23037 C 80.7383 % 3.17 C
3487 08-03-2014 00:00:00 7.3847 C 80.0427 % 4.18 C
3488 09-03-2014 00:00:00 7.27263 C 76.4772 % 3.42 C
3489 10-03-2014 00:00:00 7.44444 C 75.5035 % 3.41 C
3490 11-03-2014 00:00:00 8.4184 C 78.6424 % 4.93 C
3491 12-03-2014 00:00:00 9.07812 C 74.1354 % 4.72 C
3492 13-03-2014 00:00:00 8.16007 C 73.3681 % 3.69 C
3493 14-03-2014 00:00:00 7.91944 C 76.8993 % 4.12 C
3494 15-03-2014 00:00:00 8.97326 C 77.3021 % 5.22 C
3495 16-03-2014 00:00:00 11.50486 C 77.2500 % 7.67 C
3496 17-03-2014 00:00:00 10.27882 C 81.5486 % 7.27 C
3497 18-03-2014 00:00:00 9.4066 C 83.2882 % 6.72 C
3498 19-03-2014 00:00:00 12.2875 C 70.5521 % 7.1 C
3499 20-03-2014 00:00:00 12.49333 C 67.2772 % 6.6 C
3500 21-03-2014 00:00:00 13.1375 C 66.5069 % 7.05 C
Sensor: Nr:Datum:Temp:Feuchte:Taupunkt:
Aussen-T/F 3501 22-03-2014 00:00:00 8.65208 C 83.0799 % 5.95 C
3502 23-03-2014 00:00:00 6.03507 C 81.4861 % 3.11 C
3503 24-03-2014 00:00:00 5.42632 C 80.7404 % 2.39 C
3504 25-03-2014 00:00:00 4.1625 C 82.4271 % 1.44 C
3505 26-03-2014 00:00:00 4.56076 C 78.8125 % 1.21 C
3506 27-03-2014 00:00:00 8.14604 C 73.6475 % 3.73 C
3507 28-03-2014 00:00:00 10.60972 C 66.4167 % 4.62 C
3508 29-03-2014 00:00:00 10.34963 C 70.5809 % 5.24 C
3509 30-03-2014 00:00:00 9.15619 C 76.1429 % 5.18 C
3510 31-03-2014 00:00:00 12.96562 C 65.8924 % 6.75 C
3511 01-04-2014 00:00:00 13.77519 C 67.7366 % 7.92 C
3512 02-04-2014 00:00:00 13.90458 C 68.9754 % 8.31 C
3513 03-04-2014 00:00:00 12.54324 C 77.5811 % 8.74 C
3514 04-04-2014 00:00:00 14.95971 C 74.9173 % 10.55 C
3515 05-04-2014 00:00:00 13.00531 C 86.2612 % 10.77 C
3516 06-04-2014 00:00:00 11.67782 C 83.0879 % 8.91 C
3517 07-04-2014 00:00:00 15.95041 C 75.4713 % 11.62 C
3518 08-04-2014 00:00:00 12.18521 C 67.1585 % 6.28 C
3519 09-04-2014 00:00:00 9.27426 C 75.9154 % 5.25 C
3520 10-04-2014 00:00:00 10.31543 C 77.0864 % 6.48 C
3521 11-04-2014 00:00:00 14.56849 C 72.5000 % 9.69 C
3522 12-04-2014 00:00:00 12.65368 C 70.8982 % 7.52 C
3523 13-04-2014 00:00:00 11.60669 C 71.0599 % 6.55 C
3524 14-04-2014 00:00:00 9.7593 C 71.2491 % 4.81 C
3525 15-04-2014 00:00:00 7.10171 C 73.7991 % 2.75 C
Sensor: Nr:Datum:Temp:Feuchte:Taupunkt:
Aussen-T/F 3526 16-04-2014 00:00:00 12.97192 C 49.4521 % 2.65 C
3527 17-04-2014 00:00:00 9.85313 C 63.3021 % 3.22 C
3528 18-04-2014 00:00:00 10.72049 C 64.8750 % 4.39 C
3529 19-04-2014 00:00:00 10.82049 C 71.8993 % 5.96 C
3530 20-04-2014 00:00:00 14.91825 C 70.5509 % 9.62 C
3531 21-04-2014 00:00:00 12.49479 C 77.9896 % 8.77 C
3532 22-04-2014 00:00:00 12.82847 C 85.6076 % 10.48 C
3533 23-04-2014 00:00:00 13.43958 C 81.1771 % 10.28 C
3534 24-04-2014 00:00:00 15.42535 C 79.0035 % 11.8 C
3535 25-04-2014 00:00:00 16.71562 C 74.1319 % 12.09 C
3536 26-04-2014 00:00:00 15.2 C 74.7604 % 10.75 C
3537 27-04-2014 00:00:00 13.07674 C 81.7986 % 10.04 C
3538 28-04-2014 00:00:00 12.80243 C 79.8715 % 9.42 C
3539 29-04-2014 00:00:00 13.43403 C 90.3056 % 11.88 C
3540 30-04-2014 00:00:00 14.53507 C 84.7500 % 12 C
3541 01-05-2014 00:00:00 14.73611 C 81.3611 % 11.58 C
3542 02-05-2014 00:00:00 11.71319 C 86.6736 % 9.57 C
3543 03-05-2014 00:00:00 10.92708 C 61.0069 % 3.71 C
3544 04-05-2014 00:00:00 9.61042 C 68.0590 % 4.02 C
3545 05-05-2014 00:00:00 12.60069 C 67.5521 % 6.76 C
3546 06-05-2014 00:00:00 13.72083 C 74.2778 % 9.23 C
3547 07-05-2014 00:00:00 13.05764 C 84.9931 % 10.6 C
3548 08-05-2014 00:00:00 12.32847 C 84.6146 % 9.81 C
3549 09-05-2014 00:00:00 15.33403 C 71.0833 % 10.13 C
3550 10-05-2014 00:00:00 12.40903 C 81.6528 % 9.36 C
Sensor: Nr:Datum:Temp:Feuchte:Taupunkt:
Aussen-T/F 3551 11-05-2014 00:00:00 11.45764 C 80.1667 % 8.16 C
3552 12-05-2014 00:00:00 11.1941 C 74.9167 % 6.92 C
3553 13-05-2014 00:00:00 10.30729 C 85.3368 % 7.96 C
3554 14-05-2014 00:00:00 10.63542 C 76.9514 % 6.77 C
3555 15-05-2014 00:00:00 10.00382 C 80.4757 % 6.8 C
3556 16-05-2014 00:00:00 13.25347 C 73.1250 % 8.55 C
3557 17-05-2014 00:00:00 14.22292 C 71.7500 % 9.2 C
3558 18-05-2014 00:00:00 15.4809 C 74.3021 % 10.93 C
3559 19-05-2014 00:00:00 17.57188 C 70.6944 % 12.19 C
3560 20-05-2014 00:00:00 19.46562 C 67.3681 % 13.26 C
3561 21-05-2014 00:00:00 20.29792 C 68.1181 % 14.23 C
3562 22-05-2014 00:00:00 20.21806 C 65.7465 % 13.61 C
3563 23-05-2014 00:00:00 15.52639 C 89.6667 % 13.84 C
3564 24-05-2014 00:00:00 14.72993 C 81.1514 % 11.53 C
3565 25-05-2014 00:00:00 15.25071 C 74.9149 % 10.83 C
3566 26-05-2014 00:00:00 16.8625 C 80.3056 % 13.45 C
3567 27-05-2014 00:00:00 15.19431 C 94.7346 % 14.36 C
3568 28-05-2014 00:00:00 14.58118 C 88.4000 % 12.69 C
3569 29-05-2014 00:00:00 13.44653 C 87.1042 % 11.35 C
3570 30-05-2014 00:00:00 13.2316 C 70.4167 % 7.97 C
3571 31-05-2014 00:00:00 13.40382 C 74.2639 % 8.92 C
3572 01-06-2014 00:00:00 15.49273 C 69.6545 % 9.98 C
3573 02-06-2014 00:00:00 15.88943 C 67.9715 % 9.99 C
3574 03-06-2014 00:00:00 15.78662 C 74.8627 % 11.34 C
3575 04-06-2014 00:00:00 14.95388 C 86.4155 % 12.71 C
Sensor: Nr:Datum:Temp:Feuchte:Taupunkt:
Aussen-T/F 3576 05-06-2014 00:00:00 14.55765 C 67.7687 % 8.68 C
3577 06-06-2014 00:00:00 17.20312 C 67.7778 % 11.2 C
3578 07-06-2014 00:00:00 20.77257 C 72.3750 % 15.62 C
3579 08-06-2014 00:00:00 24.09514 C 70.7431 % 18.45 C
3580 09-06-2014 00:00:00 25.74583 C 69.9583 % 19.85 C
3581 10-06-2014 00:00:00 23.66632 C 70.6389 % 18.01 C
3582 11-06-2014 00:00:00 20.10803 C 81.3175 % 16.81 C
3583 12-06-2014 00:00:00 19.97431 C 66.4583 % 13.54 C
3584 13-06-2014 00:00:00 18.37014 C 68.1597 % 12.4 C
3585 14-06-2014 00:00:00 17.27465 C 65.5104 % 10.76 C
3586 15-06-2014 00:00:00 16.86944 C 67.1875 % 10.75 C
3587 16-06-2014 00:00:00 15.61944 C 74.7396 % 11.15 C
3588 17-06-2014 00:00:00 17.41354 C 66.8819 % 11.2 C
3589 18-06-2014 00:00:00 17.76319 C 71.4931 % 12.54 C
3590 19-06-2014 00:00:00 15.70791 C 75.5252 % 11.4 C
3591 20-06-2014 00:00:00 15.64143 C 71.1667 % 10.44 C
3592 21-06-2014 00:00:00 16.62118 C 65.5903 % 10.15 C
3593 22-06-2014 00:00:00 16.62782 C 66.3415 % 10.33 C
3594 23-06-2014 00:00:00 17.14792 C 65.1910 % 10.56 C
3595 24-06-2014 00:00:00 16.64978 C 71.6277 % 11.5 C
3596 25-06-2014 00:00:00 17.29096 C 56.5426 % 8.58 C
3597 26-06-2014 00:00:00 16.18958 C 64.0764 % 9.4 C
3598 27-06-2014 00:00:00 17.54167 C 67.2604 % 11.41 C
3599 28-06-2014 00:00:00 16.28043 C 87.3950 % 14.18 C
3600 29-06-2014 00:00:00 14.67192 C 93.3251 % 13.61 C
Sensor: Nr:Datum:Temp:Feuchte:Taupunkt:
Aussen-T/F 3601 30-06-2014 00:00:00 16.05247 C 75.2167 % 11.67 C
3602 01-07-2014 00:00:00 15.65035 C 70.2917 % 10.26 C
3603 02-07-2014 00:00:00 16.86146 C 65.5313 % 10.37 C
3604 03-07-2014 00:00:00 19.78889 C 59.6493 % 11.72 C
3605 04-07-2014 00:00:00 20.36076 C 67.5382 % 14.16 C
3606 05-07-2014 00:00:00 20.4 C 77.3439 % 16.3 C
3607 06-07-2014 00:00:00 23.48509 C 69.7818 % 17.65 C
3608 07-07-2014 00:00:00 19.86367 C 64.8202 % 13.05 C
3609 08-07-2014 00:00:00 15.57633 C 89.8898 % 13.92 C
3610 09-07-2014 00:00:00 12.97083 C 95.1667 % 12.22 C
3611 10-07-2014 00:00:00 17.68292 C 90.2000 % 16.06 C
3612 11-07-2014 00:00:00 18.42369 C 88.6466 % 16.51 C
3613 12-07-2014 00:00:00 18.68363 C 88.1018 % 16.67 C
3614 13-07-2014 00:00:00 19.06941 C 85.5922 % 16.6 C
3615 14-07-2014 00:00:00 19.60206 C 79.5021 % 15.96 C
3616 15-07-2014 00:00:00 21.3216 C 70.6901 % 15.78 C
3617 16-07-2014 00:00:00 21.88732 C 74.8829 % 17.23 C
3618 17-07-2014 00:00:00 23.77903 C 70.2742 % 18.04 C
3619 18-07-2014 00:00:00 24.87935 C 65.5097 % 17.97 C
3620 19-07-2014 00:00:00 27.76989 C 58.4086 % 18.86 C
3621 20-07-2014 00:00:00 22.68715 C 80.6840 % 19.19 C
3622 21-07-2014 00:00:00 20.29965 C 91.0660 % 18.79 C
3623 22-07-2014 00:00:00 23.6856 C 82.0494 % 20.44 C
3624 23-07-2014 00:00:00 23.11788 C 73.8869 % 18.2 C
3625 24-07-2014 00:00:00 20.63922 C 73.5020 % 15.74 C
Sensor: Nr:Datum:Temp:Feuchte:Taupunkt:
Aussen-T/F 3626 25-07-2014 00:00:00 21.8193 C 72.9825 % 16.76 C
3627 26-07-2014 00:00:00 21.92 C 74.3097 % 17.14 C
3628 27-07-2014 00:00:00 19.66694 C 83.9339 % 16.88 C
3629 28-07-2014 00:00:00 22.3284 C 78.8580 % 18.48 C
3630 29-07-2014 00:00:00 19.88194 C 95.8125 % 19.19 C
3631 30-07-2014 00:00:00 19.93194 C 85.4097 % 17.41 C
3632 31-07-2014 00:00:00 20.20645 C 77.0896 % 16.06 C
3633 01-08-2014 00:00:00 20.08438 C 81.7153 % 16.86 C
3634 02-08-2014 00:00:00 20.10868 C 84.8264 % 17.48 C
3635 03-08-2014 00:00:00 21.3566 C 81.2743 % 18.02 C
3636 04-08-2014 00:00:00 19.00347 C 86.5799 % 16.71 C
3637 05-08-2014 00:00:00 18.77049 C 82.0208 % 15.64 C
3638 06-08-2014 00:00:00 17.59618 C 84.4201 % 14.94 C
3639 07-08-2014 00:00:00 18.9934 C 85.7986 % 16.56 C
3640 08-08-2014 00:00:00 18.87604 C 89.5625 % 17.12 C
3641 09-08-2014 00:00:00 20.16771 C 80.6076 % 16.73 C
3642 10-08-2014 00:00:00 19.0125 C 90.0208 % 17.34 C
3643 11-08-2014 00:00:00 17.0066 C 81.0000 % 13.72 C
3644 12-08-2014 00:00:00 17.62431 C 72.1944 % 12.56 C
3645 13-08-2014 00:00:00 15.97674 C 89.6528 % 14.28 C
3646 14-08-2014 00:00:00 16.15426 C 84.3298 % 13.51 C
3647 15-08-2014 00:00:00 14.48638 C 92.1720 % 13.23 C

Maximal/Minimal-Werte vom 16.08.2004 - 15.08.2014

Sensor Min Max Avg
Temp
(Aussen-T/F)
-16.4 °C
20-12-2009  01:30:01
36.9 °C
19-08-2012  16:30:00
11.01 °C
Feuchte
(Aussen-T/F)
20 %
09-09-2004  17:37:53
100 %
07-10-2012  03:05:00
73.38 %
Taupunkt
(Aussen-T/F)
-19.18 C
19-12-2009  00:00:00
21.36 C
19-06-2013  00:00:00
5.63 C

Die Daten stammen von einer Davis Vantage Pro 2 Wetter-Station und werden unter Linux mit der Software wview2wettercgi und aufbereitet. Alle Angaben erfolgen ohne Gewähr für ihre Vollständigkeit oder Richtigkeit.
Kontakt: Rainer Krienke krienke@uni-koblenz.de . Meine Webseiten an der Uni Koblenz oder privat.
Version: $Revision: 0.78 $